[[{"header":{"parameterUnit":"m.s-1","parameterCategory":1,"la1":30.6,"la2":28.766,"lo1":-90.7593,"lo2":-88.6598,"dy":0.0162,"dx":0.0183,"nx":116,"ny":114,"refTime":"2023-09-07T06:00:00:Z","depth":0,"parameterNumber":2,"parameterNumberName":"U-component_of_WINDS"},"data":[0.0,0.0,0.0,0.0,0.0,0.0,0.0,0.0,0.0,0.0,0.0,0.0,0.0,0.0,0.0,0.0,0.0,0.0,0.0,0.0,0.0,0.0,0.0,0.0,0.0,0.0,0.0,0.0,0.0,0.0,0.0,0.0,0.0,0.0,0.0,0.0,0.0,0.0,0.0,0.0,0.0,0.0,0.0,0.0,0.0,0.0,0.0,0.0,0.0,0.0,0.0,0.0,0.0,0.0,0.0,0.0,0.0,0.0,0.0,0.0,0.0,0.0,0.0,0.0,0.0,0.0,0.0,0.0,0.0,0.0,0.0,0.0,0.0,0.0,0.0,0.0,0.0,0.0,0.0,0.0,0.0,0.0,0.0,0.0,0.0,0.0,0.0,0.0,0.0,0.0,0.0,0.0,0.0,0.0,0.0,0.0,0.0,0.0,0.0,0.0,0.0,0.0,0.0,0.0,0.0,0.0,0.0,0.0,0.0,0.0,0.0,0.0,0.0,0.0,0.0,0.0,0.0,0.0,0.0,0.0,0.0,0.0,0.0,0.0,0.0,0.0,0.0,0.0,0.0,0.0,0.0,0.0,0.0,0.0,0.0,0.0,0.0,0.0,0.0,0.0,0.0,0.0,0.0,0.0,0.0,0.0,0.0,0.0,0.0,0.0,0.0,0.0,0.0,0.0,0.0,0.0,0.0,0.0,0.0,0.0,0.0,0.0,0.0,0.0,0.0,0.0,0.0,0.0,0.0,0.0,0.0,0.0,0.0,0.0,0.0,0.0,0.0,0.0,0.0,0.0,0.0,0.0,0.0,0.0,0.0,0.0,0.0,0.0,0.0,0.0,0.0,0.0,0.0,0.0,0.0,0.0,0.0,0.0,0.0,0.0,0.0,0.0,0.0,0.0,0.0,0.0,0.0,0.0,0.0,0.0,0.0,0.0,0.0,0.0,0.0,0.0,0.0,0.0,0.0,0.0,0.0,0.0,0.0,0.0,0.0,0.0,0.0,0.0,0.0,0.0,0.0,0.0,0.0,0.0,0.0,0.0,0.0,0.0,0.0,0.0,0.0,0.0,0.0,0.0,0.0,0.0,0.0,0.0,0.0,0.0,0.0,0.0,0.0,0.0,0.0,0.0,0.0,0.0,0.0,0.0,0.0,0.0,0.0,0.0,0.0,0.0,0.0,0.0,0.0,0.0,0.0,0.0,0.0,0.0,0.0,0.0,0.0,0.0,0.0,0.0,0.0,0.0,0.0,0.0,0.0,0.0,0.0,0.0,0.0,0.0,0.0,0.0,0.0,0.0,0.0,0.0,0.0,0.0,0.0,0.0,0.0,0.0,0.0,0.0,0.0,0.0,0.0,0.0,0.0,0.0,0.0,0.0,0.0,0.0,0.0,0.0,0.0,0.0,0.0,0.0,0.0,0.0,0.0,0.0,0.0,0.0,0.0,0.0,0.0,0.0,0.0,0.0,0.0,0.0,0.0,0.0,0.0,0.0,0.0,0.0,0.0,0.0,0.0,0.0,0.0,0.0,0.0,0.0,0.0,0.0,0.0,0.0,0.0,0.0,0.0,0.0,0.0,0.0,0.0,0.0,0.0,0.0,0.0,0.0,0.0,0.0,0.0,0.0,0.0,0.0,0.0,0.0,0.0,0.0,0.0,0.0,0.0,0.0,0.0,0.0,0.0,0.0,0.0,0.0,0.0,0.0,0.0,0.0,0.0,0.0,0.0,0.0,0.0,0.0,0.0,0.0,0.0,0.0,0.0,0.0,0.0,0.0,0.0,0.0,0.0,0.0,0.0,0.0,0.0,0.0,0.0,0.0,0.0,0.0,0.0,0.0,0.0,0.0,0.0,0.0,0.0,0.0,0.0,0.0,0.0,0.0,0.0,0.0,0.0,0.0,0.0,0.0,0.0,0.0,0.0,0.0,0.0,0.0,0.0,0.0,0.0,0.0,0.0,0.0,0.0,0.0,0.0,0.0,0.0,0.0,0.0,0.0,0.0,0.0,0.0,0.0,0.0,0.0,0.0,0.0,0.0,0.0,0.0,0.0,0.0,0.0,0.0,0.0,0.0,0.0,0.0,0.0,0.0,0.0,0.0,0.0,0.0,0.0,0.0,0.0,0.0,0.0,0.0,0.0,0.0,0.0,0.0,0.0,0.0,0.0,0.0,0.0,0.0,0.0,0.0,0.0,0.0,0.0,0.0,0.0,0.0,0.0,0.0,0.0,0.0,0.0,0.0,0.0,0.0,0.0,0.0,0.0,0.0,0.0,0.0,0.0,0.0,0.0,0.0,0.0,0.0,0.0,0.0,0.0,0.0,0.0,0.0,0.0,0.0,0.0,0.0,0.0,0.0,0.0,0.0,0.0,0.0,0.0,0.0,0.0,0.0,0.0,0.0,0.0,0.0,0.0,0.0,0.0,0.0,0.0,0.0,0.0,0.0,0.0,0.0,0.0,0.0,0.0,0.0,0.0,0.0,0.0,0.0,0.0,0.0,0.0,0.0,0.0,0.0,0.0,0.0,0.0,0.0,0.0,0.0,0.0,0.0,0.0,0.0,0.0,0.0,0.0,0.0,0.0,0.0,0.0,0.0,0.0,0.0,0.0,0.0,0.0,0.0,0.0,0.0,0.0,0.0,0.0,0.0,0.0,0.0,0.0,0.0,0.0,0.0,0.0,0.0,0.0,0.0,0.0,0.0,0.0,0.0,0.0,0.0,0.0,0.0,0.0,0.0,0.0,0.0,0.0,0.0,0.0,0.0,0.0,0.0,0.0,0.0,0.0,0.0,0.0,0.0,0.0,0.0,0.0,0.0,0.0,0.0,0.0,0.0,0.0,0.0,0.0,0.0,0.0,0.0,0.0,0.0,0.0,0.0,0.0,0.0,0.0,0.0,0.0,0.0,0.0,0.0,0.0,0.0,0.0,0.0,0.0,0.0,0.0,0.0,0.0,0.0,0.0,0.0,0.0,0.0,0.0,0.0,0.0,0.0,0.0,0.0,0.0,0.0,0.0,0.0,0.0,0.0,0.0,0.0,0.0,0.0,0.0,0.0,0.0,0.0,0.0,0.0,0.0,0.0,0.0,0.0,0.0,0.0,0.0,0.0,0.0,0.0,0.0,0.0,0.0,0.0,0.0,0.0,0.0,0.0,0.0,0.0,0.0,0.0,0.0,0.0,0.0,0.0,0.0,0.0,0.0,0.0,0.0,0.0,0.0,0.0,0.0,0.0,0.0,0.0,0.0,0.0,0.0,0.0,0.0,0.0,0.0,0.0,0.0,0.0,0.0,0.0,0.0,0.0,0.0,0.0,0.0,0.0,0.0,0.0,0.0,0.0,0.0,0.0,0.0,0.0,0.0,0.0,0.0,0.0,0.0,0.0,0.0,0.0,0.0,0.0,0.0,0.0,0.0,0.0,0.0,0.0,0.0,0.0,0.0,0.0,0.0,0.0,0.0,0.0,0.0,0.0,0.0,0.0,0.0,0.0,0.0,0.0,0.0,0.0,0.0,0.0,0.0,0.0,0.0,0.0,0.0,0.0,0.0,0.0,0.0,0.0,0.0,0.0,0.0,0.0,0.0,0.0,0.0,0.0,0.0,0.0,0.0,0.0,0.0,0.0,0.0,0.0,0.0,0.0,0.0,0.0,0.0,0.0,0.0,0.0,0.0,0.0,0.0,0.0,0.0,0.0,0.0,0.0,0.0,0.0,0.0,0.0,0.0,0.0,0.0,0.0,0.0,0.0,0.0,0.0,0.0,0.0,0.0,0.0,0.0,0.0,0.0,0.0,0.0,0.0,0.0,0.0,0.0,0.0,0.0,0.0,0.0,0.0,0.0,0.0,0.0,0.0,0.0,0.0,0.0,0.0,0.0,0.0,0.0,0.0,0.0,0.0,0.0,0.0,0.0,0.0,0.0,0.0,0.0,0.0,0.0,0.0,0.0,0.0,0.0,0.0,0.0,0.0,0.0,0.0,0.0,0.0,0.0,0.0,0.0,0.0,0.0,0.0,0.0,0.0,0.0,0.0,0.0,0.0,0.0,0.0,0.0,0.0,0.0,0.0,0.0,0.0,0.0,0.0,0.0,0.0,0.0,0.0,0.0,0.0,0.0,0.0,0.0,0.0,0.0,0.0,0.0,0.0,0.0,0.0,0.0,0.0,0.0,0.0,0.0,0.0,0.0,0.0,0.0,0.0,0.0,0.0,0.0,0.0,0.0,0.0,0.0,0.0,0.0,0.0,0.0,0.0,0.0,0.0,0.0,0.0,0.0,0.0,0.0,0.0,0.0,0.0,0.0,0.0,0.0,0.0,0.0,0.0,0.0,0.0,0.0,0.0,0.0,0.0,0.0,0.0,0.0,0.0,0.0,0.0,0.0,0.0,0.0,0.0,0.0,0.0,0.0,0.0,0.0,0.0,0.0,0.0,0.0,0.0,0.0,0.0,0.0,0.0,0.0,0.0,0.0,0.0,0.0,0.0,0.0,0.0,0.0,0.0,0.0,0.0,0.0,0.0,0.0,0.0,0.0,0.0,0.0,0.0,0.0,0.0,0.0,0.0,0.0,0.0,0.0,0.0,0.0,0.0,0.0,0.0,0.0,0.0,0.0,0.0,0.0,0.0,0.0,0.0,0.0,0.0,0.0,0.0,0.0,0.0,0.0,0.0,0.0,0.0,0.0,0.0,0.0,0.0,0.0,0.0,0.0,0.0,0.0,0.0,0.0,0.0,0.0,0.0,0.0,0.0,0.0,0.0,0.0,0.0,0.0,0.0,0.0,0.0,0.0,0.0,0.0,0.0,0.0,0.0,0.0,0.0,0.0,0.0,0.0,0.0,0.0,0.0,0.0,0.0,0.0,0.0,0.0,0.0,0.0,0.0,0.0,0.0,0.0,0.0,0.0,0.0,0.0,0.0,0.0,0.0,0.0,0.0,0.0,0.0,0.0,0.0,0.0,0.0,0.0,0.0,0.0,0.0,0.0,0.0,0.0,0.0,0.0,0.0,0.0,0.0,0.0,0.0,0.0,0.0,0.0,0.0,0.0,0.0,0.0,0.0,0.0,0.0,0.0,0.0,0.0,0.0,0.0,0.0,0.0,0.0,0.0,0.0,0.0,0.0,0.0,0.0,0.0,0.0,0.0,0.0,0.0,0.0,0.0,0.0,0.0,0.0,0.0,0.0,0.0,0.0,0.0,0.0,0.0,0.0,0.0,0.0,0.0,0.0,0.0,0.0,0.0,0.0,0.0,0.0,0.0,0.0,0.0,0.0,0.0,0.0,0.0,0.0,0.0,0.0,0.0,0.0,0.0,0.0,0.0,0.0,0.0,0.0,0.0,0.0,0.0,0.0,0.0,0.0,0.0,0.0,0.0,0.0,0.0,0.0,0.0,0.0,0.0,0.0,0.0,0.0,0.0,0.0,0.0,0.0,0.0,0.0,0.0,0.0,0.0,0.0,0.0,0.0,0.0,0.0,0.0,0.0,0.0,0.0,0.0,0.0,0.0,0.0,0.0,0.0,0.0,0.0,0.0,0.0,0.0,0.0,0.0,0.0,0.0,0.0,0.0,0.0,0.0,0.0,0.0,0.0,0.0,0.0,0.0,0.0,0.0,0.0,0.0,0.0,0.0,0.0,0.0,0.0,0.0,0.0,0.0,0.0,0.0,0.0,0.0,0.0,0.0,0.0,0.0,0.0,0.0,0.0,0.0,0.0,0.0,0.0,0.0,0.0,0.0,0.0,0.0,0.0,0.0,0.0,0.0,0.0,0.0,0.0,0.0,0.0,0.0,0.0,0.0,0.0,0.0,0.0,0.0,0.0,0.0,0.0,0.0,0.0,0.0,0.0,0.0,0.0,0.0,0.0,0.0,0.0,0.0,0.0,0.0,0.0,0.0,0.0,0.0,0.0,0.0,0.0,0.0,0.0,0.0,0.0,0.0,0.0,0.0,0.0,0.0,0.0,0.0,0.0,0.0,0.0,0.0,0.0,0.0,0.0,0.0,0.0,0.0,0.0,0.0,0.0,0.0,0.0,0.0,0.0,0.0,0.0,0.0,0.0,0.0,0.0,0.0,0.0,0.0,0.0,0.0,0.0,0.0,0.0,0.0,0.237,0.2663,0.0,0.0,0.0,0.0,0.0,0.0,0.0,0.0,0.0,0.0,0.0,0.0,0.0,0.0,0.0,0.0,0.0,0.0,0.0,0.0,0.0,0.0,0.0,0.0,0.0,0.0,0.0,0.0,0.0,0.0,0.0,0.0,0.0,0.0,0.0,0.0,0.0,0.0,0.0,0.0,0.0,0.0,0.0,0.0,0.0,0.0,0.0,0.0,0.0,0.0,0.0,0.0,0.0,0.0,0.0,0.0,0.0,0.0,0.0,0.0,0.0,0.0,0.0,0.0,0.0,0.0,0.0,0.0,0.0,0.0,0.0,0.0,0.0,0.0,0.0,0.0,0.0,0.0,0.0,0.0,0.0,0.0,0.0,0.0,0.0,0.0,0.0,0.0,0.0,0.0,0.0,0.0,0.0,0.0,0.0,0.0,0.0,0.0,0.0,0.0,0.0,0.0,0.0,0.0,0.0,0.0,0.0,0.0,0.0,0.0,0.0,0.0,0.0,0.0,0.1691,0.2436,0.0,0.0,0.0,0.0,0.0,0.0,0.0,0.0,0.0,0.0,0.0,0.0,0.0,0.0,0.0,0.0,0.0,0.0,0.0,0.0,0.0,0.0,0.0,0.0,0.0,0.0,0.0,0.0,0.0,0.0,0.0,0.0,0.0,0.0,0.0,0.0,0.0,0.0,0.0,0.0,0.0,0.0,0.0,0.0,0.0,0.0,0.0,0.0,0.0,0.0,0.0,0.0,0.0,0.0,0.0,0.0,0.0,0.0,0.0,0.0,0.0,0.0,0.0,0.0,0.0,0.0,0.0,0.0,0.0,0.0,0.0,0.0,0.0,0.0,0.0,0.0,0.0,0.0,0.0,0.0,0.0,0.0,0.0,0.0,0.0,0.0,0.0,0.0,0.0,0.0,0.0,0.0,0.0,0.0,0.0,0.0,0.0,0.0,0.0,0.0,0.0,0.0,0.0,0.0,0.0,0.0,0.0,0.0,-0.1337,-0.123,-0.0984,-0.123,-0.1477,-0.1596,0.0522,0.1644,0.1928,0.2213,0.0,0.0,0.0,0.0,0.0,0.0,0.0,0.0,0.0,0.0,0.0,0.0,0.0,0.0,0.0,0.0,0.0,0.0,0.0,0.0,0.0,0.0,-0.3208,-0.3208,-0.3358,-0.3452,0.0,0.0,0.0,0.0,0.0,0.0,0.0,0.0,0.0,0.0,0.0,0.0,-0.432,-0.4705,-0.5427,-0.6349,-0.547,0.0,0.0,0.0,0.0,0.0,0.0,0.0,0.0,0.0,0.0,0.0,0.0,0.0,0.0,0.0,0.0,0.0,0.0,0.0,0.0,0.0,0.0,0.0,0.0,0.0,0.0,0.0,0.0,0.0,0.0,0.0,0.0,0.0,0.0,0.0,0.0,0.0,0.0,0.0,0.0,0.0,0.0,0.0,-0.3315,-0.3118,0.0,0.0,0.0,0.0,0.0,0.0,0.0,0.0,0.0,0.0,0.0,0.0,0.0,-0.1567,-0.1688,-0.2068,-0.226,-0.2199,-0.2208,-0.2335,-0.2398,-0.1966,-0.2582,-0.3886,-0.3544,0.0,-0.103,0.0182,0.0,0.0,0.0,0.0,0.0,0.0,0.0,0.0,0.0,0.0,0.0,0.0,0.0,0.0,0.0,0.0,0.0,0.0,0.0,0.0,0.0,-0.3208,-0.3208,-0.3208,-0.3379,-0.3488,-0.3488,0.0,0.0,0.0,0.0,0.0,0.0,0.0,0.0,0.0,-0.5048,-0.5096,-0.5091,-0.5308,-0.5604,-0.5942,-0.5561,-0.5899,-0.6645,-0.5733,0.0,0.0,0.0,0.0,0.0,0.0,0.0,0.0,0.0,0.0,0.0,0.0,0.0,0.0,0.0,0.0,0.0,0.0,0.0,0.0,0.0,0.0,0.0,0.0,0.0,0.0,0.0,0.0,0.0,0.0,0.0,0.0,0.0,0.0,0.0,0.0,0.0,0.0,0.0,-0.3195,-0.3458,-0.3417,-0.3263,-0.3179,0.0,0.0,0.0,0.0,0.0,0.0,0.0,0.0,0.0,-0.2594,-0.2688,-0.2766,-0.2946,-0.3188,-0.3305,-0.3168,-0.322,-0.3205,-0.3187,-0.3187,-0.3529,-0.4214,-0.4417,-0.4069,-0.3301,-0.2526,-0.1842,-0.1165,0.0,0.0,0.0,0.0,0.295,0.3202,0.0,0.0,0.0,0.0,0.0,0.0,0.0,0.0,0.0,0.0,0.0,0.0,-0.3208,-0.3208,-0.3228,-0.3277,-0.3444,-0.3569,-0.3618,0.0,0.0,0.0,0.0,0.0,0.0,0.0,0.0,-0.5178,-0.5524,-0.5696,-0.5696,-0.5947,-0.6024,-0.6006,-0.6217,-0.6434,-0.6615,-0.5647,-0.5996,0.0,0.0,0.0,0.0,0.0,0.0,0.0,0.0,0.0,0.0,0.0,0.0,0.0,0.0,0.0,0.0,0.0,0.0,0.0,0.0,0.0,0.0,0.0,0.0,0.0,0.0,0.0,0.0,0.0,0.0,0.0,0.0,0.0,0.0,0.0,0.0,0.0,0.0,-0.3506,-0.3547,-0.3837,-0.3736,-0.3724,0.0,0.0,0.0,0.0,0.0,0.0,-0.3378,-0.3285,-0.3312,-0.3718,-0.3746,-0.39,-0.4118,-0.4208,-0.4164,-0.4044,-0.406,-0.3996,-0.3926,-0.4145,-0.422,-0.4292,-0.4581,-0.4726,-0.4698,-0.448,-0.387,-0.3025,-0.2441,-0.1669,-0.077,0.0128,0.0958,0.1653,0.0,0.0,0.0,0.0,0.0,0.0,0.0,0.0,0.0,0.0,0.0,-0.3208,-0.3208,-0.3208,-0.3281,-0.3456,-0.3626,-0.3762,-0.398,-0.458,-0.4952,0.0,0.0,0.0,0.0,0.0,0.0,-0.5653,-0.5696,-0.5696,-0.5739,-0.6531,-0.689,-0.6756,-0.762,-0.715,-0.5782,-0.5696,-0.6246,-0.714,0.0,0.0,0.0,0.0,0.0,0.0,0.0,0.0,0.0,0.0,0.0,0.0,0.0,0.0,0.0,0.0,0.0,0.0,0.0,0.0,0.0,0.0,0.0,0.0,0.0,0.0,0.0,0.0,0.0,0.0,0.0,0.0,0.0,0.0,0.0,0.0,0.0,0.0,0.0,-0.4487,-0.3804,0.0,0.0,0.0,0.0,-0.4111,-0.3747,-0.375,-0.4482,-0.3979,-0.3833,-0.4278,-0.4387,-0.4499,-0.4687,-0.4695,-0.4701,-0.4635,-0.464,-0.4645,-0.4654,-0.4654,-0.4654,-0.4654,-0.4726,-0.4726,-0.4723,-0.4563,-0.4483,-0.4411,-0.4493,-0.4496,-0.4277,-0.2817,-0.1279,0.0139,0.0,0.0,0.0,0.0,0.0,0.0,0.0,0.0,0.0,-0.2338,-0.2643,-0.2944,-0.3175,-0.301,-0.3049,-0.3472,-0.3605,-0.3778,-0.4004,-0.4645,-0.5135,0.0,0.0,0.0,0.0,0.0,-0.655,-0.6076,-0.6594,-0.6862,-0.6862,-0.7367,-0.7564,-0.7523,-0.7809,-0.7834,-0.7562,-0.6886,-0.7032,-0.768,-0.7215,-0.7638,0.0,0.0,0.0,0.0,0.0,0.0,0.0,0.0,0.0,0.0,0.0,0.0,0.0,0.0,0.0,0.0,0.0,0.0,0.0,0.0,0.0,0.0,0.0,0.0,0.0,0.0,0.0,0.0,0.0,0.0,0.0,0.0,0.0,0.0,0.0,0.0,0.0,-0.4097,-0.4118,0.0,-0.4475,-0.435,-0.4531,-0.5249,-0.486,-0.4954,-0.5748,-0.5603,-0.5586,-0.5717,-0.5765,-0.582,-0.5875,-0.5875,-0.5923,-0.6012,-0.6012,-0.6064,-0.6088,-0.5639,-0.5487,-0.5487,-0.5036,-0.4887,-0.4887,-0.4814,-0.4723,-0.4656,-0.4662,-0.474,-0.4673,-0.4155,-0.3623,-0.3092,0.0,0.0,0.0,0.0,0.0,0.0,0.0,0.0,0.0,-0.2103,-0.2441,-0.2779,-0.301,-0.2944,-0.3068,-0.3513,-0.3637,-0.3806,-0.4089,-0.4805,-0.5394,0.0,0.0,0.0,0.0,-0.6852,-0.6898,-0.6687,-0.7235,-0.7567,-0.7629,-0.8301,-0.8456,-0.823,-0.8714,-0.9012,-0.9033,-0.8274,-0.8252,-0.8625,-0.8484,-0.8668,-0.9064,0.0,0.0,0.0,0.0,0.0,0.0,0.0,0.0,0.0,0.0,0.0,0.0,0.0,0.0,0.0,0.0,0.0,0.0,0.0,0.0,0.0,0.0,0.0,0.0,0.0,0.0,0.0,0.0,0.0,0.0,0.0,0.0,0.0,0.0,0.0,-0.4483,-0.4468,-0.4742,-0.5064,-0.5394,-0.5257,-0.5411,-0.6047,-0.5841,-0.5873,-0.644,-0.6523,-0.6546,-0.6531,-0.6603,-0.6561,-0.6618,-0.6618,-0.667,-0.6772,-0.6825,-0.6912,-0.7025,-0.6609,-0.6479,-0.6396,-0.6004,-0.5689,-0.5453,-0.5453,-0.5249,-0.483,-0.479,-0.4853,-0.4861,-0.4861,-0.4916,-0.4809,0.0,0.0,0.0,0.0,0.0,0.0,0.0,0.0,-0.207,-0.207,-0.2441,-0.2679,-0.2712,-0.2977,-0.332,-0.3669,-0.3702,-0.389,-0.4291,-0.5178,-0.5696,0.0,0.0,0.0,-0.6979,-0.7027,-0.7174,-0.7513,-0.7527,-0.7655,-0.801,-0.9346,-0.9587,-0.895,-1.0341,-1.0557,-0.9999,-0.9876,-0.9887,-1.0023,-0.9943,-0.9752,-0.966,0.0,0.0,0.0,0.0,0.0,0.0,0.0,0.0,0.0,0.0,0.0,0.0,0.0,0.0,0.0,0.0,0.0,0.0,0.0,0.0,0.0,0.0,0.0,0.0,0.0,0.0,0.0,0.0,0.0,0.0,0.0,0.0,0.0,-0.4653,-0.4644,-0.4975,-0.5627,-0.5713,-0.6043,-0.6937,-0.6482,-0.6275,-0.652,-0.6531,-0.6531,-0.6539,-0.6539,-0.6611,-0.6771,-0.6779,-0.6859,-0.6953,-0.6957,-0.6957,-0.6957,-0.719,-0.7266,-0.7274,-0.7442,-0.7518,-0.7518,-0.7518,-0.7105,-0.6443,-0.6443,-0.5952,-0.5261,-0.5067,-0.5021,-0.5018,-0.5018,-0.5027,-0.4991,0.0,0.0,0.0,0.0,0.0,0.0,0.0,-0.1509,-0.174,-0.174,-0.204,-0.2374,-0.2679,-0.2779,-0.3078,-0.3631,-0.3702,-0.401,-0.4765,-0.5351,0.0,0.0,0.0,0.0,-0.6979,-0.7235,-0.7426,-0.7513,-0.7957,-0.856,-0.9307,-0.9881,-1.0363,-1.0863,-1.1399,-1.1718,-1.1911,-1.1977,-1.236,-1.2689,-1.0785,-1.0169,-1.0454,0.0,0.0,0.0,0.0,0.0,0.0,0.0,0.0,0.0,0.0,0.0,0.0,0.0,0.0,0.0,0.0,0.0,0.0,0.0,0.0,0.0,0.0,0.0,0.0,0.0,0.0,0.0,0.0,0.0,0.0,0.0,0.0,-0.6327,-0.5771,-0.5839,-0.5951,-0.5921,-0.5984,-0.6211,-0.6573,-0.6522,-0.6662,-0.7265,-0.7281,-0.756,-0.8076,-0.808,-0.8174,-0.8376,-0.838,-0.8474,-0.8667,-0.8667,-0.8667,-0.8671,-0.8725,-0.8747,-0.8747,-0.8315,-0.8172,-0.8094,-0.7683,-0.7353,-0.7188,-0.7188,-0.708,-0.6777,-0.5586,-0.5089,-0.5018,-0.5018,-0.4999,-0.4966,0.0,0.0,0.0,0.0,0.0,0.0,0.0,-0.1377,-0.1609,-0.1609,-0.204,-0.2441,-0.2679,-0.2812,-0.3113,-0.3669,-0.3889,-0.4284,-0.4938,-0.561,0.0,0.0,0.0,-0.7081,-0.7208,-0.7419,-0.7725,-0.821,-0.875,-0.9453,-1.0294,-1.1099,-1.1664,-1.1922,-1.2537,-1.2785,-1.2843,-1.2958,-1.3325,-1.3681,-1.2219,-1.1456,-1.1273,-1.1522,-1.1149,-1.0533,-1.0795,-1.0744,-1.0533,-1.0533,0.0,0.0,0.0,0.0,0.0,0.0,0.0,0.0,0.0,0.0,0.0,0.0,0.0,0.0,0.0,0.0,0.0,0.0,0.0,0.0,0.0,0.0,0.0,0.0,-0.7026,-0.6988,-0.6872,-0.6763,-0.6639,-0.6543,-0.679,-0.707,-0.7262,-0.7279,-0.7535,-0.8174,-0.8197,-0.8435,-0.8954,-0.8963,-0.902,-0.9148,-0.9148,-0.9204,-0.9322,-0.9322,-0.9322,-0.9322,-0.9417,-0.946,-0.9377,-0.921,-0.9078,-0.9078,-0.8657,-0.8404,-0.8062,-0.8062,-0.7854,-0.7442,0.0,0.0,0.0,0.0,-0.5165,-0.5159,0.0,0.0,0.0,0.0,0.0,0.0,0.0,-0.141,-0.1609,-0.164,-0.2278,-0.2712,-0.2712,-0.301,-0.335,-0.3669,-0.4118,-0.4596,-0.511,0.0,0.0,-0.6979,-0.6979,-0.7161,-0.7506,-0.7592,-0.8161,-0.9188,-0.9694,-1.0354,-1.1196,-1.262,-1.3029,-1.2597,-1.3696,-1.3795,-1.3252,-1.3373,-1.3602,-1.3814,-1.3928,-1.3221,-1.2193,-1.2577,-1.1549,-0.997,-1.0308,-1.0087,-0.9666,-0.9614,0.0,0.0,0.0,0.0,0.0,0.0,0.0,0.0,0.0,0.0,0.0,0.0,0.0,0.0,0.0,0.0,0.0,0.0,0.0,0.0,0.0,0.0,0.0,0.0,-0.7655,-0.7796,-0.7844,-0.7458,-0.7246,-0.7388,-0.7851,-0.8236,-0.8453,-0.8491,-0.8656,-0.903,-0.9058,-0.9138,-0.9313,-0.9322,0.0,0.0,0.0,-0.937,-0.9393,-0.9393,-0.9393,-0.9398,-0.9592,-0.9696,-0.9724,-0.9904,-1.009,-1.0109,-1.0109,-0.9666,-0.913,-0.913,-0.8586,-0.7811,-0.6766,-0.636,-0.6194,-0.5618,-0.5368,-0.5355,0.0,0.0,0.0,0.0,0.0,0.0,0.0,-0.1542,-0.1707,-0.1971,-0.2408,-0.2712,-0.2712,-0.301,-0.335,-0.3669,-0.4118,-0.4872,0.0,0.0,-0.6894,-0.6979,-0.6979,-0.7161,-0.7506,-0.8155,-0.8703,-0.9188,-1.0239,-1.125,-1.2214,-1.2968,-1.3642,-1.4232,-1.4746,-1.4902,-1.4784,-1.4942,-1.5002,-1.5052,-1.5052,-1.4542,-1.3594,-1.2939,-1.2452,-1.1973,-1.0808,-1.0344,-1.019,-0.9718,-0.9614,-0.9614,-0.9614,0.0,0.0,0.0,0.0,0.0,0.0,0.0,0.0,0.0,0.0,0.0,0.0,0.0,0.0,0.0,0.0,0.0,0.0,0.0,0.0,-0.775,-0.7754,-0.7896,-0.8236,-0.8346,-0.8328,-0.8208,-0.8407,-0.8666,-0.8883,-0.9048,-0.9181,-0.9256,-0.9266,-0.9285,-0.9322,-0.9322,-0.9403,-0.9494,-0.9498,-0.9663,-0.9828,-0.9833,-0.9833,-0.9833,-0.9871,0.0,-1.0154,-1.0192,-1.0301,-1.0452,-1.0452,-1.036,-1.0269,-1.0269,-0.9691,-0.8755,-0.7098,-0.6031,-0.5618,-0.5452,-0.5368,-0.5366,0.0,0.0,0.0,0.0,0.0,0.0,0.0,-0.1909,-0.2208,-0.2374,-0.2709,-0.3006,-0.3167,-0.3364,-0.3689,-0.4314,-0.4966,0.0,0.0,-0.6852,-0.6979,-0.6979,-0.6979,-0.7358,-0.8088,-0.8482,-0.9225,-1.0234,-1.1247,-1.2192,-1.3013,-1.3787,-1.4412,-1.4961,-1.5196,-1.5313,-1.5313,-1.569,-1.5864,-1.5864,-1.5864,-1.5592,-1.5039,-1.3798,-1.2904,-1.2166,-1.114,-1.0597,-1.03,-0.9769,-0.9614,-0.9614,-0.9614,-0.9406,-0.9295,0.0,0.0,0.0,0.0,0.0,0.0,0.0,0.0,0.0,0.0,0.0,0.0,0.0,0.0,-0.8292,0.0,0.0,-0.8086,-0.7965,-0.8023,-0.8198,-0.851,-0.8732,-0.8826,-0.8727,-0.8892,-0.9053,-0.9162,-0.9266,-0.937,-0.9478,-0.9483,-0.953,-0.9634,-0.9639,-0.9686,-0.9795,-0.98,-0.9847,-1.0038,-1.006,-1.0112,-1.0116,-1.0216,-1.0319,-1.0423,-1.0423,-1.048,-1.0575,-1.0575,-1.0575,-1.0575,-1.0575,-0.9864,-0.8651,-0.7674,-0.6873,-0.6058,-0.572,-0.5551,-0.5542,0.0,0.0,0.0,0.0,0.0,0.0,0.0,0.0,-0.2646,-0.2779,-0.3043,-0.3335,-0.3649,-0.3714,-0.4093,-0.5033,0.0,0.0,0.0,-0.7063,-0.7021,-0.7147,-0.7063,-0.7469,-0.8508,-0.8749,-0.9596,-1.1116,-1.2095,-1.2869,-1.3477,-1.4449,-1.4953,-1.5156,-1.5303,-1.541,-1.541,-1.5911,-1.614,-1.614,-1.614,-1.614,-1.5975,-1.4639,-1.3351,-1.2078,-1.1477,-1.0959,-1.0446,-0.9925,-0.9769,-0.9718,-0.9614,-0.951,-0.9562,-1.0233,-1.0043,0.0,0.0,0.0,0.0,0.0,0.0,0.0,0.0,0.0,-0.8957,-0.926,-0.915,-0.9006,-0.9014,-0.9096,-0.8996,-0.8457,-0.8539,-0.8678,-0.8737,-0.8982,-0.9148,-0.9148,-0.9289,-0.9384,-0.9384,-0.9422,-0.9516,-0.9691,-0.9705,-0.9776,-1.0028,-1.0038,-1.0038,-1.0038,-1.0081,-1.01,-1.01,-1.0225,-1.0334,-1.0334,-1.0494,-1.0594,-1.0636,-1.0636,-1.066,-1.0697,-1.0697,-1.0599,-1.0506,-1.0464,-0.9601,-0.8284,-0.816,-0.753,-0.677,-0.6039,-0.5765,-0.5749,0.0,0.0,0.0,0.0,0.0,0.0,0.0,0.0,0.0,-0.3043,-0.3175,-0.3335,-0.3649,-0.3714,-0.4189,0.0,0.0,0.0,-0.7551,-0.7224,-0.7189,-0.7599,-0.7224,-0.7308,-0.7963,-0.8982,-0.9827,-1.0525,-1.1973,-1.2929,-1.3359,-1.4101,-1.4687,-1.5029,-1.5303,-1.541,-1.541,-1.5468,-1.5526,-1.5526,-1.5526,-1.5526,-1.5419,-1.4885,-1.4033,-1.3032,-1.2148,-1.1524,-1.1049,-1.0498,-1.0293,-1.0241,-0.9769,-0.9302,-0.8988,-0.9562,0.0,-0.904,-0.9614,-0.9932,-1.0344,-1.1352,-1.1211,-1.0797,0.0,0.0,-1.1066,-1.0431,-1.0522,-1.0528,-0.9977,-1.0115,-1.0148,-0.9547,-0.9569,-0.9585,-0.9037,-0.9327,-0.9494,-0.9494,-0.9513,-0.9527,-0.9527,-0.9776,-0.9889,-0.9918,-0.9918,-0.9927,-1.0038,-1.0038,-1.0038,-1.0038,-1.0135,-1.0239,-1.0239,-1.0438,-1.0542,-1.0542,-1.0565,-1.0674,-1.0858,-1.0858,-1.0957,-1.1127,-1.1127,-1.0738,-1.004,-0.9865,-0.9311,-0.8435,-0.754,-0.7189,-0.696,-0.6199,-0.5885,-0.5869,0.0,0.0,0.0,0.0,0.0,0.0,0.0,0.0,0.0,0.0,-0.3368,-0.3626,-0.3946,-0.4526,-0.5171,0.0,0.0,0.0,-0.7259,-0.7105,-0.7105,-0.7266,-0.7105,-0.7351,-0.8112,-0.9112,-0.9966,-1.077,-1.2037,-1.2859,-1.3212,-1.3997,-1.4506,-1.4783,-1.5187,-1.541,-1.541,-1.5748,-1.5911,-1.5911,-1.5911,-1.576,-1.5517,-1.5012,-1.4192,-1.3313,-1.2613,-1.21,0.0,0.0,-1.0403,-1.03,-0.9769,-0.9517,-0.9472,-0.9932,-0.9866,0.0,-1.0079,-1.0659,0.0,0.0,-1.127,-1.1061,-1.0821,-1.0836,-1.0848,-1.0309,-1.0299,-1.0409,-1.0453,-1.0184,-0.9963,0.0,-0.9597,-0.9399,-0.9337,-0.9452,-0.9691,-0.9809,-0.9823,-0.9823,-0.9823,-0.9899,-1.0038,-1.0038,-1.0038,-1.0038,-1.0038,-1.0038,-1.0008,-1.0135,-1.0225,-1.0329,-1.0447,-1.0655,-1.0764,-1.0764,-1.0877,-1.0981,-1.1071,-1.1071,-1.1113,-1.1194,-1.0703,-1.0314,-0.9916,-0.9437,-0.8717,-0.7926,-0.7573,-0.7064,-0.6654,-0.6172,-0.601,-0.5994,0.0,0.0,0.0,0.0,0.0,0.0,0.0,0.0,0.0,0.0,0.0,-0.3719,-0.4145,-0.5098,0.0,0.0,0.0,0.0,0.0,-0.7063,-0.7063,-0.7238,-0.7231,-0.7461,-0.8091,-0.8986,-0.9885,-1.0789,-1.1742,-1.2554,-1.3096,-1.3774,-1.4227,-1.4453,-1.4865,-1.5059,-1.5059,-1.5491,-1.5716,-1.5716,-1.5716,-1.5522,-1.5172,-1.4636,-1.4043,-1.3455,-1.3086,-1.2568,0.0,0.0,-1.0795,-1.0592,-1.0269,-1.0226,-1.036,-1.0808,-1.0836,-1.0808,-1.1187,0.0,0.0,-1.1533,-1.1383,-1.1167,-1.0982,-1.0923,-1.0877,-1.0704,-1.076,-1.094,-1.1346,-1.0833,-1.0376,-1.0501,-0.9927,-0.947,-0.9597,-0.9696,-0.9786,-1.0019,-1.0038,-1.0038,-1.0038,-1.0038,-1.0038,-1.0038,-1.0095,-1.0041,-1.0041,-1.0181,-1.0197,-1.0353,-1.0414,-1.0518,-1.066,-1.0872,-1.0976,-1.0981,-1.1127,-1.1194,-1.1194,-1.0998,-1.09,-1.0801,-1.0015,-0.9521,-0.9324,-0.8726,-0.8028,-0.7232,-0.7232,-0.6933,-0.6415,-0.6246,-0.6162,-0.6119,0.0,0.0,0.0,0.0,0.0,0.0,0.0,0.0,0.0,0.0,0.0,0.0,0.0,0.0,0.0,0.0,0.0,0.0,0.0,-0.7266,-0.7273,-0.7829,-0.7731,-0.7666,-0.7602,-0.854,-0.9403,-1.0237,-1.0767,-1.1755,-1.3086,-1.3269,-1.3551,-1.3936,-1.4063,-1.4116,-1.4116,-1.417,-1.417,-1.417,-1.417,-1.417,-1.4111,-1.3701,-1.3525,-1.3506,-1.3455,0.0,0.0,-1.2157,-1.1792,-1.1366,-1.1516,-1.1566,0.0,-1.2129,-1.2038,-1.1977,-1.284,0.0,-1.1368,-1.2234,-1.202,-1.1633,-1.1883,-1.1956,-1.2051,-1.2371,-1.2691,-1.2909,-1.2931,-1.2532,-1.2006,-1.1449,-1.0835,-1.0279,-0.97,-0.9819,-1.0028,-1.0038,-1.0038,-1.0038,0.0,-1.0038,-1.0038,-1.0038,-1.0145,-1.0263,-1.0263,-1.0447,-1.0556,-1.0565,-1.0768,-1.0882,-1.0886,-1.1085,-1.1184,-1.1184,-1.1194,-1.1194,-1.1194,-1.0413,-1.0019,-1.0019,-0.9221,-0.8425,-0.763,-0.763,-0.7132,-0.6434,-0.6434,-0.6437,-0.6434,-0.6429,-0.6355,-0.6246,0.0,0.0,0.0,0.0,0.0,0.0,0.0,0.0,0.0,0.0,0.0,0.0,0.0,0.0,0.0,0.0,0.0,0.0,0.0,-0.6997,-0.7105,-0.728,-0.7655,-0.7839,-0.778,-0.8625,-0.9248,-0.962,-0.9969,-1.0724,-1.1826,-1.224,-1.2836,-1.3513,-1.3898,-1.4077,-1.4077,-1.3692,-1.3746,-1.4077,-1.3692,-1.3424,-1.3223,-1.3401,-1.3128,-1.2629,0.0,0.0,-1.2126,-1.2157,-1.1832,-1.1416,-1.1566,-1.1844,-1.2337,-1.3014,-1.3358,-1.3539,-1.3529,0.0,-1.2783,-1.2541,-1.2203,-1.1904,-1.2014,-1.2204,-1.2445,-1.2775,-1.2928,-1.314,-1.3579,-1.2513,-1.1614,-1.1846,-1.0665,-0.9771,-0.9885,-0.9908,-1.0038,-1.0038,-1.0038,0.0,0.0,0.0,0.0,-1.0164,-1.0357,-1.0475,-1.0475,-1.0537,-1.0641,-1.0783,-1.0858,-1.0962,-1.1094,-1.1161,-1.1194,-1.1194,-1.1194,-1.09,-1.0413,-1.0117,-0.9723,-0.9122,-0.8326,-0.7829,-0.7531,-0.7033,-0.6634,-0.6437,-0.6437,-0.6437,-0.6437,-0.6437,-0.6412,-0.6363,0.0,0.0,0.0,0.0,0.0,0.0,0.0,0.0,0.0,0.0,0.0,0.0,0.0,0.0,0.0,0.0,0.0,0.0,0.0,0.0,-0.7105,-0.7356,-0.7863,-0.8152,-0.8226,-0.8856,-0.9292,-0.9589,-0.976,-1.0346,-1.1343,-1.1696,-1.2149,-1.2725,-1.3046,-1.3213,-1.3163,-1.2651,-1.2846,-1.3336,-1.2716,-1.2484,-1.2541,-1.2899,-1.2686,0.0,0.0,0.0,-1.1868,-1.2363,-1.2039,-1.1566,-1.2061,-1.26,-1.3134,-1.4034,-1.4223,-1.4093,-1.3758,-1.3468,-1.3139,-1.2484,-1.2187,-1.2029,-1.2328,-1.2548,-1.2789,-1.3111,-1.3184,-1.3309,-1.3733,-1.2357,-1.1264,-1.1885,-1.0468,-0.9474,-0.9889,-1.0038,-1.0038,-1.0038,-1.0038,-1.0067,0.0,0.0,0.0,-1.0277,-1.0532,-1.0688,-1.0688,-1.0759,-1.0858,-1.1,-1.1005,-1.1066,-1.1194,-1.1194,-1.1194,-1.1194,-1.09,-1.0507,-1.0019,-0.9422,-0.8825,-0.8326,-0.7531,-0.7132,-0.7132,-0.6634,-0.6437,-0.6437,-0.6437,-0.6437,-0.6437,-0.6437,-0.6437,-0.6426,0.0,0.0,0.0,0.0,0.0,0.0,0.0,0.0,0.0,0.0,0.0,0.0,0.0,0.0,0.0,0.0,0.0,0.0,0.0,0.0,0.0,-0.7938,-0.8308,-0.8594,-0.878,-0.9151,-0.9578,-1.0071,-1.0029,-1.0535,-1.1523,-1.1523,-1.1543,-1.1606,-1.1606,-1.1606,-1.1562,-1.1079,-1.1403,-1.2066,-1.1247,-1.1367,-1.2105,-1.2151,0.0,0.0,0.0,0.0,0.0,-1.2569,-1.2393,-1.1823,-1.3017,-1.3549,-1.3974,-1.5044,-1.4592,-1.3768,-1.3768,-1.3166,-1.2476,-1.2141,-1.205,-1.2226,-1.2862,-1.3023,-1.3126,-1.3433,-1.3492,-1.3499,0.0,0.0,-1.1211,-1.1659,-1.0374,-0.9464,-0.988,-1.0028,-1.0038,0.0,0.0,0.0,0.0,0.0,0.0,-1.0319,-1.0683,-1.091,-1.091,-1.1094,-1.1194,-1.1194,-1.1194,-1.1194,-1.1194,-1.1194,-1.1198,-1.1096,-1.0314,-0.992,-0.9821,-0.8326,-0.7531,-0.7531,-0.6734,-0.6437,-0.6437,-0.6437,-0.6437,-0.6437,-0.6437,-0.6437,-0.6437,-0.6437,-0.6437,-0.6437,0.0,0.0,0.0,0.0,0.0,0.0,0.0,0.0,0.0,0.0,0.0,0.0,0.0,0.0,0.0,0.0,0.0,0.0,0.0,0.0,0.0,0.0,0.0,0.0,0.0,0.0,0.0,0.0,-0.9004,-0.9324,-1.0474,-1.0218,-1.064,-1.1606,-1.1606,-1.1606,-1.1562,-1.1069,-1.117,-1.1719,0.0,-1.0732,-1.074,0.0,0.0,0.0,0.0,0.0,0.0,0.0,0.0,0.0,0.0,-1.3013,-1.3314,-1.4649,-1.4721,-1.446,-1.446,-1.3863,-1.3161,-1.283,-1.2533,-1.2504,-1.2914,-1.3192,-1.3397,-1.3477,-1.3492,-1.3572,0.0,0.0,0.0,-1.1732,-1.0449,0.0,-0.9686,-0.9856,0.0,-1.0038,0.0,-1.0124,-1.0253,-1.0456,0.0,0.0,-1.0972,-1.1118,-1.1118,-1.1165,-1.1194,-1.1194,-1.1194,-1.1194,-1.1194,-1.1194,-1.0904,-1.0314,-1.0117,-0.9418,-0.8226,-0.7829,-0.7232,-0.6734,-0.6537,-0.6437,-0.6437,-0.6437,-0.6437,-0.6437,-0.6437,-0.6437,-0.6437,-0.6437,-0.6437,-0.6437,0.0,0.0,0.0,0.0,0.0,0.0,0.0,0.0,0.0,0.0,0.0,0.0,0.0,0.0,0.0,0.0,0.0,0.0,0.0,0.0,0.0,0.0,0.0,0.0,0.0,0.0,0.0,0.0,0.0,0.0,-0.9876,-0.968,-1.0003,-1.0736,-1.0736,-1.082,-1.0996,-1.0475,0.0,0.0,0.0,0.0,0.0,0.0,0.0,0.0,0.0,0.0,0.0,0.0,0.0,-1.1648,-1.2538,-1.2575,-1.2556,-1.3961,0.0,-1.4112,-1.3795,-1.3623,-1.3353,-1.2702,-1.2422,-1.2431,-1.2899,-1.3148,-1.3279,-1.3279,-1.3279,0.0,-1.3331,-1.1985,0.0,0.0,0.0,0.0,-0.9522,-0.9743,-0.9852,0.0,-1.0038,0.0,-1.0253,-1.0456,-1.0664,0.0,-1.1085,-1.1194,-1.1194,-1.1194,-1.1194,-1.1194,-1.1194,-1.1194,-1.1194,-1.0806,-1.0413,-1.0019,-0.9324,-0.8425,-0.763,-0.7232,-0.6833,-0.6437,-0.6437,-0.6437,-0.6437,-0.6437,-0.6437,-0.6437,-0.6437,-0.6437,-0.6437,-0.6437,-0.6437,-0.6437,0.0,0.0,0.0,0.0,0.0,0.0,0.0,0.0,0.0,0.0,0.0,0.0,0.0,0.0,0.0,0.0,0.0,0.0,0.0,0.0,0.0,0.0,0.0,0.0,0.0,0.0,0.0,0.0,0.0,0.0,0.0,0.0,0.0,0.0,0.0,0.0,0.0,0.0,0.0,0.0,0.0,0.0,0.0,0.0,0.0,0.0,0.0,0.0,0.0,0.0,-1.0312,-1.1294,-1.2223,-1.2022,-1.172,-1.3127,-1.3545,-1.3321,-1.2696,-1.3009,-1.323,-1.227,-1.1971,-1.2189,-1.2804,-1.2943,-1.2943,-1.2943,0.0,-1.2855,-1.2577,-1.1414,-1.0593,-1.0855,0.0,-0.9119,-0.9511,-0.9527,-0.971,-0.9889,-0.9937,-1.0124,-1.0253,-1.0456,-1.0664,-1.0877,-1.1085,-1.1194,-1.1194,-1.1194,-1.1194,-1.1194,-1.1194,-1.1194,-1.1194,-1.0413,-0.992,-0.9821,-0.8326,-0.7531,-0.7431,-0.6736,-0.6437,-0.6437,-0.6437,-0.6437,-0.6437,-0.6437,-0.6437,-0.6537,-0.6437,-0.6437,-0.6537,-0.6437,-0.6437,-0.6437,0.0,0.0,0.0,0.0,0.0,0.0,0.0,0.0,0.0,0.0,-0.3274,-0.3504,0.0,0.0,0.0,0.0,0.0,0.0,0.0,0.0,0.0,0.0,0.0,0.0,0.0,0.0,0.0,0.0,0.0,0.0,0.0,0.0,0.0,0.0,0.0,0.0,0.0,0.0,0.0,0.0,0.0,0.0,0.0,0.0,0.0,0.0,0.0,0.0,0.0,0.0,-0.9762,-1.003,-1.0766,-1.0865,-1.105,-1.2305,-1.307,-1.3321,-1.2696,-1.3009,-1.323,-1.227,-1.1971,-1.2073,-1.2519,-1.2606,0.0,0.0,-1.2606,-1.2592,-1.2533,-1.1312,-1.0389,-1.0587,0.0,0.0,-0.9096,-0.9431,-0.9658,0.0,-0.9852,-1.0124,-1.0253,-1.0456,0.0,0.0,-1.1085,-1.1194,-1.1194,-1.1194,-1.1194,-1.1194,-1.1194,-1.1194,-1.1194,-1.0413,-0.9624,-0.9023,-0.8028,-0.7232,-0.6637,-0.6437,-0.6437,-0.6437,-0.6437,-0.6539,-0.6742,-0.6742,-0.6842,-0.7036,-0.6842,-0.6842,-0.7036,-0.6537,-0.6539,-0.6742,0.0,0.0,0.0,0.0,0.0,0.0,0.0,-0.1711,-0.1911,-0.2145,-0.2805,-0.3237,-0.3245,-0.3499,-0.3761,0.0,0.0,0.0,0.0,0.0,0.0,0.0,0.0,0.0,0.0,0.0,-0.8837,-0.9279,0.0,-0.8814,-0.8958,-0.857,-0.8496,-0.87,-0.87,0.0,0.0,0.0,0.0,0.0,0.0,0.0,0.0,0.0,0.0,0.0,0.0,0.0,0.0,0.0,-0.9614,-0.9702,-1.0185,-1.0448,-1.0732,-1.1571,-1.2377,-1.2826,-1.222,-1.2528,-1.2805,-1.1996,-1.1787,-1.1875,-1.2197,0.0,0.0,0.0,-1.227,-1.2219,-1.205,-1.1281,0.0,-1.0197,-0.9558,0.0,0.0,-0.9214,0.0,-0.955,-0.9828,-1.0081,0.0,-1.039,-1.0617,-1.0721,-1.1019,-1.1194,-1.1194,-1.1194,-1.1194,-1.1194,-1.0801,-1.0806,-1.1194,-0.9616,-0.8726,-0.8825,-0.7531,-0.6734,-0.6437,-0.6437,-0.6437,-0.6639,-0.6639,-0.6739,-0.7042,-0.7042,-0.7039,-0.7138,-0.7042,-0.7039,-0.7135,-0.6936,-0.6939,-0.7042,0.0,0.0,0.0,0.0,0.0,0.0,0.0,-0.1412,-0.1611,-0.1611,-0.2206,-0.2706,-0.2907,-0.327,-0.356,0.0,0.0,0.0,0.0,0.0,0.0,0.0,0.0,0.0,0.0,0.0,0.0,-0.8545,-0.8553,0.0,0.0,0.0,0.0,0.0,-0.825,-0.8414,-0.8732,0.0,0.0,0.0,0.0,-0.7739,0.0,0.0,0.0,0.0,0.0,0.0,0.0,0.0,-0.9614,-0.9658,-0.9914,-1.0221,-1.0572,-1.1041,-1.1783,-1.2303,-1.1725,-1.2035,-1.2328,-1.174,-1.1622,-1.1626,-1.1875,-1.1933,0.0,0.0,-1.1933,-1.1796,-1.1416,0.0,-1.0377,0.0,-0.934,-0.8988,0.0,0.0,-0.9384,0.0,-0.98,0.0,-1.0038,-1.0329,0.0,-1.0575,-1.0957,-1.1194,-1.1194,-1.1194,-1.1194,-1.1194,-1.0413,-1.0314,-1.0904,-0.8718,-0.7928,-0.8528,-0.7132,-0.6437,-0.6437,-0.6437,-0.6639,-0.6842,-0.6842,-0.7042,-0.7238,-0.7238,-0.7338,-0.7338,-0.7338,-0.7338,-0.7338,-0.7238,-0.7238,-0.7238,0.0,0.0,0.0,0.0,0.0,0.0,0.0,-0.1313,-0.1346,-0.1346,-0.1611,-0.1876,-0.2081,-0.2937,-0.3467,0.0,0.0,0.0,0.0,0.0,0.0,0.0,0.0,0.0,0.0,0.0,0.0,-0.7009,-0.7133,0.0,0.0,0.0,0.0,0.0,0.0,-0.7795,-0.7795,-0.7356,0.0,0.0,0.0,0.0,0.0,0.0,0.0,0.0,0.0,0.0,0.0,0.0,0.0,-0.9621,-0.965,-0.9885,-1.0331,-1.1306,0.0,0.0,-1.1665,-1.2035,-1.2328,-1.174,-1.1622,-1.163,-1.1659,0.0,0.0,-1.1667,-1.1667,-1.1401,-1.0744,-1.0053,-0.9444,-0.8952,0.0,-0.8255,0.0,0.0,0.0,-0.9351,0.0,0.0,-1.0038,-1.0329,-1.0575,-1.0575,-1.0957,-1.1194,-1.1194,-1.1194,-1.1194,-1.1194,-1.0413,-1.0019,-1.0117,-0.8425,-0.763,-0.773,-0.6833,-0.6539,-0.6742,-0.6742,-0.6942,-0.7138,-0.7138,-0.7341,-0.7547,-0.7547,-0.7743,-0.7942,-0.7643,-0.7743,-0.7839,-0.7338,-0.7341,-0.7543,0.0,0.0,0.0,0.0,0.0,0.0,-0.1346,-0.1313,-0.1279,-0.1179,-0.1444,-0.1676,-0.1742,-0.2441,-0.2937,-0.3039,0.0,0.0,0.0,0.0,0.0,0.0,0.0,0.0,0.0,0.0,-0.6337,-0.6459,-0.6513,0.0,0.0,0.0,0.0,0.0,0.0,-0.728,-0.728,-0.707,0.0,0.0,0.0,0.0,0.0,0.0,0.0,0.0,0.0,0.0,0.0,0.0,0.0,0.0,-0.9848,-0.9863,0.0,0.0,-1.1197,-1.1503,-1.1596,-1.1652,-1.1669,-1.1633,-1.1622,-1.1622,-1.1622,0.0,-1.1622,-1.1622,-1.1247,-1.0863,-1.0548,-0.997,-0.9297,-0.8685,0.0,0.0,-0.8251,0.0,0.0,-0.9294,-0.9587,0.0,0.0,0.0,-1.0499,-1.0749,-1.1033,-1.0998,-1.0507,-1.0511,-1.0511,-1.0511,-0.9217,-0.8825,-0.932,-0.773,-0.7132,-0.763,-0.6939,-0.6742,-0.6845,-0.6942,-0.7141,-0.7444,-0.7444,-0.7543,-0.7842,-0.7842,-0.7942,-0.7939,-0.7842,-0.7942,-0.7939,-0.7739,-0.7739,-0.7842,0.0,0.0,0.0,0.0,0.0,-0.1847,-0.1512,-0.1412,-0.1345,-0.1179,-0.1343,-0.1442,-0.1442,-0.1942,-0.2374,-0.2606,-0.3072,0.0,0.0,0.0,0.0,0.0,0.0,0.0,0.0,0.0,-0.5647,-0.562,-0.5922,-0.5959,0.0,0.0,-0.6343,-0.6628,0.0,0.0,0.0,0.0,0.0,0.0,0.0,0.0,0.0,0.0,0.0,0.0,0.0,0.0,0.0,0.0,0.0,0.0,0.0,0.0,0.0,0.0,-1.0828,-1.1019,-1.1512,-1.1453,-1.1275,-1.1564,-1.1622,-1.156,0.0,0.0,-1.1247,-1.1045,-1.0541,-1.0161,-0.997,-0.9518,-0.9,-0.8296,0.0,-0.8391,-0.8122,-0.8439,0.0,0.0,0.0,-0.9729,0.0,-1.0201,-1.0508,-1.0868,-1.1085,-1.0806,-1.0019,-0.9821,-0.962,-0.962,-0.8326,-0.7829,-0.8425,-0.7132,-0.6736,-0.7335,-0.6942,-0.6845,-0.7045,-0.7241,-0.7441,-0.7743,-0.7743,-0.7842,-0.8038,-0.8038,-0.8038,-0.8038,-0.8038,-0.8038,-0.8038,-0.8038,-0.8038,-0.8038,0.0,0.0,0.0,0.0,0.0,0.0,-0.1911,-0.1709,-0.1509,-0.1313,-0.1179,-0.1111,-0.1111,-0.1477,-0.1778,-0.1981,-0.2483,0.0,0.0,0.0,0.0,0.0,0.0,0.0,0.0,0.0,-0.418,-0.4316,-0.5265,-0.5567,-0.5308,-0.5916,-0.613,-0.5996,0.0,0.0,0.0,0.0,0.0,0.0,0.0,0.0,0.0,0.0,0.0,0.0,0.0,0.0,0.0,0.0,0.0,0.0,0.0,0.0,0.0,0.0,-1.0843,-1.0733,-1.1446,-1.1622,-1.1622,-1.1622,-1.1622,-1.1435,0.0,-1.0485,-1.0288,-0.9646,-0.9518,-0.9326,-0.8619,-0.849,-0.8296,-0.7652,-0.7707,0.0,-0.8051,-0.8439,0.0,0.0,0.0,-0.9729,-0.9932,-1.0329,-1.066,-1.0877,-1.1085,-1.0806,-1.0019,-0.9225,-0.8825,-0.8825,-0.8028,-0.763,-0.763,-0.6833,-0.6539,-0.6845,-0.6845,-0.7045,-0.7547,-0.7547,-0.7743,-0.8038,-0.8038,-0.8038,-0.8038,-0.8038,-0.8038,-0.8038,-0.8038,-0.8038,-0.8038,-0.8038,-0.8038,-0.8038,0.0,0.0,0.0,0.0,0.0,0.0,0.0,-0.1742,-0.1542,-0.1313,-0.1179,-0.111,-0.111,-0.1311,-0.1445,-0.1514,-0.2247,0.0,0.0,0.0,0.0,0.0,0.0,0.0,0.0,0.0,-0.3558,-0.3693,-0.3993,-0.426,-0.4495,-0.467,-0.5053,-0.5518,-0.5518,-0.5567,0.0,0.0,0.0,0.0,0.0,0.0,0.0,0.0,0.0,0.0,0.0,0.0,0.0,0.0,0.0,0.0,0.0,0.0,0.0,0.0,0.0,0.0,-1.1446,-1.1461,-1.116,-1.094,-1.0863,-1.0674,-0.9964,-0.9843,-0.9773,-0.9518,-0.9134,-0.8742,-0.8554,-0.8102,-0.7717,-0.7521,-0.7579,0.0,0.0,0.0,0.0,-0.9237,-0.9634,-0.9707,0.0,0.0,-1.0269,-0.9997,-1.0096,-0.9875,-0.9217,-0.8425,-0.8028,-0.8028,-0.7232,-0.6734,-0.6734,-0.6739,-0.6742,-0.6845,-0.7144,-0.7447,-0.7646,-0.7743,-0.7942,-0.8038,-0.8038,-0.8038,-0.8038,-0.8038,-0.8038,-0.8038,-0.8038,-0.8038,-0.8038,-0.8038,-0.8038,-0.8038,0.0,0.0,0.0,0.0,0.0,0.0,0.0,-0.1778,-0.1542,-0.1445,-0.1244,-0.111,-0.111,-0.1179,-0.1246,-0.1279,-0.1911,0.0,0.0,0.0,0.0,0.0,0.0,0.0,0.0,-0.2763,-0.2937,-0.3117,-0.3382,-0.3609,-0.3836,-0.3836,-0.4184,-0.4787,-0.4696,-0.4787,0.0,0.0,0.0,0.0,0.0,0.0,-0.499,0.0,0.0,0.0,0.0,0.0,0.0,0.0,0.0,0.0,0.0,0.0,0.0,0.0,-0.9995,-1.0356,0.0,-1.0951,-1.0746,-1.0242,-1.0098,0.0,0.0,-0.9134,-0.9064,-0.8812,-0.8425,-0.8102,-0.8102,-0.7782,-0.7521,-0.7521,-0.7521,0.0,0.0,0.0,0.0,-0.8491,0.0,0.0,0.0,-0.9068,-0.941,-0.9062,-0.9141,-0.8909,-0.8247,-0.7815,-0.7451,-0.7257,-0.6813,-0.6539,-0.6539,-0.6839,-0.7042,-0.7144,-0.7447,-0.7646,-0.7743,-0.7942,-0.8038,-0.8038,-0.8038,-0.8038,0.0,-0.8038,-0.8038,-0.8038,-0.8038,-0.8038,-0.8038,-0.8038,-0.8038,-0.8038,0.0,0.0,0.0,0.0,0.0,0.0,0.0,-0.1811,-0.1609,-0.1609,-0.131,-0.111,-0.111,-0.111,-0.1145,-0.1279,0.0,0.0,0.0,0.0,0.0,0.0,0.0,0.0,0.0,-0.2059,-0.2366,-0.263,-0.3208,-0.3429,-0.3337,-0.3337,-0.3517,-0.3836,-0.3653,-0.3921,0.0,0.0,0.0,0.0,0.0,0.0,0.0,0.0,0.0,0.0,0.0,0.0,0.0,0.0,0.0,0.0,0.0,0.0,0.0,0.0,0.0,0.0,0.0,-1.019,0.0,0.0,0.0,0.0,-0.8554,-0.8425,0.0,-0.7652,-0.7521,-0.7521,-0.7521,-0.7521,-0.7521,-0.7521,-0.7521,0.0,0.0,-0.7187,0.0,0.0,-0.7625,0.0,-0.783,-0.8068,-0.8166,-0.8091,-0.8317,-0.8038,-0.7308,-0.7334,-0.7215,-0.6748,-0.6767,-0.6833,-0.6842,-0.7138,-0.7341,-0.7646,-0.7646,-0.7743,-0.8038,-0.8038,-0.8038,-0.8038,-0.8038,-0.8038,-0.8038,-0.8038,-0.8038,-0.8038,-0.8038,-0.8038,-0.8038,-0.8038,-0.8038,-0.8038,0.0,0.0,0.0,0.0,0.0,0.0,0.0,0.0,0.0,0.0,-0.131,-0.111,-0.111,-0.111,-0.1111,0.0,0.0,0.0,0.0,0.0,0.0,0.0,0.0,0.0,0.0,-0.1567,-0.1746,-0.2014,-0.2148,-0.2457,-0.2851,-0.2765,-0.2901,-0.3211,-0.3476,-0.3921,0.0,0.0,0.0,0.0,0.0,0.0,0.0,0.0,0.0,0.0,-0.5529,-0.5947,0.0,0.0,0.0,0.0,0.0,0.0,0.0,0.0,-0.9146,-0.9217,-0.8457,0.0,-0.9582,-0.8877,-0.8748,-0.8554,0.0,-0.7717,-0.7717,-0.7521,0.0,0.0,-0.7521,-0.7521,-0.7521,-0.7521,0.0,0.0,-0.7244,0.0,0.0,-0.8053,-0.787,-0.7703,-0.7822,-0.7871,-0.7767,-0.7353,-0.7394,-0.7372,-0.7302,-0.6774,-0.655,-0.6649,-0.6872,-0.7036,-0.7138,-0.7344,-0.7543,-0.7646,-0.7842,-0.7942,-0.8038,-0.8038,-0.8038,-0.8038,-0.8038,-0.8038,-0.8038,-0.8038,-0.8038,-0.8038,-0.8038,-0.8038,-0.8038,-0.8038,-0.8038,-0.8038,0.0,0.0,0.0,0.0,0.0,0.0,0.0,0.0,0.0,0.0,0.0,0.0,0.0,0.0,0.0,0.0,0.0,0.0,0.0,0.0,0.0,0.0,0.0,-0.1433,-0.1164,-0.1164,-0.1299,-0.1614,-0.1748,-0.1969,-0.2279,-0.2192,-0.237,-0.2812,-0.3341,-0.3785,0.0,0.0,0.0,0.0,-0.4941,0.0,0.0,0.0,0.0,0.0,-0.5529,-0.5947,0.0,-0.6852,-0.753,-0.8231,0.0,0.0,0.0,0.0,-0.8451,-0.8558,-0.7554,-0.8059,-0.8736,-0.8205,-0.8037,-0.7977,-0.7587,0.0,0.0,0.0,0.0,0.0,0.0,0.0,0.0,0.0,-0.7064,0.0,0.0,0.0,-0.733,-0.742,-0.7307,-0.7135,0.0,-0.6871,-0.6729,-0.6448,-0.6454,-0.6485,-0.6743,-0.6438,-0.6409,-0.6856,-0.7071,-0.7299,-0.7341,-0.7643,-0.7743,-0.7743,-0.7942,-0.8038,-0.8038,-0.8038,-0.8038,-0.8038,-0.8038,-0.8038,-0.8038,-0.8038,-0.8038,-0.8038,-0.8038,-0.8038,-0.8038,-0.8038,-0.8038,-0.8038,0.0,0.0,0.0,0.0,0.0,0.0,0.0,0.0,0.0,0.0,0.0,0.0,0.0,0.0,0.0,0.0,0.0,0.0,0.0,0.0,0.0,0.0,0.0,-0.103,-0.085,-0.0805,-0.0985,-0.1254,-0.1524,-0.1658,-0.1658,-0.1703,-0.1969,-0.246,-0.3075,-0.3476,0.0,0.0,-0.4578,-0.4801,-0.4893,0.0,0.0,0.0,0.0,0.0,0.0,0.0,0.0,-0.6803,-0.7453,-0.8048,-0.8143,0.0,0.0,0.0,0.0,0.0,-0.7017,-0.74,-0.7913,-0.7593,-0.7521,-0.7521,-0.7521,0.0,0.0,0.0,0.0,0.0,0.0,-0.6999,0.0,0.0,0.0,0.0,-0.6197,-0.6662,-0.6884,-0.6354,-0.6484,0.0,-0.5902,-0.5733,-0.5733,-0.5733,-0.5733,-0.5822,-0.6083,-0.6187,-0.653,-0.7011,-0.7243,-0.7434,-0.7579,-0.7819,-0.8038,-0.8038,-0.8038,-0.8038,-0.8038,-0.8038,-0.8038,-0.8038,-0.8038,-0.8038,-0.8038,-0.8038,-0.8038,-0.8038,-0.8038,-0.8038,-0.8038,-0.8038,-0.8038,-0.8038,0.0,0.0,0.0,0.0,0.0,0.0,0.0,0.0,0.0,0.0,0.0,0.0,0.0,0.0,0.0,0.0,0.0,0.0,0.0,0.0,0.0,0.0,-0.0513,-0.0671,-0.0492,-0.0492,-0.0492,-0.0537,-0.0895,-0.103,-0.103,-0.1344,-0.17,-0.2144,-0.2277,-0.281,-0.3609,-0.3785,-0.4136,-0.4661,-0.4757,0.0,0.0,0.0,0.0,0.0,0.0,0.0,0.0,-0.6719,-0.7096,-0.7312,-0.7975,0.0,0.0,0.0,0.0,0.0,-0.6865,-0.6875,-0.7111,-0.7426,-0.7521,-0.7521,-0.7521,0.0,0.0,0.0,0.0,0.0,0.0,-0.6741,-0.6741,0.0,0.0,-0.6033,0.0,0.0,-0.5618,-0.6331,0.0,-0.584,-0.6584,-0.6083,-0.5733,-0.5733,-0.5733,-0.5822,-0.6083,-0.6103,-0.6433,-0.7008,-0.7053,-0.7237,-0.757,-0.7818,-0.8038,-0.8038,-0.8038,-0.8038,-0.8038,-0.8038,-0.8038,-0.8038,-0.8038,-0.8038,-0.8038,-0.8038,-0.8038,-0.8038,-0.8038,-0.8038,-0.8038,-0.8038,-0.8038,-0.8038,0.0,0.0,0.0,0.0,0.0,0.0,0.0,0.0,0.0,0.0,0.0,0.0,0.0,0.0,0.0,0.0,0.0,0.0,0.0,0.0,0.0,0.0354,0.0171,-0.0,-0.009,-0.009,-0.0179,-0.0403,-0.0537,-0.0626,-0.0626,-0.0985,-0.1343,-0.1744,-0.1966,-0.2499,-0.3252,-0.3649,-0.4132,-0.4618,0.0,0.0,0.0,0.0,0.0,0.0,0.0,0.0,0.0,0.0,-0.6422,-0.6745,-0.736,0.0,0.0,0.0,0.0,0.0,-0.6856,-0.6791,-0.689,-0.7357,-0.726,-0.7068,-0.7068,0.0,0.0,0.0,0.0,0.0,0.0,0.0,-0.5749,-0.5422,0.0,-0.6086,-0.5584,-0.5901,-0.6182,0.0,-0.6216,-0.6272,-0.6309,-0.6042,-0.5997,-0.608,-0.5997,-0.6086,-0.6438,-0.6441,-0.6646,-0.7065,-0.7148,-0.7315,-0.7475,-0.7692,-0.7801,-0.7801,-0.7879,-0.7916,-0.7919,-0.8001,-0.8038,-0.8038,-0.8038,-0.8038,-0.8038,-0.8038,-0.8038,-0.8031,-0.7946,-0.7916,-0.7906,-0.7831,-0.7801,-0.7801,0.0,0.0,0.0,0.0,0.0,0.0,0.0,0.0,0.0,0.0,0.0,0.0,0.0,0.0,0.0,0.0,0.0,0.0,0.0,0.0,0.0592,0.0639,0.069,0.0584,0.0315,0.0315,0.0179,-0.0134,-0.0224,-0.0313,-0.0403,-0.0671,-0.094,-0.1299,-0.1654,-0.2144,-0.2765,-0.3382,-0.3953,-0.4482,0.0,0.0,0.0,0.0,0.0,0.0,0.0,0.0,0.0,0.0,0.0,0.0,0.0,0.0,0.0,-0.6846,-0.6894,-0.693,-0.6806,-0.6768,-0.6828,-0.7237,0.0,-0.6872,-0.6741,0.0,0.0,0.0,0.0,0.0,0.0,-0.5355,0.0,-0.4403,-0.5354,-0.5957,-0.5482,-0.6173,-0.6507,-0.599,-0.6376,-0.6537,-0.6058,-0.6092,-0.6257,-0.6428,-0.6257,-0.6349,-0.6792,-0.6795,-0.6881,-0.7051,-0.7255,-0.7319,-0.7319,-0.7434,-0.7529,-0.76,-0.7709,-0.7763,-0.7767,-0.7882,-0.7936,-0.7936,-0.7936,-0.7936,-0.7936,-0.7936,-0.7936,-0.7926,-0.7807,-0.7763,-0.7746,-0.7641,-0.76,-0.76,0.0,0.0,0.0,0.0,0.0,0.0,0.0,0.0,0.0,0.0,0.0,0.0,0.0,0.0,0.0,0.0,0.0,0.0,0.0,0.0,0.0641,0.0669,0.0702,0.0674,0.0674,0.0674,0.0629,0.0629,0.0314,-0.0045,-0.0403,-0.0403,-0.0626,-0.094,-0.0984,-0.1431,-0.2188,-0.2721,-0.3337,-0.3997,-0.4439,0.0,0.0,0.0,0.0,0.0,0.0,0.0,0.0,0.0,0.0,0.0,0.0,0.0,-0.6363,-0.6363,-0.644,-0.6558,-0.673,-0.6625,-0.6497,-0.6689,-0.7129,0.0,-0.6806,-0.6675,0.0,-0.602,0.0,0.0,0.0,-0.5153,-0.4998,-0.4577,-0.5062,-0.5346,-0.488,-0.5018,-0.5227,-0.55,-0.572,-0.5936,-0.6141,-0.6268,-0.6343,-0.6428,-0.6428,-0.6523,-0.6795,-0.6795,-0.6881,-0.7051,-0.7149,-0.7156,-0.7156,-0.717,-0.7316,-0.76,-0.7611,-0.7614,-0.7614,-0.7628,-0.7631,-0.7631,-0.7631,-0.7631,-0.7631,-0.7631,-0.7631,-0.7631,-0.7617,-0.7614,-0.7614,-0.7604,-0.76,-0.76,0.0,0.0,0.0,0.0,0.0,0.0,0.0,0.0,0.0,0.0,0.0,0.0,0.0,0.0,0.0,0.0,0.0,0.0,0.0,0.0,0.1082,0.0715,0.1447,0.1524,0.0719,0.0719,0.0719,0.0719,0.0584,0.0314,-0.0045,-0.0045,-0.0359,-0.0895,-0.0895,-0.1341,-0.2144,-0.2804,-0.3422,-0.3949,-0.4578,-0.4893,0.0,0.0,0.0,0.0,0.0,0.0,0.0,0.0,-0.528,-0.5323,-0.5782,-0.5895,-0.5936,-0.6218,-0.6403,-0.6462,-0.6369,-0.6384,-0.6387,-0.624,0.0,0.0,0.0,-0.5422,-0.516,-0.4964,-0.4897,0.0,0.0,0.0,-0.4602,-0.4519,-0.4785,-0.4916,-0.4817,-0.4939,-0.511,-0.5308,-0.5666,-0.593,-0.6147,-0.6436,-0.657,-0.666,-0.6653,-0.6789,-0.6966,-0.6966,-0.7054,-0.7139,-0.7139,-0.7139,-0.7139,-0.7139,-0.7197,-0.7316,-0.7411,-0.7458,-0.7461,-0.7556,-0.76,-0.76,-0.76,-0.76,-0.76,-0.76,-0.76,-0.759,-0.7495,-0.7397,-0.7312,-0.7312,-0.7312,-0.7312,0.0,0.0,0.0,0.0,0.0,0.0,0.0,0.0,0.0,0.0,0.0,0.0,0.0,0.0,0.0,0.0,0.0,0.0,0.0595,0.1039,0.1129,0.0729,0.1545,0.1658,0.0943,0.0764,0.0719,0.0719,0.0719,0.0584,0.036,0.036,0.0045,-0.0538,-0.0672,-0.1118,-0.1786,-0.2627,-0.3202,-0.3598,-0.4447,-0.4806,0.0,0.0,0.0,0.0,0.0,0.0,0.0,0.0,-0.499,-0.5072,-0.5361,-0.5443,-0.5466,-0.5819,-0.6021,-0.6141,-0.5969,-0.5966,-0.594,0.0,0.0,0.0,-0.4957,-0.4694,-0.4498,-0.4367,-0.43,0.0,-0.43,0.0,0.0,0.0,-0.4671,-0.4708,-0.4868,-0.4963,-0.5168,-0.5401,-0.575,-0.6074,-0.6237,-0.6536,-0.6681,-0.6858,-0.6777,-0.6853,-0.6984,-0.7075,-0.7095,-0.7139,-0.7139,-0.7139,-0.7139,-0.7139,-0.7139,-0.7143,-0.7248,-0.7299,-0.7302,-0.7407,-0.7455,-0.7455,-0.7455,-0.7455,-0.7455,-0.7455,-0.7455,-0.7444,-0.7339,-0.7234,-0.7139,-0.7139,-0.7139,-0.7139,0.0,0.0,0.0,0.0,0.0,0.0,0.0,0.0,0.0,0.0,0.0,0.0,0.0,0.0,0.0,0.0,0.0,0.0,0.0585,0.0589,0.0615,0.0716,0.0719,0.0943,0.1389,0.0943,0.0719,0.0719,0.0719,0.0719,0.0719,0.0719,0.0539,0.018,-0.0224,-0.0582,-0.0985,-0.2057,-0.2591,-0.2807,-0.3873,-0.432,-0.4451,0.0,0.0,0.0,0.0,0.0,0.0,0.0,-0.499,-0.499,-0.499,-0.4945,-0.4944,-0.5079,-0.523,-0.5422,-0.5527,-0.537,0.0,0.0,0.0,0.0,-0.43,-0.4694,-0.4957,-0.4431,0.0,-0.43,-0.43,-0.43,0.0,-0.4687,-0.4726,-0.4738,-0.4982,-0.5168,-0.5398,-0.5559,-0.5991,-0.6314,-0.6471,-0.661,-0.6698,-0.6698,-0.6702,-0.6766,-0.6919,-0.6926,-0.699,-0.7132,-0.7136,-0.7136,-0.7139,-0.7139,-0.7139,-0.7139,-0.7139,-0.7139,-0.7139,-0.7139,-0.7139,-0.7139,-0.7139,-0.7139,-0.7139,-0.7139,-0.7139,-0.7139,-0.7139,-0.7139,-0.7139,-0.7139,-0.7139,-0.7139,0.0,0.0,0.0,0.0,0.0,0.0,0.0,0.0,0.0,0.0,0.0,0.0,0.0,0.0,0.0,0.0,0.0,0.0,0.0585,0.0902,0.0981,0.0716,0.1344,0.1611,0.1389,0.1256,0.1032,0.0719,0.0719,0.0719,0.0719,0.0719,0.0539,0.018,-0.0224,-0.0582,-0.0984,-0.2142,-0.2674,-0.2807,-0.3917,-0.4364,-0.4451,0.0,0.0,0.0,0.0,0.0,0.0,0.0,0.0,0.0,-0.499,-0.4945,-0.4944,-0.5079,-0.523,-0.5362,-0.5094,-0.5049,0.0,0.0,0.0,0.0,0.0,-0.4431,0.0,0.0,-0.43,-0.43,-0.43,-0.43,0.0,-0.4687,-0.4726,-0.4738,-0.4982,-0.5168,-0.5398,-0.5559,-0.5827,-0.6084,-0.6322,-0.6454,-0.6539,-0.6539,-0.6637,-0.6719,-0.6766,-0.677,-0.6787,-0.6827,-0.6831,-0.6885,-0.699,-0.6993,-0.7041,-0.7139,-0.7139,-0.7139,-0.7139,-0.7139,-0.7139,-0.7139,-0.7139,-0.7139,-0.7139,-0.7139,-0.7139,-0.7139,-0.7139,-0.7139,-0.7139,-0.7139,-0.7139,-0.7139,0.0,0.0,0.0,0.0,0.0,0.0,0.0,0.0,0.0,0.0,0.0,0.0,0.0,0.0,0.0,0.0,0.0,0.0,0.0,0.0879,0.0959,0.0717,0.1256,0.1389,0.1121,0.1299,0.1166,0.0719,0.0719,0.0719,0.0719,0.0719,0.0584,0.0405,-0.0,-0.0403,-0.0895,-0.1875,-0.241,-0.2721,-0.3788,-0.4188,-0.4232,0.0,0.0,0.0,0.0,0.0,0.0,0.0,0.0,0.0,-0.4629,0.0,-0.4518,-0.4709,-0.4819,-0.4765,-0.4656,0.0,0.0,0.0,-0.43,-0.43,-0.43,0.0,0.0,0.0,-0.4367,-0.43,-0.4431,-0.4431,0.0,-0.4684,-0.4798,-0.4956,-0.5134,-0.5398,-0.5553,-0.5712,-0.5944,-0.6099,-0.6261,-0.6339,-0.6386,-0.6386,-0.6474,-0.6552,-0.6607,-0.661,-0.6637,-0.6698,-0.6702,-0.6909,-0.7253,-0.7337,-0.7469,-0.7901,-0.7561,-0.7561,-0.7905,-0.7344,-0.7139,-0.7139,-0.7139,-0.7139,-0.7139,-0.7139,-0.7139,-0.7139,-0.7139,-0.7139,-0.7139,-0.7139,-0.7139,-0.7139,0.0,0.0,0.0,0.0,0.0,0.0,0.0,0.0,0.0,0.0,0.0,0.0,0.0,0.0,0.0,0.0,0.0,0.0,0.0,0.0,0.0688,0.0718,0.0719,0.0764,0.0719,0.1166,0.1166,0.0719,0.0719,0.0719,0.0719,0.0719,0.0719,0.0674,0.036,-0.0135,-0.076,-0.1344,-0.1969,-0.2593,-0.3483,-0.3836,-0.388,-0.4232,0.0,0.0,0.0,0.0,0.0,0.0,0.0,0.0,-0.4068,-0.3955,-0.3881,-0.4216,-0.4145,-0.4001,-0.4238,0.0,0.0,0.0,-0.43,0.0,-0.43,-0.43,-0.4364,-0.4558,0.0,-0.4367,-0.4558,-0.4625,-0.4639,-0.4671,-0.5003,-0.5243,-0.5269,-0.5622,-0.5864,-0.5864,-0.6103,-0.6338,-0.6338,-0.6338,-0.6338,-0.6338,-0.6338,-0.6318,-0.6444,-0.6531,-0.6676,-0.6737,-0.6822,-0.7237,-0.7983,-0.7983,-0.8397,-0.9068,-0.8336,-0.8414,-0.9078,-0.7744,-0.7186,-0.7186,-0.7099,-0.7099,-0.7099,-0.7099,-0.7099,-0.7099,-0.7099,-0.7099,-0.7099,-0.7099,-0.7099,-0.7099,0.0,0.0,0.0,0.0,0.0,0.0,0.0,0.0,0.0,0.0,0.0,0.0,0.0,0.0,0.0,0.0,0.0,0.0,0.0,0.0,0.0516,0.0673,0.1033,0.1077,0.0719,0.1166,0.1166,0.0719,0.0719,0.0719,0.0719,0.0719,0.0719,0.0674,0.036,-0.0135,-0.076,-0.1344,-0.1969,-0.2549,-0.3217,-0.353,-0.353,-0.388,-0.4012,0.0,0.0,0.0,0.0,0.0,0.0,0.0,-0.4101,-0.4053,-0.4081,-0.4273,-0.4209,-0.411,0.0,-0.43,0.0,0.0,-0.43,-0.43,-0.43,-0.4431,-0.4628,-0.4625,-0.4431,-0.4367,-0.4558,-0.4625,-0.461,-0.4697,-0.4944,-0.521,-0.5376,-0.5717,-0.5864,-0.5864,-0.6103,-0.6338,-0.6338,-0.6338,-0.6338,-0.6338,-0.6338,-0.6274,-0.6305,-0.6924,-0.7324,-0.7364,-0.7905,-0.8438,-0.8666,-0.8666,-0.8827,-0.9068,-0.8905,-0.8905,-0.9068,-0.8168,-0.7704,-0.7708,-0.7045,-0.6797,-0.6797,-0.6797,-0.6797,-0.6797,-0.6797,-0.6797,-0.6797,-0.6797,-0.6797,-0.6797,0.0,0.0,0.0,0.0,0.0,0.0,0.0,0.0,0.0,0.0,0.0,0.0,0.0,0.0,0.0,0.0,0.0,0.0,0.0,0.0,0.0527,0.0674,0.0943,0.0943,0.0719,0.0943,0.0943,0.0719,0.0719,0.0719,0.0719,0.0719,0.0719,0.0674,0.0539,0.0045,-0.0626,-0.1164,-0.1925,-0.2729,-0.3084,-0.3306,-0.3398,-0.3575,-0.3705,-0.3718,-0.3543,0.0,0.0,0.0,0.0,0.0,0.0,0.0,-0.3907,-0.4156,-0.4142,-0.4145,0.0,0.0,0.0,0.0,0.0,-0.43,-0.43,-0.4498,-0.4628,-0.4694,-0.4631,-0.4631,-0.4824,-0.4824,-0.487,-0.487,-0.516,-0.5418,-0.5551,-0.5793,-0.602,-0.6093,-0.618,-0.6338,-0.6338,-0.6338,-0.6338,-0.6338,-0.6338,-0.6493,-0.6872,-0.7253,-0.7714,-0.8093,-0.847,-0.8904,-0.9396,-0.9396,-0.9606,-1.0032,-0.9645,-0.9493,-0.9424,-0.8414,-0.7926,-0.7843,-0.7026,-0.6702,-0.6702,-0.6702,-0.6702,-0.6702,-0.6702,-0.6702,-0.6702,-0.6702,-0.6702,-0.6702,0.0,0.0,0.0,0.0,0.0,0.0,0.0,0.0,0.0,0.0,0.0,0.0,0.0,0.0,0.0,0.0,0.0,0.0,0.0,0.0,0.0,0.0674,0.0719,0.0719,0.0719,0.0719,0.0719,0.0719,0.0719,0.0,0.0,0.0,0.0719,0.0719,0.0719,0.0269,-0.0492,-0.094,-0.1744,-0.2779,-0.2926,-0.3116,-0.3347,-0.3327,-0.3401,-0.3494,-0.3173,-0.306,-0.3057,-0.2852,0.0,0.0,0.0,0.0,-0.3738,-0.4031,-0.4132,-0.417,0.0,0.0,0.0,0.0,-0.43,0.0,-0.4364,-0.4495,-0.4691,-0.4827,-0.4831,-0.4827,-0.5087,-0.5087,-0.5062,-0.5049,-0.5365,-0.5604,-0.5692,-0.5825,-0.6047,-0.6203,-0.622,-0.623,-0.6257,-0.6338,-0.6338,-0.649,-0.6416,-0.6721,-0.7633,-0.771,-0.8093,-0.8851,-0.9079,-0.9458,-1.0067,-1.0143,-1.0443,-1.1111,-1.0438,-1.0143,-1.0078,-0.8815,-0.8239,-0.8158,-0.7271,-0.6869,-0.6788,-0.6706,-0.6624,-0.6624,-0.6624,-0.6624,-0.6624,-0.6624,-0.6624,-0.6624,0.0,0.0,0.0,0.0,0.0,0.0,0.0,0.0,0.0,0.0,0.0,0.0,0.0,0.0,0.0,0.0,0.0,0.0,0.0489,0.0,0.0,0.0719,0.0719,0.0719,0.0719,0.0719,0.0719,0.0719,0.0,0.0,0.0,0.0,0.0,0.0719,0.0,0.0359,-0.0268,-0.0626,-0.1297,-0.2152,-0.2745,-0.3023,-0.3083,-0.314,-0.3186,-0.3243,-0.3205,-0.3131,-0.2963,-0.1953,-0.1593,0.0,0.0,0.0,-0.4066,-0.4107,-0.4191,-0.4278,0.0,0.0,0.0,0.0,-0.4431,-0.4558,0.0,0.0,-0.502,0.0,-0.4894,-0.4827,-0.5087,-0.5087,-0.5093,-0.5116,-0.5362,-0.5603,-0.564,-0.5752,-0.5888,-0.6044,-0.6061,-0.6112,-0.6247,-0.6338,-0.6567,-0.7253,-0.6721,-0.6949,-0.8475,-0.8551,-0.8932,-0.969,-1.0438,-1.0812,-1.0962,-1.0962,-1.0962,-1.1111,-1.0962,-1.0962,-1.0887,-1.0052,-0.9627,-0.955,-0.8013,-0.7398,-0.7324,-0.6627,-0.6318,-0.6318,-0.6318,-0.6318,-0.6318,-0.6318,-0.6318,-0.6318,0.0,0.0,0.0,0.0,0.0,0.0,0.0,0.0,0.0,0.0,0.0,0.0,0.0,0.0,0.0,0.0715,0.069,0.0661,0.0629,0.0674,0.0719,0.0719,0.0719,0.0719,0.0719,0.0719,0.0719,0.0719,0.0,0.0,0.0,0.0719,0.0719,0.0,0.0,0.0,0.0,0.0092,-0.0974,-0.2658,-0.2762,-0.2901,-0.3099,-0.3152,-0.3214,-0.333,-0.3403,-0.3175,-0.2765,-0.2239,-0.1943,-0.1994,-0.314,0.0,0.0,0.0,-0.4392,0.0,-0.4567,0.0,0.0,0.0,-0.4561,-0.4694,-0.4625,0.0,-0.5087,-0.5087,-0.509,-0.516,-0.5226,-0.5292,-0.5292,-0.5292,-0.5416,-0.5491,-0.5579,-0.5644,-0.5739,-0.5884,-0.5901,-0.6106,-0.6712,-0.6802,-0.7219,-0.8084,-0.7863,-0.8169,-0.9311,-0.9387,-0.976,-1.0513,-1.0887,-1.1111,-1.1111,-1.1111,-1.1111,-1.1111,-1.1111,-1.1111,-1.1111,-1.0738,-1.0293,-0.9846,-0.8703,-0.8169,-0.8093,-0.733,-0.6949,-0.6949,-0.6493,-0.6338,-0.6338,-0.6338,-0.6338,-0.6338,0.0,0.0,0.0,0.0,0.0,0.0,0.0,0.0,0.0,0.0,0.0,0.0,0.0,0.0,0.0,0.0,0.0706,0.0719,0.0719,0.0719,0.0719,0.0719,0.0719,0.0719,0.0719,0.0719,0.0764,0.0,0.0,0.0,0.0853,0.0764,0.0719,0.0,0.0719,0.0588,0.0,0.0,0.0,-0.2675,-0.277,-0.2963,-0.3267,-0.33,-0.3368,-0.346,-0.3555,-0.3335,-0.2983,-0.2995,-0.2861,-0.2843,-0.3952,-0.431,0.0,0.0,0.0,0.0,0.0,0.0,0.0,-0.4628,-0.4761,-0.4827,0.0,0.0,-0.5156,0.0,-0.5292,-0.5428,-0.5428,-0.5428,-0.5428,-0.5428,-0.5428,-0.5403,-0.5515,-0.5532,-0.5586,-0.5732,-0.5749,-0.609,-0.7049,-0.7143,-0.7655,-0.883,-0.8694,-0.9095,-1.0137,-0.9992,-1.0293,-1.1037,-1.1111,-1.1111,-1.1111,-1.1111,-1.1111,-1.1111,-1.1111,-1.1111,-1.1111,-1.1111,-1.0738,-1.0143,-0.9387,-0.9003,-0.8927,-0.794,-0.7484,-0.7407,-0.6644,-0.6338,-0.6338,-0.6338,-0.6338,-0.6338,0.0,0.0,0.0,0.0,0.0,0.0,0.0,0.0,0.0,0.0,0.0,0.0,0.0588,0.0655,0.0717,0.0717,0.0718,0.0719,0.0719,0.0719,0.0719,0.0719,0.0719,0.0,0.0719,0.0719,0.0898,0.0,0.0,0.0,0.1344,0.0898,0.0719,0.0719,0.0719,0.0598,0.0286,0.0,0.0,0.0,-0.2765,-0.3392,-0.3403,-0.352,-0.3569,-0.3577,-0.3593,-0.3804,-0.4067,-0.4148,-0.4176,-0.4228,-0.4303,-0.43,-0.4159,0.0,0.0,0.0,0.0,-0.4764,0.0,-0.4764,0.0,0.0,0.0,0.0,-0.5362,-0.5362,-0.5362,-0.5428,-0.5428,-0.5428,-0.5428,-0.5428,-0.5428,-0.5432,-0.5439,-0.5439,-0.543,-0.5583,-0.5599,-0.5937,-0.6801,-0.6889,-0.7605,-0.9327,-0.8758,-0.9143,-1.0944,-1.0293,-1.0293,-1.1037,-1.1111,-1.1111,-1.1111,-1.1111,-1.1111,-1.1111,-1.1111,-1.1111,-1.1111,-1.1111,-1.1111,-1.0962,-1.0218,-0.9846,-0.9695,-0.8169,-0.7484,-0.7407,-0.6644,-0.6338,-0.6338,-0.6338,-0.6338,-0.6338,0.0,0.0,0.0,0.0,0.0,0.0,0.0,0.0,0.0,0.0,0.0,0.0,0.0,0.0355,0.0583,0.0269,0.009,0.0045,0.0134,0.0269,0.0494,0.0674,0.0719,0.0719,0.0719,0.0719,0.0,0.0,0.0,0.0943,0.139,0.0923,0.0702,0.0702,0.0702,0.066,0.0527,-0.0301,0.0,0.0,0.0,-0.3523,0.0,0.0,-0.3585,-0.3593,-0.367,-0.3809,-0.3909,-0.4134,-0.4188,-0.4142,-0.3877,-0.4172,-0.4515,-0.3828,0.0,0.0,0.0,0.0,0.0,-0.5024,-0.516,-0.5292,-0.5153,-0.5226,-0.5428,-0.5428,-0.5428,-0.5428,-0.5428,-0.5428,-0.5428,-0.5428,-0.5428,-0.5428,-0.5428,-0.5428,-0.5449,-0.5437,-0.584,-0.6503,-0.7371,-0.7941,-0.872,-0.9949,-0.9749,-0.9865,-1.0533,-1.0325,-1.0401,-1.0858,-1.0858,-1.0942,-1.1105,-1.1111,-1.1111,-1.1111,-1.1111,-1.1111,-1.1111,-1.1111,-1.1111,-1.1111,-1.0812,-1.0663,-1.0588,-0.9458,-0.8703,-0.8169,-0.7407,-0.6721,-0.6338,-0.6338,-0.6338,-0.6338,0.0,0.0,0.0,0.0,0.0,0.0,0.0,0.0,0.0,0.0,0.0,0.0,0.0,0.0,-0.0582,-0.0671,-0.0582,-0.0447,-0.0313,-0.0,0.036,0.0674,0.0719,0.0719,0.0719,0.0719,0.0943,0.0,0.0,0.0,0.0,0.0943,0.0721,0.073,0.0641,0.0546,0.0,0.0,0.0,-0.3042,0.0,0.0,-0.3585,-0.3585,-0.3585,-0.3593,-0.3727,-0.3779,-0.3837,-0.3941,-0.4119,-0.4076,-0.3551,-0.4135,-0.4919,-0.4431,0.0,0.0,-0.4758,0.0,0.0,0.0,0.0,-0.5362,-0.5223,-0.5292,-0.5428,-0.5428,-0.5428,-0.5428,-0.5428,-0.5428,-0.5428,-0.5428,-0.5428,-0.5428,-0.5428,-0.5428,-0.5491,-0.5686,-0.6141,-0.6841,-0.7903,-0.8456,-0.9159,-1.0107,-1.02,-1.0236,-1.0327,-1.0327,-1.0405,-1.0586,-1.0592,-1.0671,-1.0846,-1.0846,-1.0846,-1.0852,-1.0936,-1.0979,-1.0985,-1.1069,-1.1111,-1.1111,-1.1111,-1.1111,-1.1037,-1.0218,-0.9614,-0.9008,-0.794,-0.7176,-0.6644,-0.6416,-0.6338,-0.6338,0.0,0.0,0.0,0.0,0.0,0.0,0.0,0.0,0.0,-0.2926,0.0,0.0,0.0,0.0,0.0,-0.2162,-0.1258,-0.0674,-0.0584,-0.009,0.0316,0.0632,0.0677,0.0722,0.0722,0.0722,0.0946,0.0,0.0,0.0,0.0,0.0,0.0733,0.0809,0.0525,0.0267,-0.0,0.0,-0.0543,-0.1902,0.0,-0.3585,-0.3585,-0.3585,-0.3585,-0.3591,-0.3591,-0.3718,-0.3818,-0.3823,-0.4108,-0.4249,-0.3535,-0.4265,0.0,0.0,0.0,0.0,0.0,0.0,0.0,0.0,0.0,0.0,-0.5428,0.0,-0.5428,-0.5428,-0.5428,-0.5428,-0.5428,-0.5428,-0.5428,-0.5428,-0.5428,-0.5428,-0.5428,-0.5428,-0.5624,-0.6334,-0.64,-0.6985,-0.8355,-0.849,-0.8913,-0.9838,-0.9862,-1.0037,-1.029,-1.0315,-1.0315,-1.0315,-1.0327,-1.0333,-1.0333,-1.0333,-1.0333,-1.0333,-1.0586,-1.0707,-1.0719,-1.0972,-1.1087,-1.1087,-1.1093,-1.1099,-1.1025,-1.0212,-0.9916,-0.9765,-0.8169,-0.7561,-0.7407,-0.6644,-0.6338,-0.6338,0.0,0.0,0.0,0.0,0.0,0.0,-0.3256,-0.307,-0.3004,0.0,0.0,0.0,-0.29,-0.2888,-0.2886,-0.2878,-0.2194,-0.1756,-0.1805,-0.083,-0.0244,-0.0293,0.0391,0.0783,0.0783,0.0783,0.0978,0.0,0.0,0.0,0.0,0.0,0.0,0.0,0.0272,0.0055,-0.0111,-0.1773,0.0,-0.1902,-0.3135,-0.3585,-0.3585,-0.3585,-0.3634,-0.3765,-0.388,-0.3963,-0.4143,-0.4294,-0.4313,-0.4327,-0.4683,0.0,0.0,0.0,0.0,0.0,-0.4755,0.0,0.0,0.0,0.0,0.0,-0.5428,0.0,-0.5428,-0.5428,-0.5428,-0.5428,-0.5428,-0.5428,-0.5428,-0.5428,-0.5428,-0.5428,-0.5428,-0.5428,-0.5624,-0.6334,-0.6859,-0.7512,-0.842,-0.8952,-0.9379,-0.978,-0.9722,-0.9752,-1.008,-1.0267,-1.0373,-1.0373,-1.0567,-1.0604,-1.0541,-1.0541,-1.0465,-1.0327,-1.0405,-1.0435,-1.0441,-1.0514,-1.0544,-1.0556,-1.0749,-1.0828,-1.084,-1.081,-1.0438,-0.9841,-0.9387,-0.8851,-0.8246,-0.7484,-0.7176,-0.7099,0.0,0.0,0.0,0.0,0.0,-0.3435,-0.3208,-0.3031,-0.3007,0.0,0.0,0.0,-0.315,-0.3175,-0.3216,-0.3371,-0.2913,-0.2613,-0.2723,-0.1662,-0.1108,-0.1259,-0.0353,0.0151,0.0151,0.0605,0.0958,0.0,0.0,0.0,0.0,0.0632,0.0,0.0,0.0,0.0,0.0,0.0,0.0,0.0,-0.3431,-0.3689,-0.3729,-0.379,-0.389,-0.4011,-0.4127,-0.4237,-0.4375,-0.4513,-0.4517,-0.4592,-0.519,-0.5096,0.0,-0.4755,0.0,0.0,0.0,0.0,0.0,0.0,0.0,0.0,-0.5428,-0.5428,-0.5428,-0.5428,-0.5428,-0.5428,-0.5428,-0.5428,-0.5428,-0.5428,-0.5428,-0.5428,-0.5428,-0.5428,-0.5752,-0.6728,-0.719,-0.7777,-0.8818,-0.9285,-0.9548,-0.9676,-0.9548,-0.9606,-0.9926,-1.0012,-1.0099,-1.0223,-1.0249,-1.0263,-1.0336,-1.0202,-1.0135,-1.0068,-1.0115,-1.0095,-1.017,-1.0278,-1.0327,-1.0339,-1.049,-1.0556,-1.0574,-1.084,-1.0718,-1.0368,-0.9992,-0.9614,-0.9084,-0.794,-0.7484,-0.7407,0.0,0.0,-0.4583,-0.3829,-0.3663,-0.3537,-0.3081,-0.296,-0.2959,0.0,-0.323,-0.3435,-0.382,-0.3739,-0.3698,-0.3875,-0.3711,-0.3559,-0.3422,-0.2651,-0.219,-0.2243,-0.1376,-0.0817,-0.0766,0.0153,0.0664,0.0,0.0,0.0,0.0,0.0,-0.0164,0.0,0.0,0.0,0.0,0.0,0.0,-0.3997,-0.3854,-0.3846,-0.3936,-0.4122,-0.4195,-0.4268,-0.4446,-0.4574,-0.459,-0.459,-0.4737,-0.4996,-0.5318,-0.5428,-0.5428,-0.5428,-0.5428,0.0,0.0,0.0,0.0,-0.5428,-0.5428,0.0,-0.5428,-0.5428,-0.5428,-0.5428,-0.5428,-0.5428,-0.5428,-0.5428,-0.5428,-0.5428,-0.5428,-0.5428,-0.5428,-0.5491,-0.5951,-0.7256,-0.7451,-0.8037,-0.935,-0.9484,-0.9548,-0.9548,-0.9612,-0.9676,-0.9804,-0.9676,-0.9734,-0.9983,-0.9734,-0.967,-0.9983,-0.967,-0.9612,-0.974,-0.9849,-0.9832,-0.9838,-1.0071,-1.0242,-1.0242,-1.0272,-1.0284,-1.0309,-1.0568,-1.0828,-1.0995,-1.0282,-0.9992,-0.9841,-0.8322,-0.771,-0.7484,-0.5529,0.0,-0.4806,-0.4272,-0.4156,-0.4053,-0.3767,-0.3248,-0.3326,-0.4447,-0.5148,-0.5584,-0.5681,-0.4449,-0.4193,-0.5545,-0.5653,-0.5155,-0.4101,-0.3555,-0.3286,-0.3294,-0.236,-0.1648,-0.121,-0.0605,-0.0055,0.0495,0.0,0.0,0.0,0.0,0.0,0.0,0.0,0.0,0.0,0.0,0.0,-0.4493,-0.4067,-0.3978,-0.4122,-0.4186,-0.4309,-0.4523,-0.4779,-0.4913,-0.5006,-0.514,-0.5229,-0.5321,-0.5352,-0.5428,-0.5428,-0.5428,-0.5428,-0.5428,-0.5428,-0.5428,-0.5428,-0.5428,-0.5428,0.0,-0.5428,-0.5428,-0.5428,-0.5428,-0.5428,-0.5428,-0.5428,-0.5428,-0.5428,-0.5428,-0.5428,-0.5428,-0.5428,-0.5881,-0.6531,-0.7321,-0.7907,-0.8624,-0.942,-0.9484,-0.9612,-0.9862,-1.018,-1.018,-0.9804,-0.9989,-1.011,-0.9983,-0.9926,-0.9862,-0.9868,-0.9804,-0.9676,-0.9548,-0.9596,-0.9556,-0.9562,-0.961,-0.9634,-0.9646,-0.9856,-0.9946,-0.997,-1.0297,-1.0562,-1.0816,-1.0804,-1.0887,-1.0738,-0.9765,-0.9008,-0.8322,-0.5687,-0.549,-0.5164,-0.4705,-0.4648,-0.4753,-0.5005,-0.4743,-0.4779,-0.5494,-0.5937,-0.6365,-0.6783,-0.6084,-0.5727,-0.6165,-0.5863,-0.5327,-0.451,-0.3984,-0.3754,-0.3759,-0.3233,-0.2823,-0.253,-0.1057,-0.0469,-0.0822,-0.141,0.0,0.0,0.0,0.0,0.0,0.0,0.0,0.0,0.0,-0.4607,-0.4724,-0.4391,-0.4376,-0.4501,-0.4626,-0.473,-0.4854,-0.5055,-0.5166,-0.5292,-0.5362,-0.5428,-0.5428,-0.5428,-0.5428,-0.5428,-0.5428,-0.5428,-0.5428,-0.5428,-0.5428,-0.5428,-0.5428,-0.5428,0.0,0.0,-0.5428,-0.5428,-0.5428,-0.5428,-0.5428,-0.5428,-0.5428,-0.5428,-0.5491,-0.5488,-0.562,-0.6079,-0.64,-0.6789,-0.7447,-0.8285,-0.9005,-0.9664,-0.9734,-0.9798,-0.9989,-1.018,-1.0244,-1.0053,-1.0117,-1.0174,-1.0301,-1.0053,-0.9926,-1.0053,-0.9804,-0.9676,-0.9676,-0.9548,-0.9484,-0.9484,-0.9484,-0.9484,-0.949,-0.9622,-0.9676,-0.97,-0.9958,-1.0212,-1.0369,-1.0761,-1.0997,-1.1037,-1.0218,-0.9387,-0.8551,-0.5856,0.0,-0.5627,-0.5105,-0.5014,-0.525,-0.6091,-0.6212,-0.6237,0.0,0.0,0.0,-0.7654,-0.7693,-0.743,-0.6685,-0.6057,-0.5562,-0.509,-0.4661,-0.4296,-0.4058,-0.4003,-0.3944,-0.3886,-0.1842,-0.1349,-0.2521,-0.3699,0.0,0.0,0.0,0.0,0.0,0.0,0.0,0.0,0.0,0.0,-0.4818,-0.4773,-0.4795,-0.4894,-0.5024,-0.5153,-0.5156,-0.5359,-0.5428,-0.5428,-0.5428,-0.5428,-0.5428,-0.5428,-0.5428,-0.5428,-0.5428,-0.5428,-0.5428,-0.5428,-0.5428,-0.5428,-0.5428,-0.5428,-0.5428,0.0,0.0,0.0,-0.5428,-0.5428,-0.5425,-0.5425,-0.5491,-0.5547,-0.5771,-0.5793,-0.6129,-0.6936,-0.7089,-0.7372,-0.7897,-0.8672,-0.939,-0.9919,-1.0047,-1.0047,-0.9983,-1.0047,-1.0174,-1.0238,-1.011,-1.018,-1.0498,-1.0053,-0.9926,-1.018,-0.9798,-0.9612,-0.974,-0.9548,-0.9484,-0.9484,-0.9484,-0.9484,-0.9484,-0.9484,-0.9484,-0.9502,-0.9712,-0.9826,-0.9922,-1.0514,-1.0852,-1.0965,-1.0351,-0.9614,-0.8856,-0.6325,-0.632,0.0,-0.5149,-0.4998,-0.5276,-0.6093,-0.6176,-0.6478,0.0,0.0,0.0,-0.8444,-0.8385,-0.8326,-0.8142,-0.8077,-0.7573,-0.6529,-0.6404,-0.5868,-0.4668,-0.461,-0.443,-0.4075,-0.3763,-0.3763,-0.4075,-0.42,-0.42,0.0,0.0,0.0,0.0,-0.4489,0.0,0.0,0.0,-0.5074,-0.5087,-0.5272,-0.5209,-0.5087,-0.5087,-0.5223,-0.5362,-0.5362,-0.5428,-0.5428,-0.5428,-0.5428,-0.5428,-0.5428,-0.5428,-0.5428,-0.5428,-0.5428,-0.5428,-0.5428,-0.5428,-0.5428,-0.5428,-0.5428,-0.5428,-0.5428,0.0,-0.5428,-0.5428,0.0,-0.555,-0.555,0.0,0.0,-0.6324,-0.6621,-0.6928,-0.738,-0.835,-0.8941,-0.8865,-0.9454,-0.9919,-0.9983,-1.018,-1.018,-0.9983,-1.0308,-1.0371,-1.0047,-1.0174,-1.0238,-1.0047,-0.9983,-0.9926,-0.9868,-0.9804,-0.9676,-0.9548,-0.9484,-0.9484,-0.9484,-0.9484,-0.9484,-0.9484,-0.9484,-0.9484,-0.9484,-0.9514,-0.9664,-0.9922,-1.0514,-1.0737,-1.0791,-1.0879,-1.0438,-0.9765,-0.736,-0.6851,0.0,0.0,-0.569,-0.5828,-0.6137,-0.7286,-0.7982,0.0,0.0,-0.8248,-0.7931,-0.8161,-0.8231,-0.7897,-0.7756,-0.7699,-0.7714,-0.7003,-0.6366,-0.6121,-0.547,-0.5088,-0.5169,-0.4711,-0.4522,-0.4604,-0.4672,-0.4672,0.0,0.0,0.0,0.0,-0.4876,0.0,-0.5163,0.0,-0.5292,-0.5292,-0.5815,-0.5943,-0.5811,-0.5422,-0.5292,-0.5428,-0.5428,-0.5428,-0.5428,-0.5428,-0.5428,-0.5428,-0.5428,-0.5428,-0.5428,-0.5428,-0.5428,-0.5428,-0.5428,-0.5428,-0.5428,-0.5428,-0.5428,-0.5428,-0.5428,-0.5428,-0.5428,-0.5488,0.0,0.0,0.0,0.0,0.0,0.0,-0.7316,-0.7857,-0.8535,-0.9128,-0.9332,-0.9198,-0.9849,-1.0364,-1.0364,-1.0434,-1.0428,-1.0364,-1.0498,-1.0561,-1.0371,-1.0434,-1.0428,-1.0364,-1.0238,-1.011,-0.9926,-0.9868,-0.9676,-0.9484,-0.9484,-0.9484,-0.9484,-0.9484,-0.9484,-0.9484,-0.9484,-0.9484,-0.9484,-0.9484,-0.955,-0.9682,-1.0121,-1.0453,-1.0731,-1.0846,-1.0467,-0.9922,-0.9252,0.0,0.0,0.0,-0.6972,-0.686,-0.6832,-0.8012,-0.8685,-0.7899,-0.785,-0.7749,-0.7545,-0.8148,-0.8441,-0.8091,-0.7887,-0.8027,-0.8733,-0.7792,-0.7256,-0.7256,-0.6445,-0.6048,-0.6199,-0.5657,-0.5397,-0.5355,-0.5488,-0.5488,0.0,0.0,0.0,0.0,0.0,-0.5745,-0.5951,0.0,-0.5951,-0.6017,-0.6465,-0.6662,-0.6597,-0.6145,-0.5818,-0.5686,-0.5885,-0.5818,-0.5686,-0.5885,-0.5951,-0.5951,-0.5951,-0.5818,-0.5686,-0.5756,-0.5561,-0.5428,-0.5425,-0.5428,-0.5428,-0.5428,-0.5428,-0.5428,-0.5428,-0.5428,-0.5425,-0.555,-0.5617,0.0,0.0,0.0,-0.7233,-0.7624,0.0,-0.8837,-0.9548,-0.973,-0.9779,-0.9658,-1.0238,-1.0681,-1.0807,-1.0688,-1.0688,-1.0807,-1.0688,-1.0624,-1.0624,-1.0624,-1.0624,-1.0624,-1.0371,-1.0174,-0.9983,-0.9862,-0.9676,-0.9484,-0.9484,-0.9484,-0.9484,-0.9484,-0.9484,-0.9484,-0.9484,-0.9484,-0.9484,-0.9484,-0.9484,-0.9502,-0.9688,-1.0042,-1.0526,-1.0671,-1.0522,-1.0218,-1.2429,-1.123,0.0,0.0,-0.8992,-0.8569,-0.8454,-0.7949,-0.7777,-0.8414,-0.8619,-0.8425,-0.756,-0.865,-0.9484,-0.9414,-0.9414,-0.9426,-0.945,-0.945,-0.891,-0.7707,-0.7642,-0.7377,-0.6859,-0.6859,-0.6859,-0.6859,-0.6859,-0.6859,0.0,0.0,0.0,0.0,-0.7116,-0.7186,-0.7321,-0.7321,-0.7321,-0.7321,-0.7386,-0.7386,-0.7386,-0.7321,-0.6924,-0.6465,-0.712,-0.6924,-0.6465,-0.7125,-0.7321,-0.7321,-0.7321,-0.6859,-0.64,-0.6605,-0.6086,-0.5428,-0.555,-0.5488,-0.5428,-0.5428,-0.5428,-0.5428,-0.5428,-0.5428,-0.5425,-0.555,-0.5752,-0.6148,-0.6985,-0.7321,-0.7842,0.0,-0.9292,0.0,0.0,-1.0381,-1.0561,-1.0561,-1.0561,-1.0807,-1.1421,-1.0933,-1.087,-1.1421,-1.0933,-1.0624,-1.0624,-1.0624,-1.0624,-1.0624,-1.0371,-1.0174,-0.9983,-0.9862,-0.9676,-0.9484,-0.9484,-0.9484,-0.9484,-0.9484,-0.9484,-0.9484,-0.9484,-0.9484,-0.9484,-0.9484,-0.9484,-0.9484,-0.9496,-0.9664,-0.9958,-1.0532,-1.0882,-1.1037,0.0,0.0,0.0,0.0,0.0,-1.008,-0.9549,-0.9099,-0.8595,-0.795,-0.8672,-0.8958,-0.8233,-0.8581,-0.8661,-0.8238,-0.9,-0.9484,-0.949,-0.9813,-0.97,-0.8899,-0.8624,-0.8301,-0.7967,-0.7762,-0.7567,-0.7256,-0.7256,-0.7256,0.0,0.0,0.0,0.0,0.0,-0.7386,0.0,0.0,0.0,0.0,-0.7907,-0.8366,-0.8694,-0.7782,-0.7256,-0.712,-0.7321,-0.7256,-0.712,-0.7321,-0.7386,-0.7386,-0.7386,-0.7256,-0.712,-0.7316,-0.7125,-0.699,-0.7116,-0.7181,-0.699,-0.6535,-0.6732,-0.6859,-0.5749,-0.6272,-0.6859,-0.6531,-0.6924,-0.7447,-0.7967,-0.8484,-0.8913,0.0,-0.985,-1.0262,0.0,-1.0557,-1.0744,-1.1178,-1.087,-1.0681,-1.087,-1.0751,-1.0681,-1.087,-1.0751,-1.0624,-1.0624,-1.0624,-1.0624,-1.0624,-1.0371,-1.0174,-0.9983,-0.9862,-0.9676,-0.9484,-0.9484,-0.9484,-0.9484,-0.9484,-0.9484,-0.9484,-0.9484,-0.9484,-0.9484,-0.9484,-0.9484,-0.9484,-0.9484,-0.964,-0.9916,-1.0333,-1.0628,-1.0876,-1.2514,0.0,0.0,0.0,-1.1413,-1.0609,-0.9933,-0.9658,-0.9192,-0.8334,-0.9093,-0.9448,-0.889,-0.8879,-0.8665,-0.8249,-0.9697,-1.0386,-0.9799,-1.0177,-1.0124,-0.9693,-0.9271,-0.8963,-0.8888,-0.8761,-0.8565,-0.8172,-0.8249,-0.8249,0.0,0.0,0.0,0.0,0.0,-0.8172,-0.8172,-0.8172,-0.8172,0.0,-0.8689,-0.9087,-0.9414,-0.8501,-0.7972,-0.7842,-0.8042,-0.7972,-0.7842,-0.8042,-0.8172,-0.8172,-0.8231,-0.8102,-0.7902,-0.8161,-0.8032,-0.7832,-0.8021,-0.8021,-0.7897,-0.7377,-0.7637,-0.7702,-0.6658,-0.7181,-0.7702,-0.7437,-0.7762,-0.8221,-0.8742,-0.9198,-0.9582,0.0,0.0,-1.0624,0.0,-1.0624,-1.0744,-1.1115,-1.087,-1.0807,-1.1233,-1.0863,-1.0688,-1.0933,-1.0751,-1.0624,-1.0624,-1.0624,-1.0624,-1.0624,-1.0371,-1.0174,-0.9983,-0.9862,-0.9676,-0.9484,-0.9484,-0.9484,-0.9484,-0.9484,-0.9484,-0.9484,-0.9484,-0.9484,-0.9484,-0.9484,-0.9484,-0.9484,-0.9484,-0.9586,-0.9778,-1.02,-1.0556,-1.0882,-1.2653,-1.2661,-1.2437,-1.1648,-1.0995,-1.0321,-0.9748,-0.9558,-0.9558,-0.9609,-0.985,-0.9914,-0.9748,-0.9775,-0.9743,-0.9674,-1.1529,-1.2003,-1.0573,-1.0574,-1.0438,-1.008,-0.9794,-0.9661,-0.9649,-0.9832,-0.9838,-0.9584,-0.9838,0.0,0.0,0.0,0.0,0.0,-0.952,0.0,-0.9566,-0.9566,-0.956,-0.9548,-0.9548,-0.9548,-0.9548,-0.9548,-0.9151,-0.8683,-0.9285,-0.9081,-0.8683,-0.928,-0.9548,-0.9548,-0.974,-0.9332,-0.8865,-0.9204,-0.8748,-0.8156,-0.8275,-0.8215,-0.8091,-0.8091,-0.8091,-0.8091,-0.8027,-0.8091,-0.8156,-0.821,-0.8275,-0.8538,-0.9384,-0.9582,-0.9779,-1.0491,0.0,-1.0618,-1.0624,-1.0618,-1.0681,-1.0624,-1.0624,-1.1115,-1.2266,-1.1296,-1.087,-1.1421,-1.0926,-1.0624,-1.0624,-1.0624,-1.0624,-1.0624,-1.0371,-1.0174,-0.9983,-0.9862,-0.9676,-0.9484,-0.9484,-0.9484,-0.9484,-0.9484,-0.9484,-0.9484,-0.9484,-0.9484,-0.9484,-0.9484,-0.9484,-0.9484,-0.9484,-0.949,-0.9562,-1.014,-1.0653,-1.1093,-1.2957,-1.3147,-1.3045,-1.2211,-1.1616,-1.136,-1.1725,-1.0477,-1.0024,-1.1575,-1.0503,-1.0574,-1.3011,-1.3262,-1.3107,-1.2565,-1.3032,-1.3161,-1.2788,-1.2733,-1.2521,-1.213,-1.1874,-1.1621,-1.1464,-1.1073,-1.0808,-1.0738,-1.0399,-1.0125,-1.006,0.0,0.0,0.0,0.0,-1.0086,-1.0036,-1.0036,-0.9919,-0.974,-0.9862,-0.9798,-0.974,-0.9862,-0.9792,-0.9594,-0.967,-0.967,-0.9658,-0.9792,-0.9862,-0.9862,-0.9926,-0.9792,-0.9722,-0.9983,-0.9913,-0.9779,-0.9907,-0.997,-0.9779,-0.9262,-0.9518,-0.9646,-0.8425,-0.8941,-0.9588,-0.9134,-0.939,-0.9843,-1.0238,-1.0301,-1.0364,-1.0561,-1.0996,-1.1115,-1.0681,-1.1413,-1.1841,-1.1358,-1.1303,-1.124,-1.1108,-1.0807,-1.0681,-1.0807,-1.1115,-1.1052,-1.0624,-1.1052,-1.1052,-1.0624,-1.0371,-1.0174,-0.9983,-0.9862,-0.9676,-0.9484,-0.9484,-0.9484,-0.9484,-0.9484,-0.9484,-0.9484,-0.9484,-0.9484,-0.9484,-0.9484,-0.9484,-0.9484,-0.9484,-0.9604,-0.9808,-1.0212,-1.0538,-1.0846,-1.3306,-1.3383,-1.3212,-1.2505,-1.2157,-1.1798,-1.1348,-1.1501,-1.2167,-1.3294,-1.2439,-1.2439,-1.4395,-1.4589,-1.4463,-1.4061,-1.3819,-1.3663,-1.3538,-1.3347,-1.3048,-1.272,-1.2498,-1.2344,-1.2376,-1.2171,-1.1826,-1.1491,-1.1266,-1.0855,-1.0327,0.0,0.0,0.0,0.0,-1.0317,-1.0381,-1.0448,-1.0428,-1.0284,-1.035,-1.035,0.0,-1.035,-1.0482,-1.0528,-1.0276,-1.0091,-0.9983,-0.9983,-0.9983,-0.9977,-1.0047,-1.011,-1.011,-1.0371,-1.0434,-1.0434,-1.0561,-1.0624,-1.0498,-1.0104,-1.0295,-1.0364,-0.946,-0.9849,-1.0301,-0.9913,-1.0174,-1.0498,-1.0561,-1.0624,-1.0624,-1.0624,-1.1115,-1.1358,-1.1052,-1.1841,-1.2389,-1.1965,-1.1965,-1.1779,-1.1476,-1.0933,-1.0807,-1.1421,-1.1483,-1.1365,-1.0996,-1.1303,-1.124,-1.0624,-1.0371,-1.0244,-1.0117,-0.9926,-0.974,-0.9612,-0.9548,-0.9484,-0.9484,-0.9484,-0.9484,-0.9484,-0.9484,-0.9484,-0.9484,-0.9484,-0.9484,-0.9484,-0.9484,-0.9574,-0.9748,-1.0188,-1.0496,-1.0761,-1.3711,-1.3561,-1.3344,-1.2938,-1.2959,-1.2386,-1.0424,-1.2683,-1.4588,-1.4588,-1.4597,-1.4572,-1.458,-1.4631,-1.4614,-1.4614,-1.4212,-1.3894,-1.3645,-1.3286,-1.2959,-1.277,-1.2582,-1.2628,-1.3051,-1.3185,-1.2906,-1.2142,-1.2199,-1.1706,0.0,0.0,0.0,0.0,0.0,0.0,0.0,-1.103,-1.1155,-1.1217,-1.1286,-1.1286,-1.1217,-1.1286,-1.1354,-1.1458,-1.1196,-1.0725,-1.0226,-1.0053,-1.004,-1.0168,-1.0231,-1.0231,-1.0301,-1.0561,-1.0624,-1.0624,-1.0624,-1.0624,-1.0624,-1.0624,-1.0624,-1.0624,-1.0624,-1.0624,-1.0624,-1.0624,-1.0624,-1.0624,-1.0624,-1.0624,-1.0624,-1.0624,-1.1115,-1.1483,-1.1365,-1.2027,-1.2451,-1.2389,-1.2451,0.0,-1.2634,-1.1538,-1.1296,-1.2451,-1.2035,-1.167,-1.1483,-1.1608,-1.1296,-1.0624,-1.0434,-1.0308,-1.0238,-0.9989,-0.9804,-0.974,-0.9612,-0.9484,-0.9484,-0.9484,-0.9484,-0.9484,-0.9484,-0.9484,-0.9484,-0.9484,-0.9484,-0.9484,-0.9484,-0.9484,-0.9544,-1.003,-1.0441,-1.0713,-1.4395,-1.4379,-1.4379,-1.4238,-1.4798,-1.4877,-1.3884,-1.4228,-1.4616,-1.4616,-1.4607,-1.4607,-1.4616,-1.4628,-1.4624,-1.4624,-1.4545,-1.449,-1.4411,-1.4348,-1.4269,-1.426,-1.4205,-1.4379,-1.4733,-1.4292,-1.4007,-1.3866,-1.2977,-1.2476,0.0,0.0,0.0,0.0,0.0,0.0,-1.2312,-1.2334,-1.2564,-1.3027,-1.3161,-1.3161,-1.3035,-1.3161,-1.3227,-1.322,-1.3224,-1.254,-1.1524,-1.0762,-1.0947,-1.1464,-1.0751,-1.0561,-1.0561,-1.0561,-1.0624,-1.0624,-1.0624,-1.0624,-1.0624,-1.0624,-1.0624,-1.0624,-1.0624,-1.0624,-1.0624,-1.0624,-1.0624,-1.0624,-1.0624,-1.0624,-1.0624,-1.0624,-1.1115,-1.1303,-1.0807,-1.1779,-1.2266,-1.1725,-1.2151,-1.2696,-1.326,-1.2642,-1.2266,-1.2512,-1.2887,-1.265,-1.1545,-1.2027,-1.1779,-1.0624,-1.0561,-1.0371,-1.0047,-0.9989,-0.9798,-0.9548,-0.9548,-0.9484,-0.9484,-0.9484,-0.9484,-0.9484,-0.9484,-0.9484,-0.9484,-0.9484,-0.9484,-0.9484,-0.9484,-0.9484,-0.952,-0.9826,-1.0176,-1.0466,-1.4609,0.0,0.0,-1.4577,-1.561,-1.6227,-1.5885,-1.5598,-1.5225,-1.4638,-1.4568,-1.4568,-1.4568,-1.4625,-1.4569,-1.4569,-1.4569,-1.4713,-1.4919,-1.4919,-1.4991,-1.5196,-1.5204,-1.5417,-1.5771,-1.5488,-1.5196,-1.4903,-1.4378,-1.3875,-1.3448,-1.2858,0.0,0.0,0.0,-1.3136,0.0,-1.3615,-1.3832,-1.4101,-1.417,-1.4101,-1.4101,-1.417,-1.417,-1.4146,-1.4038,-1.3803,-1.347,-1.208,-1.1432,-1.1129,-1.0735,-1.108,-1.1531,-1.1315,-1.1447,-1.1531,-1.1315,-1.1454,-1.1406,-1.0752,-1.108,-1.1476,-1.1178,-1.1358,-1.16,-1.16,-1.16,-1.1476,-1.1115,-1.1052,-1.0933,-1.0624,-1.1115,-1.1428,-1.1115,-1.1903,-1.2389,-1.2089,-1.2328,-1.2757,-1.345,-1.3199,-1.3009,-1.3009,-1.3321,-1.2895,-1.1545,-1.2151,-1.1903,-1.0624,-1.0498,-1.0371,-1.0308,-1.011,-0.9919,-0.9734,-0.9676,-0.9612,-0.9484,-0.9612,-0.9612,-0.9484,-0.9612,-0.9612,-0.9484,-0.9484,-0.9484,-0.9484,-0.9484,-0.9484,-0.9514,-0.9778,-1.0036,-1.0387,-1.4601,-1.4617,-1.4672,-1.506,-1.6281,-1.7131,-1.6772,-1.6465,-1.5885,-1.4999,-1.4848,-1.4848,-1.4848,-1.4848,-1.4848,-1.4848,-1.4848,-1.4991,-1.5346,-1.5346,-1.5488,-1.5762,-1.5833,-1.5982,-1.6272,-1.6272,-1.6123,-1.5683,-1.5534,-1.51,-1.4371,-1.4148,-1.4004,0.0,-1.4227,-1.445,-1.4593,-1.4816,-1.4966,-1.5108,-1.5108,-1.5108,-1.5108,-1.5108,-1.5108,-1.5067,-1.4858,-1.5111,-1.5334,-1.3894,-1.2644,-1.1668,-1.1482,-1.2107,-1.2833,-1.2312,-1.2289,-1.2296,-1.2074,-1.2358,-1.2389,-1.1272,-1.1789,-1.2389,-1.1849,-1.2151,-1.2512,-1.2512,-1.2512,-1.2328,-1.1787,-1.1725,-1.1483,-1.087,-1.1296,-1.167,-1.1545,-1.1965,-1.2328,-1.2512,-1.2389,-1.2581,-1.3199,-1.3442,-1.3442,-1.3321,-1.3442,-1.2956,-1.1794,-1.2089,-1.1717,-1.0555,-1.0434,-1.0371,-1.0498,-1.018,-0.9989,-0.9989,-0.9862,-0.974,-0.9554,-0.974,-0.9734,-0.9542,-0.967,-0.9676,-0.9484,-0.9548,-0.9548,-0.9548,-0.9606,-0.9612,-0.9637,-0.9843,-1.0123,-1.0426,-1.4588,-1.4592,-1.5002,-1.6446,-1.7586,-1.791,-1.651,-1.6298,-1.6132,-1.5771,-1.5692,-1.5692,-1.5692,-1.5692,-1.5692,-1.5692,-1.5692,-1.5692,-1.5762,-1.5762,-1.5762,-1.5833,-1.5833,-1.5982,-1.6272,-1.6272,-1.6272,-1.6202,-1.5754,-1.5542,-1.5613,-1.4514,-1.4083,-1.4307,-1.4307,-1.4816,-1.5692,-1.5692,-1.6044,-1.6691,-1.6691,-1.6691,-1.6691,-1.6691,-1.6691,-1.6682,-1.6655,-1.6706,-1.6706,-1.6573,-1.5918,-1.5124,-1.4358,-1.4192,-1.4161,-1.3347,-1.2581,-1.2005,-1.2366,-1.2805,-1.303,-1.2458,-1.2443,-1.2512,-1.2451,-1.2451,-1.2512,-1.2512,-1.2512,-1.2512,-1.2451,-1.2389,-1.2205,-1.1545,-1.1965,-1.2205,-1.1608,-1.1545,-1.1849,-1.2451,-1.1965,-1.1849,-1.2512,-1.313,-1.326,-1.2634,-1.3139,-1.3199,-1.2451,-1.1911,-1.117,-1.0364,-1.0498,-1.0428,-1.0047,-1.0047,-0.9926,-0.9804,-0.9804,-0.9817,-0.9765,-0.981,-0.9792,-0.9779,-0.9606,-0.9548,-0.9484,-0.9676,-0.9804,-0.9804,-0.9926,-0.9919,-0.9926,-0.9829,-1.023,-1.0817,-1.48,-1.5852,-1.7362,-1.8567,-1.8093,-1.766,-1.792,-1.7226,-1.6821,-1.7345,-1.6446,-1.5833,-1.5833,-1.5833,-1.5833,-1.5833,-1.5833,-1.5912,-1.6061,-1.6123,-1.6202,-1.6482,-1.6473,-1.6542,-1.663,-1.663,-1.663,-1.663,-1.6473,-1.6403,-1.6473,-1.5965,-1.5745,-1.5895,-1.5895,-1.6105,-1.6473,-1.6473,-1.6621,-1.6908,-1.6908,-1.6908,-1.6908,-1.6908,-1.6908,-1.6908,-1.6908,-1.6908,-1.6908,-1.6908,-1.6674,-1.6335,-1.6056,-1.5276,-1.4461,-1.4073,-1.3717,-1.3476,-1.3692,-1.3847,-1.3942,-1.3726,-1.3683,-1.3571,-1.3191,-1.339,-1.37,-1.37,-1.37,-1.3571,-1.3191,-1.307,-1.2887,-1.2212,-1.2328,-1.2389,-1.2151,-1.2089,-1.2212,-1.2451,-1.1911,-1.1787,-1.2451,-1.2757,-1.2948,-1.307,-1.3321,-1.3017,-1.1973,-1.167,-1.1178,-1.0498,-1.0561,-1.0498,-1.0371,-1.0371,-1.0238,-1.0117,-1.0117,-1.006,-0.9938,-1.006,-1.011,-1.0104,-0.9856,-0.9798,-0.9798,-0.9887,-0.9938,-0.9907,-0.997,-0.997,-0.9983,-0.9926,-1.0337,-1.0886,-1.641,-1.748,-1.8764,-1.963,-1.8556,-1.7871,-1.8747,-1.8027,-1.7638,-1.8375,-1.7413,-1.6585,-1.6585,-1.6585,-1.6585,-1.6585,-1.6585,-1.6664,-1.6682,-1.6682,-1.676,-1.6908,-1.6908,-1.6908,-1.6908,-1.6908,-1.6908,-1.6908,-1.6908,-1.6908,-1.6908,-1.6908,-1.6908,-1.6908,-1.6908,-1.6908,-1.6908,-1.6908,-1.6908,-1.6908,-1.6908,-1.6908,-1.6908,-1.6908,-1.6908,-1.6908,-1.6908,-1.6908,-1.6908,-1.6908,-1.6899,-1.6908,-1.6882,-1.6095,-1.5097,-1.4622,-1.4513,-1.4505,-1.4474,-1.4515,-1.4474,-1.4496,-1.451,-1.4387,-1.3881,-1.4139,-1.4515,-1.4515,-1.4515,-1.4387,-1.3881,-1.3821,-1.3571,-1.2887,-1.2948,-1.3009,-1.2818,-1.2818,-1.2818,-1.2818,-1.2212,-1.1965,-1.2451,-1.2696,-1.2887,-1.3199,-1.3199,-1.2765,-1.1849,-1.1421,-1.0989,-1.0561,-1.0561,-1.0561,-1.0498,-1.0498,-1.0428,-1.0301,-1.0301,-1.0244,-1.006,-1.0238,-1.0301,-1.0174,-1.0047,-0.9983,-0.9989,-1.0079,-1.0066,-1.0091,-1.0155,-1.0161,-1.0174,-1.011,-1.0469,-1.1086,-2.0053,-1.9225,-1.866,-1.9038,-1.9106,-1.8967,-1.8586,-1.8499,-1.8509,-1.8509,-1.8499,-1.8442,-1.8442,-1.8442,-1.8442,-1.8442,-1.8442,-1.824,-1.7706,-1.7706,-1.7442,-1.6908,-1.6908,-1.6908,-1.6908,-1.6908,-1.6908,-1.6908,-1.6908,-1.6908,-1.6908,-1.6908,-1.6908,-1.6908,-1.6908,-1.6908,-1.6908,-1.6908,-1.6908,-1.6908,-1.6908,-1.6908,-1.6908,-1.6908,-1.6908,-1.6908,-1.6908,-1.6908,-1.6908,-1.6908,-1.6899,-1.6913,-1.6889,-1.692,-1.6571,-1.4944,-1.4471,-1.4471,-1.4478,-1.4515,-1.4515,-1.4515,-1.4515,-1.4515,-1.4506,-1.4506,-1.4515,-1.4515,-1.4515,-1.4515,-1.4506,-1.4506,-1.4258,-1.3571,-1.407,-1.4258,-1.3571,-1.3502,-1.3502,-1.3502,-1.2887,-1.2504,-1.2512,-1.307,-1.3199,-1.2573,-1.2512,-1.2512,-1.2512,-1.1296,-1.0498,-1.0308,-1.0498,-1.0498,-1.0308,-1.0301,-1.0301,-1.0301,-1.0301,-1.0314,-1.027,-1.0295,-1.0218,-0.9983,-0.9983,-0.9983,-1.0047,-1.0238,-1.0301,-1.0301,-1.0498,-1.0561,-1.0561,-1.0371,-1.0732,-1.1354,-2.0084,-1.9218,-1.8747,-1.9613,-1.9193,-1.8885,-1.9473,-1.8988,-1.8777,-1.9528,-1.9253,-1.9177,-1.9528,-1.8911,-1.8509,-1.8509,-1.8509,-1.8442,-1.824,-1.824,-1.8172,-1.7969,-1.7969,-1.7969,-1.7969,-1.7638,-1.7442,-1.7442,-1.7107,-1.6908,-1.6908,-1.7038,-1.7097,-1.7107,-1.7254,-1.7332,-1.7332,-1.7332,-1.7332,-1.7332,-1.7332,-1.7332,-1.7332,-1.7332,-1.7332,-1.7332,-1.7332,-1.7332,-1.7254,-1.7001,-1.6913,-1.6913,-1.6917,-1.6887,-1.6817,-1.6315,-1.5385,-1.4471,-1.4478,-1.4515,-1.4575,-1.4771,-1.4743,-1.4666,-1.4803,-1.4734,-1.4606,-1.4506,-1.4515,-1.4515,-1.4515,-1.4515,-1.4446,-1.4198,-1.4387,-1.4446,-1.4198,-1.4198,-1.4198,-1.4198,-1.3571,-1.3199,-1.3199,-1.3381,-1.339,-1.3199,-1.3199,-1.2765,-1.1849,-1.1052,-1.0561,-1.0498,-1.0561,-1.0561,-1.0498,-1.0498,-1.0498,-1.0498,-1.0498,-1.0498,-1.0504,-1.0491,-1.0491,-1.0428,-1.0428,-1.0428,-1.0428,-1.0498,-1.0498,-1.0498,-1.0561,-1.0624,-1.0561,-1.0561,-1.0863,-1.1423,-2.0129,-1.9581,-1.9285,-1.9986,-1.9581,-1.932,-2.0009,-1.9528,-1.933,-2.0009,-1.9802,-1.9726,-2.0074,-1.9528,-1.9121,-1.9121,-1.9121,-1.9044,-1.8834,-1.8767,-1.87,-1.8499,-1.8509,-1.8509,-1.8509,-1.8172,-1.7969,-1.7969,-1.7774,-1.7638,-1.7501,-1.7638,-1.7569,-1.7314,-1.7461,-1.747,-1.747,-1.747,-1.747,-1.747,-1.747,-1.747,-1.747,-1.747,-1.747,-1.747,-1.747,-1.747,-1.747,-1.7226,-1.7051,-1.6964,-1.7097,-1.7123,-1.7082,-1.6934,-1.598,-1.4862,-1.4607,-1.4606,-1.4753,-1.494,-1.4921,-1.4843,-1.497,-1.4843,-1.4656,-1.4616,-1.4565,-1.4515,-1.4515,-1.4515,-1.4515,-1.4515,-1.4515,-1.4515,-1.4515,-1.4515,-1.4515,-1.4515,-1.4139,-1.3881,-1.3881,-1.3881,-1.3761,-1.3511,-1.3511,-1.3017,-1.1911,-1.1296,-1.0807,-1.0624,-1.0624,-1.0624,-1.0624,-1.0624,-1.0624,-1.0624,-1.0624,-1.0624,-1.0624,-1.0624,-1.0624,-1.0624,-1.0624,-1.0624,-1.0624,-1.0624,-1.0624,-1.0624,-1.0624,-1.0624,-1.0624,-1.0624,-1.0929,-1.1423,-2.0085,-2.0085,-2.0085,-2.0085,-2.0085,-2.0085,-2.0085,-2.0085,-2.0085,-2.0085,-2.0085,-2.0085,-2.0085,-2.0085,-2.0085,-2.0085,-2.0085,-1.9868,-1.9375,-1.9375,-1.91,-1.8633,-1.8643,-1.8643,-1.8643,-1.8576,-1.8566,-1.8566,-1.89,-1.8834,-1.8509,-1.8499,-1.8182,-1.7539,-1.7539,-1.7539,-1.7539,-1.7539,-1.7539,-1.7539,-1.7539,-1.7539,-1.7539,-1.7539,-1.7539,-1.7539,-1.7539,-1.7539,-1.7539,-1.7627,-1.7364,-1.7014,-1.7373,-1.7539,-1.7406,-1.6992,-1.6324,-1.5532,-1.4773,-1.4765,-1.5039,-1.5039,-1.5039,-1.5029,-1.5029,-1.4843,-1.4715,-1.4715,-1.4616,-1.4506,-1.4515,-1.4515,-1.4515,-1.4515,-1.4515,-1.4515,-1.4515,-1.4515,-1.4515,-1.4515,-1.4515,-1.4515,-1.4515,-1.4515,-1.4258,-1.3631,-1.3571,-1.326,-1.2634,-1.1973,-1.1365,-1.0681,-1.0624,-1.0624,-1.0624,-1.0624,-1.0624,-1.0624,-1.0624,-1.0624,-1.0624,-1.0624,-1.0624,-1.0624,-1.0631,-1.0631,-1.0624,-1.0624,-1.0624,-1.0624,-1.0624,-1.0624,-1.0624,-1.0624,-1.0929,-1.1423,-2.0085,-2.0085,-2.0085,-2.0085,-2.0085,-2.0085,-2.0085,-2.0085,-2.0085,-2.0085,-2.0085,-2.0085,-2.0085,-2.0085,-2.0085,-2.0085,-2.0085,-2.0074,-1.9933,-1.9933,-1.9868,-1.9736,-1.9736,-1.9736,-1.9736,-1.9584,-1.9431,-1.9278,-1.9344,-1.909,-1.8509,-1.8633,-1.8375,-1.7647,-1.7794,-1.7872,-1.7872,-1.7872,-1.7872,-1.7872,-1.7872,-1.7872,-1.7872,-1.7872,-1.7872,-1.7872,-1.7872,-1.7872,-1.7881,-1.7901,-1.7832,-1.7745,-1.7617,-1.7558,-1.7463,-1.7035,-1.6485,-1.5933,-1.5336,-1.5217,-1.5341,-1.5322,-1.5342,-1.5313,-1.5147,-1.5098,-1.5029,-1.4775,-1.4656,-1.4606,-1.4506,-1.4515,-1.4515,-1.4515,-1.4515,-1.4515,-1.4515,-1.4515,-1.4515,-1.4515,-1.4515,-1.4515,-1.4515,-1.4515,-1.4446,-1.4267,-1.4258,-1.395,-1.3321,-1.3139,-1.2466,-1.1303,-1.087,-1.0624,-1.0624,-1.0624,-1.0624,-1.0624,-1.0624,-1.0624,-1.0624,-1.1052,-1.1059,-1.0624,-1.1066,-1.1059,-1.0624,-1.0624,-1.0624,-1.0624,-1.0624,-1.0624,-1.0624,-1.0624,-1.0929,-1.1423,-2.0085,-2.0085,-2.0085,-2.0085,-2.0085,-2.0085,-2.0085,-2.0085,-2.0085,-2.0085,-2.0085,-2.0085,-2.0085,-2.0085,-2.014,-2.0335,-2.0205,-2.0151,-2.0335,-2.0335,-2.0388,-2.0593,-2.0582,-2.0582,-2.0582,-2.0506,-2.0484,-2.0526,-2.0526,-2.0204,-1.9683,-1.9814,-1.9486,-1.8767,-1.8921,-1.8988,-1.8988,-1.8988,-1.8787,-1.8462,-1.8462,-1.8269,-1.8008,-1.8008,-1.8008,-1.8008,-1.8008,-1.8008,-1.8076,-1.8347,-1.8569,-1.8657,-1.8751,-1.8906,-1.8865,-1.7728,-1.7119,-1.6573,-1.5624,-1.5425,-1.542,-1.54,-1.5371,-1.5362,-1.5313,-1.5264,-1.5156,-1.4961,-1.4834,-1.4656,-1.4616,-1.4565,-1.4515,-1.4515,-1.4515,-1.4515,-1.4515,-1.4515,-1.4515,-1.4515,-1.4515,-1.4515,-1.4515,-1.4515,-1.4515,-1.4515,-1.4515,-1.4327,-1.401,-1.3692,-1.3017,-1.1965,-1.1663,-1.1476,-1.1476,-1.1178,-1.087,-1.0624,-1.087,-1.0996,-1.1052,-1.1663,-1.16,-1.1059,-1.1659,-1.1464,-1.0624,-1.087,-1.087,-1.0624,-1.0624,-1.0624,-1.0624,-1.0624,-1.0929,-1.1423,-2.0085,-2.0085,-2.0085,-2.0085,-2.0085,-2.0085,-2.0085,-2.0151,-2.0205,-2.0205,-2.0205,-2.027,-2.027,-2.027,-2.0399,-2.0646,-2.0464,-2.0399,-2.07,-2.07,-2.0839,-2.1158,-2.1221,-2.1221,-2.1221,-2.1221,-2.1411,-2.1788,-2.1788,-2.1526,-2.1123,-2.1123,-2.0741,-2.0096,-2.0096,-2.0096,-2.0096,-2.0096,-1.977,-1.9177,-1.9177,-1.8854,-1.8337,-1.8337,-1.8337,-1.8337,-1.8337,-1.8337,-1.8405,-1.8977,-1.9351,-1.9592,-1.9987,-2.0379,-2.0368,-1.8718,-1.8035,-1.7531,-1.6314,-1.5782,-1.5526,-1.541,-1.541,-1.541,-1.541,-1.5313,-1.5215,-1.5156,-1.4961,-1.4715,-1.4656,-1.4556,-1.4515,-1.4515,-1.4515,-1.4515,-1.4515,-1.4515,-1.4515,-1.4515,-1.4515,-1.4515,-1.4515,-1.4515,-1.4515,-1.4515,-1.4515,-1.4515,-1.4515,-1.395,-1.3381,-1.2818,-1.2634,-1.2512,-1.2512,-1.1965,-1.1358,-1.0863,-1.1421,-1.1663,-1.1663,-1.2336,-1.2274,-1.167,-1.2328,-1.1965,-1.0926,-1.1358,-1.1178,-1.0744,-1.0624,-1.0624,-1.0624,-1.0624,-1.0929,-1.1423,-2.0085,-2.0085,-2.0085,-2.0085,-2.0085,-2.0085,-2.0085,-2.0324,-2.0506,-2.0506,-2.0839,-2.1031,-2.1031,-2.1031,-2.1031,-2.1094,-2.1031,-2.1031,-2.1094,-2.1094,-2.1158,-2.1221,-2.1221,-2.1221,-2.1221,-2.1474,-2.1788,-2.2123,-2.2123,-2.1788,-2.1123,-2.1123,-2.0741,-2.0096,-2.0096,-2.0096,-2.0096,-2.0096,-2.0031,-1.9901,-1.9901,-1.9835,-1.977,-1.977,-1.977,-1.977,-1.977,-1.977,-1.9781,-1.9901,-1.9977,-1.9987,-2.0107,-2.0183,-2.0041,-1.9349,-1.92,-1.9243,-1.8627,-1.744,-1.6259,-1.5594,-1.541,-1.541,-1.541,-1.5362,-1.5303,-1.5088,-1.497,-1.4852,-1.4565,-1.4506,-1.4515,-1.4515,-1.4515,-1.4515,-1.4515,-1.4515,-1.4515,-1.4515,-1.4515,-1.4515,-1.4515,-1.4515,-1.4515,-1.4515,-1.4515,-1.4515,-1.4515,-1.4387,-1.4327,-1.4198,-1.307,-1.2512,-1.2512,-1.2389,-1.2328,-1.2205,-1.2328,-1.2328,-1.2389,-1.3009,-1.3009,-1.2389,-1.307,-1.2887,-1.2143,-1.1663,-1.1421,-1.1296,-1.0807,-1.0624,-1.0624,-1.0624,-1.0929,-1.1423,-2.0085,-2.0085,-2.0085,-2.0085,-2.027,-2.0388,-2.0388,-2.0711,-2.0892,-2.0892,-2.1094,-2.1221,-2.1221,-2.1221,-2.1285,-2.1474,-2.1463,-2.1537,-2.1737,-2.16,-2.1537,-2.1737,-2.1737,-2.1737,-2.1737,-2.1862,-2.2061,-2.2197,-2.2197,-2.2061,-2.1663,-2.1663,-2.1537,-2.121,-2.121,-2.121,-2.121,-2.121,-2.1008,-2.0613,-2.0613,-2.042,-2.0096,-2.0096,-1.9922,-1.9727,-1.9552,-1.9944,-2.0466,-2.0194,-2.0355,-2.0677,-2.1083,-2.121,-2.1106,-2.043,-1.9761,-1.9014,-1.848,-1.7499,-1.6488,-1.5979,-1.5633,-1.541,-1.541,-1.541,-1.5352,-1.5245,-1.5079,-1.498,-1.4803,-1.4625,-1.4515,-1.4515,-1.4515,-1.4515,-1.4515,-1.4515,-1.4515,-1.4515,-1.4515,-1.4515,-1.4515,-1.4515,-1.4515,-1.4515,-1.4515,-1.4515,-1.4515,-1.4515,-1.4515,-1.4515,-1.3881,-1.3381,-1.307,-1.307,-1.2887,-1.2512,-1.2879,-1.307,-1.307,-1.3761,-1.3692,-1.307,-1.3761,-1.345,-1.2512,-1.2581,-1.2158,-1.1483,-1.1178,-1.087,-1.0624,-1.0624,-1.0929,-1.1423,-2.0205,-2.0205,-2.027,-2.0335,-2.0582,-2.0775,-2.0775,-2.1094,-2.1348,-2.1348,-2.1348,-2.1423,-2.1423,-2.1423,-2.1537,-2.1788,-2.1788,-2.1925,-2.2185,-2.1987,-2.1925,-2.2197,-2.2197,-2.2197,-2.2197,-2.2197,-2.2197,-2.2197,-2.2197,-2.2197,-2.2197,-2.2197,-2.2197,-2.2197,-2.2197,-2.2197,-2.2197,-2.2197,-2.1862,-2.1336,-2.1336,-2.1071,-2.0624,-2.0624,-2.0353,-2.0008,-1.9792,-2.0183,-2.0809,-2.0635,-2.0944,-2.1451,-2.1987,-2.2197,-2.2053,-2.1224,-1.9901,-1.8612,-1.8024,-1.7311,-1.6637,-1.6379,-1.5864,-1.541,-1.541,-1.541,-1.541,-1.5362,-1.5137,-1.497,-1.497,-1.4675,-1.4515,-1.4515,-1.4515,-1.4515,-1.4515,-1.4515,-1.4515,-1.4515,-1.4515,-1.4515,-1.4515,-1.4515,-1.4515,-1.4515,-1.4515,-1.4515,-1.4515,-1.4515,-1.4515,-1.4515,-1.4515,-1.4258,-1.3761,-1.3761,-1.3442,-1.2948,-1.3511,-1.3761,-1.3761,-1.4258,-1.4198,-1.3761,-1.4267,-1.3941,-1.3009,-1.3321,-1.2895,-1.1981,-1.1787,-1.1421,-1.1052,-1.087,-1.1183,-1.1628,-2.0518,-2.0571,-2.07,-2.1031,-2.1158,-2.1158,-2.1158,-2.1463,-2.1651,-2.1651,-2.1925,-2.2123,-2.2123,-2.2123,-2.2123,-2.2185,-2.2185,-2.2185,-2.2197,-2.2185,-2.2185,-2.2197,-2.2197,-2.2197,-2.2197,-2.2197,-2.2197,-2.2197,-2.2197,-2.2197,-2.2197,-2.2197,-2.2197,-2.2197,-2.2197,-2.2197,-2.2197,-2.2197,-2.2185,-2.2123,-2.2123,-2.2061,-2.2061,-2.2061,-2.2049,-2.1975,-2.1987,-2.1487,-2.0904,-2.1768,-2.2061,-2.2123,-2.2185,-2.2197,-2.1993,-2.0959,-1.9845,-1.8834,-1.8236,-1.76,-1.7034,-1.6415,-1.5864,-1.541,-1.541,-1.541,-1.5362,-1.5264,-1.5098,-1.497,-1.4775,-1.4616,-1.4515,-1.4515,-1.4515,-1.4515,-1.4515,-1.4515,-1.4515,-1.4515,-1.4515,-1.4515,-1.4515,-1.4515,-1.4515,-1.4515,-1.4515,-1.4515,-1.4515,-1.4515,-1.4515,-1.4515,-1.4515,-1.4455,-1.4446,-1.4446,-1.4387,-1.4327,-1.4387,-1.4446,-1.4446,-1.4455,-1.4446,-1.4446,-1.4455,-1.4446,-1.4327,-1.3761,-1.345,-1.326,-1.2696,-1.2389,-1.2266,-1.1663,-1.1826,-1.2233,-2.1388,-2.1146,-2.1031,-2.1158,-2.1348,-2.1526,-2.1526,-2.1788,-2.1987,-2.1987,-2.2123,-2.2197,-2.2197,-2.2197,-2.2197,-2.2197,-2.2197,-2.2197,-2.2197,-2.2197,-2.2197,-2.2197,-2.2197,-2.2197,-2.2197,-2.2197,-2.2197,-2.2197,-2.2197,-2.2197,-2.2197,-2.2197,-2.2197,-2.2197,-2.2197,-2.2197,-2.2197,-2.2197,-2.2197,-2.2197,-2.2197,-2.2197,-2.2197,-2.2197,-2.2197,-2.2209,-2.2229,-2.1984,-2.1634,-2.1553,-2.1788,-2.2197,-2.2197,-2.2197,-2.1993,-2.0923,-1.9841,-1.8934,-1.8709,-1.8201,-1.7589,-1.7034,-1.6415,-1.5853,-1.5468,-1.541,-1.541,-1.5303,-1.5205,-1.5098,-1.5029,-1.4793,-1.4606,-1.4606,-1.4565,-1.4515,-1.4515,-1.4515,-1.4515,-1.4515,-1.4515,-1.4515,-1.4515,-1.4515,-1.4515,-1.4515,-1.4515,-1.4515,-1.4515,-1.4515,-1.4515,-1.4515,-1.4515,-1.4515,-1.4515,-1.4515,-1.4515,-1.4515,-1.4515,-1.4515,-1.4515,-1.4515,-1.4515,-1.4515,-1.4515,-1.4515,-1.4455,-1.4198,-1.3881,-1.3442,-1.3199,-1.2879,-1.2451,-1.2205,-1.238,-1.2722,-2.2237,-2.1889,-2.1588,-2.1726,-2.1788,-2.1851,-2.1851,-2.2061,-2.2197,-2.2197,-2.2197,-2.2197,-2.2197,-2.2197,-2.2197,-2.2197,-2.2197,-2.2197,-2.2197,-2.2197,-2.2197,-2.2197,-2.2197,-2.2197,-2.2197,-2.2197,-2.2197,-2.2197,-2.2197,-2.2197,-2.2197,-2.2197,-2.2197,-2.2197,-2.2197,-2.2197,-2.2197,-2.2197,-2.2197,-2.2197,-2.2197,-2.2197,-2.2197,-2.2197,-2.2197,-2.2209,-2.2178,-2.2205,-2.2123,-2.16,-2.1788,-2.2197,-2.2197,-2.1969,-2.1548,-2.0815,-1.9841,-1.8987,-1.8987,-1.8709,-1.8201,-1.7424,-1.6754,-1.614,-1.5526,-1.541,-1.541,-1.541,-1.5313,-1.5215,-1.5215,-1.4961,-1.4775,-1.4715,-1.4675,-1.4625,-1.4506,-1.4565,-1.4565,-1.4506,-1.4515,-1.4515,-1.4515,-1.4515,-1.4515,-1.4515,-1.4515,-1.4515,-1.4515,-1.4515,-1.4515,-1.4515,-1.4515,-1.4515,-1.4515,-1.4515,-1.4515,-1.4515,-1.4515,-1.4515,-1.4515,-1.4515,-1.4515,-1.4515,-1.4515,-1.4515,-1.4515,-1.4515,-1.4198,-1.3821,-1.3821,-1.3511,-1.307,-1.2879,-1.2983,-1.3236,-2.3015,-2.2725,-2.2506,-2.2848,-2.2555,-2.2197,-2.2197,-2.2197,-2.2197,-2.2197,-2.2197,-2.2197,-2.2197,-2.2197,-2.2197,-2.2197,-2.2197,-2.2197,-2.2197,-2.2197,-2.2197,-2.2197,-2.2197,-2.2197,-2.2197,-2.2197,-2.2197,-2.2197,-2.2197,-2.2197,-2.2197,-2.2197,-2.2197,-2.2197,-2.2197,-2.2197,-2.2197,-2.2197,-2.2197,-2.2197,-2.2197,-2.2197,-2.2197,-2.2197,-2.2197,-2.2197,-2.2197,-2.2197,-2.2197,-2.2197,-2.2197,-2.2197,-2.2197,-2.1464,-2.061,-2.0574,-1.9817,-1.8987,-1.8987,-1.8987,-1.8709,-1.7479,-1.6754,-1.614,-1.5526,-1.541,-1.541,-1.541,-1.5313,-1.5215,-1.5215,-1.5088,-1.497,-1.4715,-1.4843,-1.4862,-1.4575,-1.4606,-1.4666,-1.4506,-1.4515,-1.4515,-1.4515,-1.4515,-1.4515,-1.4515,-1.4515,-1.4515,-1.4515,-1.4515,-1.4515,-1.4515,-1.4515,-1.4515,-1.4515,-1.4515,-1.4515,-1.4515,-1.4515,-1.4515,-1.4515,-1.4515,-1.4515,-1.4515,-1.4515,-1.4515,-1.4515,-1.4515,-1.4515,-1.4515,-1.4515,-1.4515,-1.4446,-1.3761,-1.368,-1.3807,-2.393,-2.3564,-2.328,-2.3352,-2.3292,-2.3065,-2.2726,-2.2944,-2.2944,-2.2309,-2.2494,-2.2555,-2.2259,-2.2197,-2.2197,-2.2197,-2.2197,-2.2197,-2.2197,-2.2197,-2.2197,-2.2197,-2.2197,-2.2197,-2.2197,-2.2197,-2.2197,-2.2197,-2.2197,-2.2197,-2.2197,-2.2197,-2.2197,-2.2197,-2.2197,-2.2197,-2.2197,-2.2197,-2.2197,-2.2197,-2.2197,-2.2197,-2.2197,-2.2197,-2.2197,-2.2197,-2.2197,-2.2197,-2.2197,-2.2197,-2.2197,-2.2197,-2.2197,-2.1452,-2.0586,-2.0574,-1.9817,-1.8987,-1.8987,-1.8987,-1.8827,-1.8038,-1.7699,-1.7313,-1.6255,-1.6026,-1.5911,-1.5468,-1.5362,-1.5362,-1.5362,-1.5254,-1.5098,-1.5088,-1.4902,-1.4775,-1.4666,-1.4616,-1.4565,-1.4515,-1.4515,-1.4515,-1.4515,-1.4515,-1.4515,-1.4515,-1.4515,-1.4515,-1.4515,-1.4515,-1.4515,-1.4515,-1.4515,-1.4515,-1.4515,-1.4515,-1.4515,-1.4515,-1.4515,-1.4515,-1.4515,-1.4515,-1.4515,-1.4515,-1.4515,-1.4515,-1.4515,-1.4515,-1.4515,-1.4515,-1.4515,-1.4515,-1.4455,-1.4267,-1.427,-1.4309,-2.4593,-2.4176,-2.3872,-2.3872,-2.3695,-2.3518,-2.3245,-2.3412,-2.3412,-2.2836,-2.3005,-2.3017,-2.2555,-2.2494,-2.2371,-2.2197,-2.2197,-2.2197,-2.2197,-2.2197,-2.2197,-2.2197,-2.2197,-2.2197,-2.2197,-2.2197,-2.2197,-2.2197,-2.2197,-2.2197,-2.2197,-2.2197,-2.2197,-2.2197,-2.2197,-2.2197,-2.2197,-2.2197,-2.2197,-2.2197,-2.2197,-2.2197,-2.2197,-2.2197,-2.2197,-2.2197,-2.2197,-2.2197,-2.2197,-2.2197,-2.2197,-2.2197,-2.2197,-2.1452,-2.0586,-2.0586,-1.9829,-1.8987,-1.8987,-1.8987,-1.8934,-1.8536,-1.8267,-1.7875,-1.6866,-1.6641,-1.6472,-1.5853,-1.5748,-1.569,-1.5468,-1.5303,-1.5264,-1.5215,-1.5079,-1.4883,-1.4715,-1.4675,-1.4625,-1.4515,-1.4515,-1.4515,-1.4515,-1.4515,-1.4515,-1.4515,-1.4515,-1.4515,-1.4515,-1.4515,-1.4515,-1.4515,-1.4515,-1.4515,-1.4515,-1.4515,-1.4515,-1.4515,-1.4515,-1.4515,-1.4515,-1.4515,-1.4515,-1.4515,-1.4515,-1.4515,-1.4515,-1.4515,-1.4515,-1.4515,-1.4515,-1.4515,-1.4515,-1.4515,-1.4515,-1.4515,-2.5005,-2.465,-2.435,-2.435,-2.3989,-2.3695,-2.3695,-2.3695,-2.3695,-2.3636,-2.3636,-2.3471,-2.3017,-2.2909,-2.2739,-2.2309,-2.2185,-2.2197,-2.2197,-2.2197,-2.2197,-2.2197,-2.2197,-2.2197,-2.2197,-2.2197,-2.2197,-2.2197,-2.2197,-2.2197,-2.2197,-2.2197,-2.2197,-2.2197,-2.2197,-2.2197,-2.2197,-2.2197,-2.2197,-2.2197,-2.2197,-2.2197,-2.2197,-2.2197,-2.2197,-2.2197,-2.2197,-2.2197,-2.2197,-2.2197,-2.2197,-2.2197,-2.2197,-2.1464,-2.061,-2.061,-1.9841,-1.8987,-1.8987,-1.8987,-1.8987,-1.8987,-1.8602,-1.8038,-1.7424,-1.7257,-1.709,-1.6415,-1.6312,-1.614,-1.5526,-1.541,-1.5362,-1.5264,-1.5313,-1.5245,-1.4775,-1.4902,-1.4862,-1.4515,-1.4506,-1.4506,-1.4515,-1.4515,-1.4515,-1.4515,-1.4515,-1.4515,-1.4515,-1.4515,-1.4515,-1.4515,-1.4515,-1.4515,-1.4515,-1.4515,-1.4515,-1.4515,-1.4515,-1.4515,-1.4515,-1.4515,-1.4515,-1.4515,-1.4515,-1.4515,-1.4515,-1.4515,-1.4515,-1.4515,-1.4515,-1.4515,-1.4515,-1.4515,-1.4506,-1.4506,-2.5005,-2.4948,-2.4835,-2.4835,-2.4765,-2.4593,-2.4221,-2.4465,-2.4408,-2.3695,-2.393,-2.4002,-2.3531,-2.3138,-2.2848,-2.2726,-2.2432,-2.2197,-2.2197,-2.2197,-2.2197,-2.2197,-2.2197,-2.2197,-2.2197,-2.2197,-2.2197,-2.2197,-2.2197,-2.2197,-2.2197,-2.2197,-2.2197,-2.2197,-2.2197,-2.2197,-2.2197,-2.2197,-2.2197,-2.2197,-2.2197,-2.2197,-2.2197,-2.2197,-2.2197,-2.2197,-2.2197,-2.2197,-2.2197,-2.2197,-2.2197,-2.2197,-2.2197,-2.1464,-2.061,-2.0586,-1.9829,-1.8987,-1.8987,-1.8987,-1.8987,-1.8987,-1.8881,-1.8655,-1.8038,-1.7929,-1.7589,-1.6528,-1.6312,-1.614,-1.5526,-1.541,-1.541,-1.5362,-1.5313,-1.5147,-1.497,-1.497,-1.4862,-1.4515,-1.4616,-1.4606,-1.4506,-1.4515,-1.4515,-1.4515,-1.4515,-1.4515,-1.4515,-1.4515,-1.4515,-1.4515,-1.4515,-1.4515,-1.4515,-1.4515,-1.4515,-1.4515,-1.4515,-1.4515,-1.4515,-1.4515,-1.4515,-1.4515,-1.4515,-1.4515,-1.4515,-1.4515,-1.4515,-1.4515,-1.4515,-1.4515,-1.4515,-1.4515,-1.4556,-1.4666,-2.5005,-2.5005,-2.5005,-2.5005,-2.5005,-2.4948,-2.465,-2.4835,-2.4821,-2.435,-2.4465,-2.4478,-2.3989,-2.3708,-2.3484,-2.3245,-2.2775,-2.2543,-2.2543,-2.2309,-2.2197,-2.2197,-2.2197,-2.2197,-2.2197,-2.2197,-2.2197,-2.2197,-2.2197,-2.2197,-2.2197,-2.2197,-2.2197,-2.2197,-2.2197,-2.2197,-2.2197,-2.2197,-2.2197,-2.2197,-2.2197,-2.2197,-2.2197,-2.2197,-2.2197,-2.2197,-2.2197,-2.2197,-2.2197,-2.2197,-2.2197,-2.2197,-2.2197,-2.1644,-2.0935,-2.067,-2.0009,-1.9312,-1.9059,-1.8987,-1.8987,-1.8987,-1.8987,-1.8934,-1.8602,-1.8536,-1.8201,-1.6978,-1.6754,-1.6482,-1.5575,-1.541,-1.541,-1.541,-1.5362,-1.5264,-1.5088,-1.5098,-1.5039,-1.4743,-1.4793,-1.4784,-1.4606,-1.4616,-1.4556,-1.4515,-1.4515,-1.4515,-1.4515,-1.4515,-1.4515,-1.4515,-1.4515,-1.4515,-1.4515,-1.4515,-1.4515,-1.4515,-1.4515,-1.4515,-1.4515,-1.4515,-1.4515,-1.4515,-1.4515,-1.4515,-1.4515,-1.4515,-1.4515,-1.4506,-1.4556,-1.4616,-1.4616,-1.4684,-1.4793,-1.4843,-2.5005,-2.5005,-2.5005,-2.5005,-2.5005,-2.5005,-2.5005,-2.5005,-2.5005,-2.5005,-2.5005,-2.4835,-2.4465,-2.435,-2.4105,-2.3636,-2.3185,-2.2909,-2.2909,-2.2432,-2.2197,-2.2197,-2.2197,-2.2197,-2.2197,-2.2197,-2.2197,-2.2197,-2.2197,-2.2197,-2.2197,-2.2197,-2.2197,-2.2197,-2.2197,-2.2197,-2.2197,-2.2197,-2.2197,-2.2197,-2.2197,-2.2197,-2.2197,-2.2197,-2.2197,-2.2197,-2.2197,-2.2197,-2.2197,-2.2197,-2.2197,-2.2197,-2.2197,-2.1825,-2.1296,-2.0779,-2.0225,-1.966,-1.9131,-1.8987,-1.8987,-1.8987,-1.8987,-1.8987,-1.8987,-1.8987,-1.8709,-1.7589,-1.7368,-1.6978,-1.5806,-1.5526,-1.5526,-1.541,-1.541,-1.5362,-1.5215,-1.5215,-1.5147,-1.5029,-1.497,-1.4843,-1.4656,-1.4656,-1.4606,-1.4506,-1.4515,-1.4515,-1.4515,-1.4515,-1.4515,-1.4515,-1.4515,-1.4515,-1.4515,-1.4515,-1.4515,-1.4515,-1.4515,-1.4515,-1.4515,-1.4515,-1.4515,-1.4515,-1.4515,-1.4515,-1.4515,-1.4506,-1.4506,-1.4565,-1.4666,-1.4775,-1.4775,-1.497,-1.5029,-1.5039,-2.5005,-2.5005,-2.5005,-2.5005,-2.5005,-2.5005,-2.5005,-2.5005,-2.5005,-2.5005,-2.5005,-2.5005,-2.4892,-2.4523,-2.4105,-2.3636,-2.3185,-2.2909,-2.2909,-2.2432,-2.2197,-2.2197,-2.2197,-2.2197,-2.2197,-2.2197,-2.2197,-2.2197,-2.2197,-2.2197,-2.2197,-2.2197,-2.2197,-2.2197,-2.2197,-2.2197,-2.2197,-2.2197,-2.2197,-2.2197,-2.2197,-2.2197,-2.2197,-2.2197,-2.2197,-2.2197,-2.2197,-2.2197,-2.2197,-2.2197,-2.2197,-2.2197,-2.2197,-2.1825,-2.1296,-2.0779,-2.0225,-1.966,-1.9131,-1.8987,-1.8987,-1.8987,-1.8987,-1.8987,-1.8987,-1.8987,-1.8827,-1.8093,-1.7984,-1.7589,-1.6415,-1.6197,-1.6026,-1.5468,-1.541,-1.5362,-1.5215,-1.5313,-1.5303,-1.5029,-1.4843,-1.4666,-1.4565,-1.4506,-1.4506,-1.4515,-1.4515,-1.4515,-1.4515,-1.4515,-1.4515,-1.4515,-1.4515,-1.4515,-1.4515,-1.4515,-1.4515,-1.4515,-1.4515,-1.4515,-1.4515,-1.4515,-1.4515,-1.4515,-1.4515,-1.4515,-1.4506,-1.4606,-1.4656,-1.4715,-1.4902,-1.497,-1.497,-1.5098,-1.5156,-1.5215,-2.5005,-2.5005,-2.5005,-2.5005,-2.5005,-2.5005,-2.5005,-2.5005,-2.5005,-2.5005,-2.5005,-2.5005,-2.5005,-2.4835,-2.4593,-2.4408,-2.3943,-2.3767,-2.3884,-2.3065,-2.2653,-2.2811,-2.242,-2.2197,-2.2197,-2.2197,-2.2197,-2.2197,-2.2197,-2.2197,-2.2197,-2.2197,-2.2197,-2.2197,-2.2197,-2.2197,-2.2197,-2.2197,-2.2197,-2.2197,-2.2197,-2.2197,-2.2197,-2.2197,-2.2197,-2.2197,-2.2197,-2.2197,-2.2197,-2.2197,-2.2197,-2.2197,-2.2197,-2.2041,-2.174,-2.1211,-2.0658,-2.0105,-1.9576,-1.9215,-1.8987,-1.8987,-1.8987,-1.8987,-1.8987,-1.8987,-1.8815,-1.8201,-1.8093,-1.782,-1.6978,-1.681,-1.6698,-1.6472,-1.614,-1.5864,-1.5816,-1.5584,-1.5352,-1.5245,-1.5128,-1.501,-1.4921,-1.4862,-1.4862,-1.4803,-1.4803,-1.4803,-1.4803,-1.4803,-1.4803,-1.4803,-1.4803,-1.4803,-1.4803,-1.4803,-1.4803,-1.4803,-1.4803,-1.4684,-1.4515,-1.4515,-1.4515,-1.4515,-1.4515,-1.4565,-1.4606,-1.4656,-1.4775,-1.4902,-1.5029,-1.5147,-1.5254,-1.5313,-1.5313,-1.5313]},{"header":{"parameterUnit":"m.s-1","parameterCategory":1,"la1":30.6,"la2":28.766,"lo1":-90.7593,"lo2":-88.6598,"dy":0.0162,"dx":0.0183,"nx":116,"ny":114,"refTime":"2023-09-07T06:00:00:Z","depth":0,"parameterNumber":3,"parameterNumberName":"V-component_of_WINDS"},"data":[0.0,0.0,0.0,0.0,0.0,0.0,0.0,0.0,0.0,0.0,0.0,0.0,0.0,0.0,0.0,0.0,0.0,0.0,0.0,0.0,0.0,0.0,0.0,0.0,0.0,0.0,0.0,0.0,0.0,0.0,0.0,0.0,0.0,0.0,0.0,0.0,0.0,0.0,0.0,0.0,0.0,0.0,0.0,0.0,0.0,0.0,0.0,0.0,0.0,0.0,0.0,0.0,0.0,0.0,0.0,0.0,0.0,0.0,0.0,0.0,0.0,0.0,0.0,0.0,0.0,0.0,0.0,0.0,0.0,0.0,0.0,0.0,0.0,0.0,0.0,0.0,0.0,0.0,0.0,0.0,0.0,0.0,0.0,0.0,0.0,0.0,0.0,0.0,0.0,0.0,0.0,0.0,0.0,0.0,0.0,0.0,0.0,0.0,0.0,0.0,0.0,0.0,0.0,0.0,0.0,0.0,0.0,0.0,0.0,0.0,0.0,0.0,0.0,0.0,0.0,0.0,0.0,0.0,0.0,0.0,0.0,0.0,0.0,0.0,0.0,0.0,0.0,0.0,0.0,0.0,0.0,0.0,0.0,0.0,0.0,0.0,0.0,0.0,0.0,0.0,0.0,0.0,0.0,0.0,0.0,0.0,0.0,0.0,0.0,0.0,0.0,0.0,0.0,0.0,0.0,0.0,0.0,0.0,0.0,0.0,0.0,0.0,0.0,0.0,0.0,0.0,0.0,0.0,0.0,0.0,0.0,0.0,0.0,0.0,0.0,0.0,0.0,0.0,0.0,0.0,0.0,0.0,0.0,0.0,0.0,0.0,0.0,0.0,0.0,0.0,0.0,0.0,0.0,0.0,0.0,0.0,0.0,0.0,0.0,0.0,0.0,0.0,0.0,0.0,0.0,0.0,0.0,0.0,0.0,0.0,0.0,0.0,0.0,0.0,0.0,0.0,0.0,0.0,0.0,0.0,0.0,0.0,0.0,0.0,0.0,0.0,0.0,0.0,0.0,0.0,0.0,0.0,0.0,0.0,0.0,0.0,0.0,0.0,0.0,0.0,0.0,0.0,0.0,0.0,0.0,0.0,0.0,0.0,0.0,0.0,0.0,0.0,0.0,0.0,0.0,0.0,0.0,0.0,0.0,0.0,0.0,0.0,0.0,0.0,0.0,0.0,0.0,0.0,0.0,0.0,0.0,0.0,0.0,0.0,0.0,0.0,0.0,0.0,0.0,0.0,0.0,0.0,0.0,0.0,0.0,0.0,0.0,0.0,0.0,0.0,0.0,0.0,0.0,0.0,0.0,0.0,0.0,0.0,0.0,0.0,0.0,0.0,0.0,0.0,0.0,0.0,0.0,0.0,0.0,0.0,0.0,0.0,0.0,0.0,0.0,0.0,0.0,0.0,0.0,0.0,0.0,0.0,0.0,0.0,0.0,0.0,0.0,0.0,0.0,0.0,0.0,0.0,0.0,0.0,0.0,0.0,0.0,0.0,0.0,0.0,0.0,0.0,0.0,0.0,0.0,0.0,0.0,0.0,0.0,0.0,0.0,0.0,0.0,0.0,0.0,0.0,0.0,0.0,0.0,0.0,0.0,0.0,0.0,0.0,0.0,0.0,0.0,0.0,0.0,0.0,0.0,0.0,0.0,0.0,0.0,0.0,0.0,0.0,0.0,0.0,0.0,0.0,0.0,0.0,0.0,0.0,0.0,0.0,0.0,0.0,0.0,0.0,0.0,0.0,0.0,0.0,0.0,0.0,0.0,0.0,0.0,0.0,0.0,0.0,0.0,0.0,0.0,0.0,0.0,0.0,0.0,0.0,0.0,0.0,0.0,0.0,0.0,0.0,0.0,0.0,0.0,0.0,0.0,0.0,0.0,0.0,0.0,0.0,0.0,0.0,0.0,0.0,0.0,0.0,0.0,0.0,0.0,0.0,0.0,0.0,0.0,0.0,0.0,0.0,0.0,0.0,0.0,0.0,0.0,0.0,0.0,0.0,0.0,0.0,0.0,0.0,0.0,0.0,0.0,0.0,0.0,0.0,0.0,0.0,0.0,0.0,0.0,0.0,0.0,0.0,0.0,0.0,0.0,0.0,0.0,0.0,0.0,0.0,0.0,0.0,0.0,0.0,0.0,0.0,0.0,0.0,0.0,0.0,0.0,0.0,0.0,0.0,0.0,0.0,0.0,0.0,0.0,0.0,0.0,0.0,0.0,0.0,0.0,0.0,0.0,0.0,0.0,0.0,0.0,0.0,0.0,0.0,0.0,0.0,0.0,0.0,0.0,0.0,0.0,0.0,0.0,0.0,0.0,0.0,0.0,0.0,0.0,0.0,0.0,0.0,0.0,0.0,0.0,0.0,0.0,0.0,0.0,0.0,0.0,0.0,0.0,0.0,0.0,0.0,0.0,0.0,0.0,0.0,0.0,0.0,0.0,0.0,0.0,0.0,0.0,0.0,0.0,0.0,0.0,0.0,0.0,0.0,0.0,0.0,0.0,0.0,0.0,0.0,0.0,0.0,0.0,0.0,0.0,0.0,0.0,0.0,0.0,0.0,0.0,0.0,0.0,0.0,0.0,0.0,0.0,0.0,0.0,0.0,0.0,0.0,0.0,0.0,0.0,0.0,0.0,0.0,0.0,0.0,0.0,0.0,0.0,0.0,0.0,0.0,0.0,0.0,0.0,0.0,0.0,0.0,0.0,0.0,0.0,0.0,0.0,0.0,0.0,0.0,0.0,0.0,0.0,0.0,0.0,0.0,0.0,0.0,0.0,0.0,0.0,0.0,0.0,0.0,0.0,0.0,0.0,0.0,0.0,0.0,0.0,0.0,0.0,0.0,0.0,0.0,0.0,0.0,0.0,0.0,0.0,0.0,0.0,0.0,0.0,0.0,0.0,0.0,0.0,0.0,0.0,0.0,0.0,0.0,0.0,0.0,0.0,0.0,0.0,0.0,0.0,0.0,0.0,0.0,0.0,0.0,0.0,0.0,0.0,0.0,0.0,0.0,0.0,0.0,0.0,0.0,0.0,0.0,0.0,0.0,0.0,0.0,0.0,0.0,0.0,0.0,0.0,0.0,0.0,0.0,0.0,0.0,0.0,0.0,0.0,0.0,0.0,0.0,0.0,0.0,0.0,0.0,0.0,0.0,0.0,0.0,0.0,0.0,0.0,0.0,0.0,0.0,0.0,0.0,0.0,0.0,0.0,0.0,0.0,0.0,0.0,0.0,0.0,0.0,0.0,0.0,0.0,0.0,0.0,0.0,0.0,0.0,0.0,0.0,0.0,0.0,0.0,0.0,0.0,0.0,0.0,0.0,0.0,0.0,0.0,0.0,0.0,0.0,0.0,0.0,0.0,0.0,0.0,0.0,0.0,0.0,0.0,0.0,0.0,0.0,0.0,0.0,0.0,0.0,0.0,0.0,0.0,0.0,0.0,0.0,0.0,0.0,0.0,0.0,0.0,0.0,0.0,0.0,0.0,0.0,0.0,0.0,0.0,0.0,0.0,0.0,0.0,0.0,0.0,0.0,0.0,0.0,0.0,0.0,0.0,0.0,0.0,0.0,0.0,0.0,0.0,0.0,0.0,0.0,0.0,0.0,0.0,0.0,0.0,0.0,0.0,0.0,0.0,0.0,0.0,0.0,0.0,0.0,0.0,0.0,0.0,0.0,0.0,0.0,0.0,0.0,0.0,0.0,0.0,0.0,0.0,0.0,0.0,0.0,0.0,0.0,0.0,0.0,0.0,0.0,0.0,0.0,0.0,0.0,0.0,0.0,0.0,0.0,0.0,0.0,0.0,0.0,0.0,0.0,0.0,0.0,0.0,0.0,0.0,0.0,0.0,0.0,0.0,0.0,0.0,0.0,0.0,0.0,0.0,0.0,0.0,0.0,0.0,0.0,0.0,0.0,0.0,0.0,0.0,0.0,0.0,0.0,0.0,0.0,0.0,0.0,0.0,0.0,0.0,0.0,0.0,0.0,0.0,0.0,0.0,0.0,0.0,0.0,0.0,0.0,0.0,0.0,0.0,0.0,0.0,0.0,0.0,0.0,0.0,0.0,0.0,0.0,0.0,0.0,0.0,0.0,0.0,0.0,0.0,0.0,0.0,0.0,0.0,0.0,0.0,0.0,0.0,0.0,0.0,0.0,0.0,0.0,0.0,0.0,0.0,0.0,0.0,0.0,0.0,0.0,0.0,0.0,0.0,0.0,0.0,0.0,0.0,0.0,0.0,0.0,0.0,0.0,0.0,0.0,0.0,0.0,0.0,0.0,0.0,0.0,0.0,0.0,0.0,0.0,0.0,0.0,0.0,0.0,0.0,0.0,0.0,0.0,0.0,0.0,0.0,0.0,0.0,0.0,0.0,0.0,0.0,0.0,0.0,0.0,0.0,0.0,0.0,0.0,0.0,0.0,0.0,0.0,0.0,0.0,0.0,0.0,0.0,0.0,0.0,0.0,0.0,0.0,0.0,0.0,0.0,0.0,0.0,0.0,0.0,0.0,0.0,0.0,0.0,0.0,0.0,0.0,0.0,0.0,0.0,0.0,0.0,0.0,0.0,0.0,0.0,0.0,0.0,0.0,0.0,0.0,0.0,0.0,0.0,0.0,0.0,0.0,0.0,0.0,0.0,0.0,0.0,0.0,0.0,0.0,0.0,0.0,0.0,0.0,0.0,0.0,0.0,0.0,0.0,0.0,0.0,0.0,0.0,0.0,0.0,0.0,0.0,0.0,0.0,0.0,0.0,0.0,0.0,0.0,0.0,0.0,0.0,0.0,0.0,0.0,0.0,0.0,0.0,0.0,0.0,0.0,0.0,0.0,0.0,0.0,0.0,0.0,0.0,0.0,0.0,0.0,0.0,0.0,0.0,0.0,0.0,0.0,0.0,0.0,0.0,0.0,0.0,0.0,0.0,0.0,0.0,0.0,0.0,0.0,0.0,0.0,0.0,0.0,0.0,0.0,0.0,0.0,0.0,0.0,0.0,0.0,0.0,0.0,0.0,0.0,0.0,0.0,0.0,0.0,0.0,0.0,0.0,0.0,0.0,0.0,0.0,0.0,0.0,0.0,0.0,0.0,0.0,0.0,0.0,0.0,0.0,0.0,0.0,0.0,0.0,0.0,0.0,0.0,0.0,0.0,0.0,0.0,0.0,0.0,0.0,0.0,0.0,0.0,0.0,0.0,0.0,0.0,0.0,0.0,0.0,0.0,0.0,0.0,0.0,0.0,0.0,0.0,0.0,0.0,0.0,0.0,0.0,0.0,0.0,0.0,0.0,0.0,0.0,0.0,0.0,0.0,0.0,0.0,0.0,0.0,0.0,0.0,0.0,0.0,0.0,0.0,0.0,0.0,0.0,0.0,0.0,0.0,0.0,0.0,0.0,0.0,0.0,0.0,0.0,0.0,0.0,0.0,0.0,0.0,0.0,0.0,0.0,0.0,0.0,0.0,0.0,0.0,0.0,0.0,0.0,0.0,0.0,0.0,0.0,0.0,0.0,0.0,0.0,0.0,0.0,0.0,0.0,0.0,0.0,0.0,0.0,0.0,0.0,0.0,0.0,0.0,0.0,0.0,0.0,0.0,0.0,0.0,0.0,0.0,0.0,0.0,0.0,0.0,0.0,0.0,0.0,0.0,0.0,0.0,0.0,0.0,0.0,0.0,0.0,0.0,0.0,0.0,0.0,0.0,0.0,0.0,0.0,0.0,0.0,0.0,0.0,0.0,0.0,0.0,0.0,0.0,0.0,0.0,0.0,0.0,0.0,0.0,0.0,0.0,0.0,0.0,0.0,0.0,0.0,0.0,0.0,0.0,0.0,0.0,0.0,0.0,0.0,0.0,0.0,0.0,0.0,0.0,0.0,0.0,0.0,0.0,0.0,0.0,0.0,0.0,0.0,0.0,0.0,0.0,0.0,0.0,0.0,0.0,0.0,0.0,0.0,0.0,0.0,0.0,0.0,0.0,0.0,0.0,0.0,0.0,0.0,0.0,0.0,0.0,0.0,0.0,0.0,0.0,0.0,0.0,0.0,0.0,0.0,0.0,0.0,0.0,0.0,0.0,0.0,0.0,0.0,0.0,0.0,0.0,0.0,0.0,0.0,0.0,-2.3533,-2.2932,0.0,0.0,0.0,0.0,0.0,0.0,0.0,0.0,0.0,0.0,0.0,0.0,0.0,0.0,0.0,0.0,0.0,0.0,0.0,0.0,0.0,0.0,0.0,0.0,0.0,0.0,0.0,0.0,0.0,0.0,0.0,0.0,0.0,0.0,0.0,0.0,0.0,0.0,0.0,0.0,0.0,0.0,0.0,0.0,0.0,0.0,0.0,0.0,0.0,0.0,0.0,0.0,0.0,0.0,0.0,0.0,0.0,0.0,0.0,0.0,0.0,0.0,0.0,0.0,0.0,0.0,0.0,0.0,0.0,0.0,0.0,0.0,0.0,0.0,0.0,0.0,0.0,0.0,0.0,0.0,0.0,0.0,0.0,0.0,0.0,0.0,0.0,0.0,0.0,0.0,0.0,0.0,0.0,0.0,0.0,0.0,0.0,0.0,0.0,0.0,0.0,0.0,0.0,0.0,0.0,0.0,0.0,0.0,0.0,0.0,0.0,0.0,0.0,0.0,-2.4962,-2.4194,0.0,0.0,0.0,0.0,0.0,0.0,0.0,0.0,0.0,0.0,0.0,0.0,0.0,0.0,0.0,0.0,0.0,0.0,0.0,0.0,0.0,0.0,0.0,0.0,0.0,0.0,0.0,0.0,0.0,0.0,0.0,0.0,0.0,0.0,0.0,0.0,0.0,0.0,0.0,0.0,0.0,0.0,0.0,0.0,0.0,0.0,0.0,0.0,0.0,0.0,0.0,0.0,0.0,0.0,0.0,0.0,0.0,0.0,0.0,0.0,0.0,0.0,0.0,0.0,0.0,0.0,0.0,0.0,0.0,0.0,0.0,0.0,0.0,0.0,0.0,0.0,0.0,0.0,0.0,0.0,0.0,0.0,0.0,0.0,0.0,0.0,0.0,0.0,0.0,0.0,0.0,0.0,0.0,0.0,0.0,0.0,0.0,0.0,0.0,0.0,0.0,0.0,0.0,0.0,0.0,0.0,0.0,0.0,-2.7839,-2.8176,-2.8186,-2.8176,-2.8184,-2.8099,-2.6596,-2.5944,-2.5944,-2.5941,0.0,0.0,0.0,0.0,0.0,0.0,0.0,0.0,0.0,0.0,0.0,0.0,0.0,0.0,0.0,0.0,0.0,0.0,0.0,0.0,0.0,0.0,-1.5092,-1.5092,-1.5799,-1.6239,0.0,0.0,0.0,0.0,0.0,0.0,0.0,0.0,0.0,0.0,0.0,0.0,-2.0108,-1.9981,-1.9736,-1.9397,-1.9724,0.0,0.0,0.0,0.0,0.0,0.0,0.0,0.0,0.0,0.0,0.0,0.0,0.0,0.0,0.0,0.0,0.0,0.0,0.0,0.0,0.0,0.0,0.0,0.0,0.0,0.0,0.0,0.0,0.0,0.0,0.0,0.0,0.0,0.0,0.0,0.0,0.0,0.0,0.0,0.0,0.0,0.0,0.0,-2.2866,-2.2914,0.0,0.0,0.0,0.0,0.0,0.0,0.0,0.0,0.0,0.0,0.0,0.0,0.0,-2.7592,-2.7605,-2.7833,-2.7936,-2.7941,-2.8058,-2.8106,-2.812,-2.8115,-2.8104,-2.8092,-2.7861,0.0,-2.7754,-2.7753,0.0,0.0,0.0,0.0,0.0,0.0,0.0,0.0,0.0,0.0,0.0,0.0,0.0,0.0,0.0,0.0,0.0,0.0,0.0,0.0,0.0,-1.5092,-1.5092,-1.5092,-1.5895,-1.6411,-1.6411,0.0,0.0,0.0,0.0,0.0,0.0,0.0,0.0,0.0,-1.9877,-1.9885,-1.9866,-1.9809,-1.9707,-1.9587,-1.9719,-1.96,-1.9298,-1.967,0.0,0.0,0.0,0.0,0.0,0.0,0.0,0.0,0.0,0.0,0.0,0.0,0.0,0.0,0.0,0.0,0.0,0.0,0.0,0.0,0.0,0.0,0.0,0.0,0.0,0.0,0.0,0.0,0.0,0.0,0.0,0.0,0.0,0.0,0.0,0.0,0.0,0.0,0.0,-2.3475,-2.3852,-2.4312,-2.4372,-2.4561,0.0,0.0,0.0,0.0,0.0,0.0,0.0,0.0,0.0,-2.7573,-2.7918,-2.8087,-2.8029,-2.8533,-2.9011,-2.9518,-3.0003,-3.0496,-3.0969,-3.0969,-3.0971,-3.0964,-3.0936,-3.0905,-3.0761,-2.8874,-2.8104,-2.8101,0.0,0.0,0.0,0.0,-2.8068,-2.8099,0.0,0.0,0.0,0.0,0.0,0.0,0.0,0.0,0.0,0.0,0.0,0.0,-1.5092,-1.5092,-1.5188,-1.5417,-1.6201,-1.6793,-1.7022,0.0,0.0,0.0,0.0,0.0,0.0,0.0,0.0,-1.9843,-1.975,-1.9701,-1.9701,-1.9606,-1.9705,-1.9956,-1.987,-1.9657,-1.935,-1.9695,-1.9612,0.0,0.0,0.0,0.0,0.0,0.0,0.0,0.0,0.0,0.0,0.0,0.0,0.0,0.0,0.0,0.0,0.0,0.0,0.0,0.0,0.0,0.0,0.0,0.0,0.0,0.0,0.0,0.0,0.0,0.0,0.0,0.0,0.0,0.0,0.0,0.0,0.0,0.0,-2.4556,-2.4846,-2.5672,-2.5766,-2.6083,0.0,0.0,0.0,0.0,0.0,0.0,-2.802,-2.8286,-2.8519,-2.8725,-2.8938,-2.9135,-2.9302,-2.994,-3.0597,-3.1243,-3.1911,-3.2548,-3.3167,-3.316,-3.317,-3.3161,-3.3122,-3.3102,-3.2908,-3.0434,-2.9395,-2.9396,-2.9371,-2.9386,-2.9423,-2.9375,-2.9262,-2.9113,0.0,0.0,0.0,0.0,0.0,0.0,0.0,0.0,0.0,0.0,0.0,-1.5092,-1.5092,-1.5092,-1.5436,-1.6258,-1.706,-1.789,-1.8722,-1.9449,-1.9861,0.0,0.0,0.0,0.0,0.0,0.0,-1.9713,-1.9701,-1.9701,-1.9688,-1.9378,-1.973,-2.0641,-2.038,-2.0052,-1.9676,-1.9701,-1.9513,-1.9225,0.0,0.0,0.0,0.0,0.0,0.0,0.0,0.0,0.0,0.0,0.0,0.0,0.0,0.0,0.0,0.0,0.0,0.0,0.0,0.0,0.0,0.0,0.0,0.0,0.0,0.0,0.0,0.0,0.0,0.0,0.0,0.0,0.0,0.0,0.0,0.0,0.0,0.0,0.0,-2.6458,-2.6644,0.0,0.0,0.0,0.0,-2.7922,-2.7992,-2.8012,-2.7904,-2.8769,-2.9616,-3.0443,-3.1217,-3.201,-3.2831,-3.2889,-3.2928,-3.2977,-3.3015,-3.3054,-3.3112,-3.3112,-3.3112,-3.3112,-3.3102,-3.3102,-3.3082,-3.2987,-3.2938,-3.2948,-3.3016,-3.3035,-3.3045,-3.3025,-3.2553,-3.1894,0.0,0.0,0.0,0.0,0.0,0.0,0.0,0.0,0.0,-1.5192,-1.5182,-1.5146,-1.5099,-1.5133,-1.5504,-1.6334,-1.7145,-1.7966,-1.8837,-1.9533,-1.9855,0.0,0.0,0.0,0.0,0.0,-1.9434,-1.9567,-1.9996,-2.0215,-2.0215,-2.0659,-2.1066,-2.1392,-2.131,-2.1092,-2.0776,-2.0433,-2.0136,-1.9877,-1.9426,-1.939,0.0,0.0,0.0,0.0,0.0,0.0,0.0,0.0,0.0,0.0,0.0,0.0,0.0,0.0,0.0,0.0,0.0,0.0,0.0,0.0,0.0,0.0,0.0,0.0,0.0,0.0,0.0,0.0,0.0,0.0,0.0,0.0,0.0,0.0,0.0,0.0,0.0,-2.662,-2.715,0.0,-2.8657,-2.8261,-2.8608,-3.0152,-2.9841,-3.0004,-3.1015,-3.1379,-3.1679,-3.2013,-3.2282,-3.259,-3.2897,-3.2897,-3.3167,-3.3667,-3.3667,-3.3955,-3.4526,-3.4622,-3.4646,-3.4646,-3.4734,-3.4775,-3.4775,-3.4805,-3.4147,-3.3131,-3.317,-3.3198,-3.3247,-3.3237,-3.3083,-3.2863,0.0,0.0,0.0,0.0,0.0,0.0,0.0,0.0,0.0,-1.5207,-1.5196,-1.5177,-1.5133,-1.5146,-1.56,-1.6705,-1.7297,-1.81,-1.9238,-1.9635,-1.9786,0.0,0.0,0.0,0.0,-1.935,-1.9479,-1.9841,-2.0292,-2.0649,-2.096,-2.1625,-2.2173,-2.2611,-2.2701,-2.2879,-2.308,-2.2429,-2.1498,-2.0443,-1.9866,-1.9935,-2.0358,0.0,0.0,0.0,0.0,0.0,0.0,0.0,0.0,0.0,0.0,0.0,0.0,0.0,0.0,0.0,0.0,0.0,0.0,0.0,0.0,0.0,0.0,0.0,0.0,0.0,0.0,0.0,0.0,0.0,0.0,0.0,0.0,0.0,0.0,0.0,-2.7152,-2.7431,-2.796,-2.8717,-2.9829,-2.9437,-2.9925,-3.1853,-3.1514,-3.1687,-3.2752,-3.2795,-3.291,-3.3212,-3.3197,-3.3365,-3.3652,-3.3652,-3.3921,-3.4438,-3.4706,-3.5147,-3.5722,-3.6099,-3.6281,-3.6276,-3.6363,-3.6433,-3.6489,-3.6489,-3.5651,-3.4369,-3.4079,-3.3991,-3.4049,-3.4049,-3.3903,-3.3682,0.0,0.0,0.0,0.0,0.0,0.0,0.0,0.0,-1.5211,-1.5211,-1.5196,-1.5195,-1.5189,-1.514,-1.5788,-1.745,-1.7603,-1.8302,-1.9974,-1.9843,-1.9701,0.0,0.0,0.0,-1.9305,-1.9308,-1.9711,-2.0503,-2.0539,-2.1033,-2.186,-2.2152,-2.3004,-2.4261,-2.4509,-2.533,-2.6392,-2.5561,-2.3577,-2.1013,-2.0964,-2.1033,-2.1075,0.0,0.0,0.0,0.0,0.0,0.0,0.0,0.0,0.0,0.0,0.0,0.0,0.0,0.0,0.0,0.0,0.0,0.0,0.0,0.0,0.0,0.0,0.0,0.0,0.0,0.0,0.0,0.0,0.0,0.0,0.0,0.0,0.0,-2.6727,-2.7382,-2.8217,-2.895,-2.9053,-2.9704,-3.1291,-3.1508,-3.1908,-3.2776,-3.2833,-3.2833,-3.2872,-3.2872,-3.3236,-3.404,-3.4078,-3.4481,-3.5358,-3.5377,-3.5377,-3.5377,-3.6147,-3.653,-3.6569,-3.7412,-3.7795,-3.7795,-3.7795,-3.7874,-3.7993,-3.7993,-3.7578,-3.6853,-3.6052,-3.5723,-3.5704,-3.5704,-3.5209,-3.4425,0.0,0.0,0.0,0.0,0.0,0.0,0.0,-1.5316,-1.5272,-1.5272,-1.5235,-1.5206,-1.5195,-1.5177,-1.5836,-1.7458,-1.7603,-1.8276,-1.9846,-1.9797,0.0,0.0,0.0,0.0,-1.9305,-1.9877,-2.0264,-2.0503,-2.1713,-2.2593,-2.3182,-2.3855,-2.4563,-2.5285,-2.5305,-2.5417,-2.5543,-2.5253,-2.4522,-2.3491,-2.2359,-2.1808,-2.1673,0.0,0.0,0.0,0.0,0.0,0.0,0.0,0.0,0.0,0.0,0.0,0.0,0.0,0.0,0.0,0.0,0.0,0.0,0.0,0.0,0.0,0.0,0.0,0.0,0.0,0.0,0.0,0.0,0.0,0.0,0.0,0.0,-2.8245,-2.7447,-2.8071,-2.8925,-2.9768,-3.0433,-3.1224,-3.2307,-3.2417,-3.2747,-3.3459,-3.3535,-3.3753,-3.4296,-3.4315,-3.4715,-3.557,-3.5589,-3.5988,-3.6806,-3.6806,-3.6806,-3.6825,-3.7053,-3.7148,-3.7148,-3.7507,-3.7639,-3.7675,-3.7761,-3.7827,-3.7859,-3.7859,-3.774,-3.7478,-3.6825,-3.6207,-3.5704,-3.5704,-3.5568,-3.5336,0.0,0.0,0.0,0.0,0.0,0.0,0.0,-1.5349,-1.5306,-1.5306,-1.5235,-1.5196,-1.5195,-1.5171,-1.583,-1.745,-1.7543,-1.8194,-1.9804,-1.9726,0.0,0.0,0.0,-1.9455,-1.9803,-2.0246,-2.0799,-2.1388,-2.2646,-2.3544,-2.4105,-2.5075,-2.5743,-2.6161,-2.6284,-2.636,-2.6332,-2.6276,-2.5872,-2.5197,-2.4243,-2.3488,-2.286,-2.2735,-2.2986,-2.3382,-2.3283,-2.3307,-2.3382,-2.3382,0.0,0.0,0.0,0.0,0.0,0.0,0.0,0.0,0.0,0.0,0.0,0.0,0.0,0.0,0.0,0.0,0.0,0.0,0.0,0.0,0.0,0.0,0.0,0.0,-2.9266,-2.9677,-2.9182,-2.9588,-3.0257,-3.1116,-3.1603,-3.2222,-3.3099,-3.3176,-3.3639,-3.4715,-3.481,-3.5134,-3.5912,-3.595,-3.6178,-3.6689,-3.6689,-3.6917,-3.739,-3.739,-3.739,-3.739,-3.7769,-3.794,-3.7961,-3.8363,-3.8555,-3.8555,-3.8652,-3.8707,-3.876,-3.876,-3.8604,-3.8287,0.0,0.0,0.0,0.0,-3.6748,-3.6709,0.0,0.0,0.0,0.0,0.0,0.0,0.0,-1.5345,-1.5306,-1.5283,-1.5241,-1.5189,-1.5189,-1.5133,-1.5761,-1.745,-1.749,-1.8097,-1.976,0.0,0.0,-1.9305,-1.9305,-1.9675,-2.0484,-2.0578,-2.1261,-2.2598,-2.3404,-2.41,-2.4711,-2.5875,-2.6567,-2.6861,-2.7173,-2.7517,-2.7783,-2.7725,-2.7133,-2.6256,-2.6195,-2.5398,-2.4191,-2.3905,-2.3812,-2.3775,-2.3567,-2.362,-2.3774,-2.3795,0.0,0.0,0.0,0.0,0.0,0.0,0.0,0.0,0.0,0.0,0.0,0.0,0.0,0.0,0.0,0.0,0.0,0.0,0.0,0.0,0.0,0.0,0.0,0.0,-3.0701,-3.1269,-3.1459,-3.1673,-3.2022,-3.2651,-3.2703,-3.3032,-3.3903,-3.4055,-3.4718,-3.6215,-3.6329,-3.6651,-3.7353,-3.739,0.0,0.0,0.0,-3.758,-3.7675,-3.7675,-3.7675,-3.7694,-3.8471,-3.8888,-3.9001,-3.9721,-4.0097,-4.0173,-4.0173,-4.0262,-4.0347,-4.0347,-3.9967,-3.927,-3.8373,-3.8007,-3.8034,-3.8163,-3.8199,-3.8102,0.0,0.0,0.0,0.0,0.0,0.0,0.0,-1.5313,-1.5276,-1.5225,-1.5201,-1.5189,-1.5189,-1.5133,-1.5761,-1.745,-1.749,-1.8025,0.0,0.0,-1.9335,-1.9305,-1.9305,-1.9675,-2.0484,-2.097,-2.1677,-2.2598,-2.3831,-2.4686,-2.5182,-2.6009,-2.6631,-2.7051,-2.7019,-2.7023,-2.7087,-2.6956,-2.6788,-2.6604,-2.6604,-2.5703,-2.4398,-2.3955,-2.3794,-2.3755,-2.3579,-2.3508,-2.3576,-2.3753,-2.3795,-2.3795,-2.3795,0.0,0.0,0.0,0.0,0.0,0.0,0.0,0.0,0.0,0.0,0.0,0.0,0.0,0.0,0.0,0.0,0.0,0.0,0.0,0.0,-3.0798,-3.1099,-3.1667,-3.3032,-3.3789,-3.4035,-3.3542,-3.4036,-3.4756,-3.5628,-3.6291,-3.6822,-3.7125,-3.7163,-3.7239,-3.739,-3.739,-3.7713,-3.8435,-3.8454,-3.8755,-3.9418,-3.9437,-3.9437,-3.9437,-3.9589,0.0,-4.0726,-4.0877,-4.1313,-4.192,-4.192,-4.1942,-4.1965,-4.1965,-4.1561,-4.075,-3.877,-3.808,-3.8163,-3.8187,-3.8199,-3.8179,0.0,0.0,0.0,0.0,0.0,0.0,0.0,-1.5272,-1.5231,-1.5206,-1.517,-1.5114,-1.5061,-1.5018,-1.5665,-1.7302,-1.806,0.0,0.0,-1.935,-1.9305,-1.9305,-1.9305,-1.9811,-2.0933,-2.1261,-2.1864,-2.2852,-2.4258,-2.4998,-2.5131,-2.6204,-2.6822,-2.699,-2.6859,-2.6792,-2.6792,-2.6505,-2.6401,-2.6401,-2.6401,-2.5949,-2.5279,-2.5022,-2.4527,-2.4007,-2.4027,-2.3802,-2.3549,-2.3732,-2.3795,-2.3795,-2.3795,-2.3878,-2.3901,0.0,0.0,0.0,0.0,0.0,0.0,0.0,0.0,0.0,0.0,0.0,0.0,0.0,0.0,-2.9156,0.0,0.0,-3.0711,-3.165,-3.2179,-3.288,-3.4131,-3.5022,-3.5401,-3.5003,-3.5666,-3.631,-3.6746,-3.7163,-3.758,-3.8016,-3.8035,-3.8224,-3.8641,-3.866,-3.885,-3.9286,-3.9304,-3.9494,-3.9889,-4.0347,-4.0555,-4.0574,-4.0972,-4.1389,-4.1806,-4.1806,-4.2033,-4.2412,-4.2412,-4.2412,-4.2412,-4.2412,-4.2303,-4.2049,-4.0907,-4.0,-3.9361,-3.9451,-3.9495,-3.9437,0.0,0.0,0.0,0.0,0.0,0.0,0.0,0.0,-1.5201,-1.5177,-1.5127,-1.5045,-1.4912,-1.4896,-1.5544,-1.7127,0.0,0.0,0.0,-1.9274,-1.9289,-1.9243,-1.9274,-1.9977,-2.1461,-2.1385,-2.1938,-2.3175,-2.4392,-2.4986,-2.4952,-2.6202,-2.6838,-2.6926,-2.6775,-2.6691,-2.6691,-2.635,-2.621,-2.621,-2.621,-2.621,-2.6197,-2.6007,-2.5241,-2.4357,-2.4474,-2.4046,-2.3463,-2.3667,-2.3732,-2.3753,-2.3795,-2.3837,-2.3816,-2.3535,-2.366,0.0,0.0,0.0,0.0,0.0,0.0,0.0,0.0,0.0,-2.8407,-2.8289,-2.9021,-2.9924,-3.0676,-3.0957,-3.1372,-3.2411,-3.3318,-3.4169,-3.504,-3.6026,-3.6689,-3.6689,-3.7258,-3.7637,-3.7637,-3.7788,-3.8167,-3.8869,-3.8925,-3.921,-3.9851,-3.9889,-3.9889,-3.9889,-4.006,-4.0135,-4.0135,-4.101,-4.1446,-4.1446,-4.209,-4.2488,-4.2659,-4.2659,-4.2754,-4.2905,-4.2905,-4.2909,-4.2932,-4.2762,-4.2864,-4.3118,-4.2982,-4.2165,-4.1007,-4.1023,-4.1023,-4.0906,0.0,0.0,0.0,0.0,0.0,0.0,0.0,0.0,0.0,-1.5127,-1.5099,-1.5045,-1.4912,-1.4896,-1.5498,0.0,0.0,0.0,-1.9046,-1.9193,-1.9227,-1.9048,-1.9193,-2.0079,-2.1731,-2.1288,-2.1815,-2.3364,-2.3755,-2.4315,-2.4993,-2.5702,-2.636,-2.6975,-2.6775,-2.6691,-2.6691,-2.6657,-2.6624,-2.6624,-2.6624,-2.6624,-2.6573,-2.5912,-2.5316,-2.4769,-2.4366,-2.3759,-2.3164,-2.344,-2.3531,-2.3553,-2.3732,-2.3919,-2.4039,-2.3816,0.0,-2.4019,-2.3795,-2.4277,-2.4974,-2.5497,-2.6411,-2.7235,0.0,0.0,-2.864,-2.8856,-2.9508,-3.0148,-3.0479,-3.1132,-3.1942,-3.3023,-3.393,-3.4858,-3.5912,-3.7409,-3.8435,-3.8435,-3.851,-3.8567,-3.8567,-3.921,-3.9665,-3.9778,-3.9778,-3.9816,-3.9889,-3.9889,-3.9889,-3.9889,-4.065,-4.1067,-4.1067,-4.1863,-4.228,-4.228,-4.2375,-4.281,-4.3549,-4.3549,-4.3947,-4.463,-4.463,-4.4725,-4.4827,-4.4045,-4.3806,-4.3904,-4.3313,-4.2957,-4.2738,-4.2105,-4.1874,-4.1757,0.0,0.0,0.0,0.0,0.0,0.0,0.0,0.0,0.0,0.0,-1.5038,-1.4957,-1.4856,-1.5159,-1.5796,0.0,0.0,0.0,-1.9159,-1.9259,-1.9259,-1.9178,-1.9259,-1.9792,-2.0861,-2.0956,-2.1493,-2.2453,-2.3371,-2.3932,-2.4207,-2.5381,-2.6036,-2.6262,-2.6572,-2.6691,-2.6691,-2.647,-2.635,-2.635,-2.635,-2.6099,-2.5698,-2.5612,-2.4958,-2.4018,-2.3974,-2.3493,0.0,0.0,-2.3504,-2.3549,-2.3732,-2.3855,-2.3894,-2.3685,-2.4115,0.0,-2.5103,-2.5265,0.0,0.0,-2.7042,-2.755,-2.819,-2.8602,-2.9015,-2.9728,-3.0124,-3.0664,-3.17,-3.23,-3.3103,0.0,-3.52,-3.602,-3.7447,-3.8264,-3.8869,-3.9342,-3.9399,-3.9399,-3.9399,-3.9702,-3.9889,-3.9889,-3.9889,-3.9889,-3.9889,-3.9889,-4.0138,-4.065,-4.101,-4.1427,-4.1901,-4.2735,-4.317,-4.317,-4.3625,-4.4042,-4.4402,-4.4402,-4.4573,-4.4895,-4.5014,-4.5125,-4.5194,-4.4878,-4.4844,-4.4951,-4.4655,-4.46,-4.4525,-4.3233,-4.2763,-4.2647,0.0,0.0,0.0,0.0,0.0,0.0,0.0,0.0,0.0,0.0,0.0,-1.4914,-1.4822,-1.5347,0.0,0.0,0.0,0.0,0.0,-1.9274,-1.9274,-1.923,-1.9212,-1.9563,-2.0281,-2.0543,-2.1078,-2.1879,-2.2798,-2.3364,-2.3625,-2.4722,-2.5275,-2.5416,-2.5878,-2.6082,-2.6082,-2.5782,-2.5646,-2.5646,-2.5646,-2.5329,-2.488,-2.4972,-2.4323,-2.3422,-2.3608,-2.3268,0.0,0.0,-2.3283,-2.3376,-2.3477,-2.3518,-2.3544,-2.3579,-2.4337,-2.5308,-2.6038,0.0,0.0,-2.7335,-2.7651,-2.7991,-2.8985,-2.9216,-2.9483,-3.0438,-3.0812,-3.1328,-3.249,-3.3096,-3.3938,-3.545,-3.6101,-3.695,-3.849,-3.8888,-3.9248,-3.9813,-3.9889,-3.9889,-3.9889,-3.9889,-3.9889,-3.9889,-4.0116,-4.0271,-4.0271,-4.0457,-4.0896,-4.1522,-4.1768,-4.2185,-4.2754,-4.3606,-4.4023,-4.4042,-4.463,-4.4895,-4.4895,-4.4943,-4.4967,-4.4991,-4.5173,-4.5279,-4.532,-4.5419,-4.5528,-4.5661,-4.5661,-4.5708,-4.5645,-4.4446,-4.3846,-4.3537,0.0,0.0,0.0,0.0,0.0,0.0,0.0,0.0,0.0,0.0,0.0,0.0,0.0,0.0,0.0,0.0,0.0,0.0,0.0,-1.9178,-1.9196,-1.9018,-1.9016,-1.9462,-2.047,-2.0118,-2.0634,-2.2078,-2.1955,-2.2461,-2.3608,-2.3573,-2.3952,-2.4632,-2.4605,-2.4574,-2.4574,-2.4543,-2.4543,-2.4543,-2.4543,-2.4543,-2.4441,-2.3731,-2.3427,-2.3393,-2.3422,0.0,0.0,-2.2624,-2.2773,-2.2923,-2.2848,-2.2822,0.0,-2.3676,-2.4682,-2.5685,-2.6181,0.0,-2.7446,-2.7969,-2.8316,-2.8793,-2.9598,-2.9779,-3.0015,-3.0812,-3.161,-3.2154,-3.2208,-3.3077,-3.4142,-3.5237,-3.6288,-3.7382,-3.8544,-3.938,-3.9851,-3.9889,-3.9889,-3.9889,0.0,-3.9889,-3.9889,-3.9889,-4.0688,-4.1162,-4.1162,-4.1901,-4.2337,-4.2375,-4.3189,-4.3644,-4.3663,-4.4459,-4.4857,-4.4857,-4.4895,-4.4895,-4.4895,-4.5103,-4.5192,-4.5192,-4.5321,-4.5456,-4.5596,-4.5596,-4.5677,-4.578,-4.578,-4.58,-4.578,-4.5742,-4.522,-4.4446,0.0,0.0,0.0,0.0,0.0,0.0,0.0,0.0,0.0,0.0,0.0,0.0,0.0,0.0,0.0,0.0,0.0,0.0,0.0,-1.8965,-1.9259,-1.9214,-1.9067,-1.9162,-1.9501,-1.9719,-2.0061,-2.0513,-2.1017,-2.1628,-2.2358,-2.2779,-2.3277,-2.3884,-2.4316,-2.4506,-2.4506,-2.4701,-2.4671,-2.4506,-2.4701,-2.447,-2.3978,-2.3566,-2.3204,-2.2901,0.0,0.0,-2.2685,-2.2624,-2.273,-2.2898,-2.2822,-2.3119,-2.37,-2.4999,-2.5524,-2.587,-2.6842,0.0,-2.7571,-2.8004,-2.8748,-2.9463,-2.9735,-3.0206,-3.0803,-3.1618,-3.1999,-3.2524,-3.361,-3.3918,-3.471,-3.6731,-3.7192,-3.778,-3.9283,-3.974,-3.9889,-3.9889,-3.9889,0.0,0.0,0.0,0.0,-4.0764,-4.1541,-4.2014,-4.2014,-4.2261,-4.2678,-4.3246,-4.3549,-4.3966,-4.4497,-4.4762,-4.4895,-4.4895,-4.4895,-4.4967,-4.5103,-4.517,-4.5256,-4.5341,-4.5475,-4.5563,-4.5613,-4.5692,-4.5752,-4.58,-4.58,-4.58,-4.58,-4.58,-4.5626,-4.5278,0.0,0.0,0.0,0.0,0.0,0.0,0.0,0.0,0.0,0.0,0.0,0.0,0.0,0.0,0.0,0.0,0.0,0.0,0.0,0.0,-1.9259,-1.9164,-1.8983,-1.8861,-1.8807,-1.9101,-1.9371,-1.9552,-2.0121,-2.0638,-2.111,-2.1541,-2.1917,-2.2265,-2.2711,-2.2885,-2.2914,-2.3179,-2.3294,-2.3333,-2.3299,-2.3113,-2.286,-2.2683,-2.2422,0.0,0.0,0.0,-2.2799,-2.2535,-2.2643,-2.2822,-2.2565,-2.3206,-2.4316,-2.5449,-2.6059,-2.6506,-2.7295,-2.7613,-2.7858,-2.8541,-2.9242,-2.9961,-3.0514,-3.1057,-3.1655,-3.2451,-3.2632,-3.294,-3.3991,-3.4183,-3.4928,-3.7128,-3.7431,-3.7997,-3.9665,-3.9889,-3.9889,-3.9889,-3.9889,-4.0003,0.0,0.0,0.0,-4.1219,-4.2242,-4.2867,-4.2867,-4.3152,-4.3549,-4.4118,-4.4137,-4.4383,-4.4895,-4.4895,-4.4895,-4.4895,-4.4967,-4.5061,-4.5192,-4.53,-4.54,-4.5475,-4.5613,-4.5677,-4.5677,-4.5752,-4.58,-4.58,-4.58,-4.58,-4.58,-4.58,-4.58,-4.5722,0.0,0.0,0.0,0.0,0.0,0.0,0.0,0.0,0.0,0.0,0.0,0.0,0.0,0.0,0.0,0.0,0.0,0.0,0.0,0.0,0.0,-1.893,-1.8771,-1.8642,-1.8512,-1.8353,-1.8596,-1.9243,-1.9265,-1.9505,-1.9959,-1.9959,-1.9993,-2.0002,-2.0002,-2.0002,-2.0027,-2.0298,-2.0678,-2.1111,-2.0607,-2.0719,-2.1179,-2.1153,0.0,0.0,0.0,0.0,0.0,-2.2443,-2.2473,-2.2712,-2.2209,-2.3232,-2.47,-2.5162,-2.6324,-2.7465,-2.7465,-2.7759,-2.8353,-2.9493,-2.9826,-3.026,-3.1836,-3.2234,-3.2488,-3.3248,-3.3393,-3.3411,0.0,0.0,-3.476,-3.6422,-3.7092,-3.7959,-3.9627,-3.9851,-3.9889,0.0,0.0,0.0,0.0,0.0,0.0,-4.1389,-4.2848,-4.3758,-4.3758,-4.4497,-4.4895,-4.4895,-4.4895,-4.4895,-4.4895,-4.4895,-4.4914,-4.4919,-4.5125,-4.5213,-4.5235,-4.5475,-4.5613,-4.5613,-4.5737,-4.58,-4.58,-4.58,-4.58,-4.58,-4.58,-4.58,-4.58,-4.58,-4.58,-4.58,0.0,0.0,0.0,0.0,0.0,0.0,0.0,0.0,0.0,0.0,0.0,0.0,0.0,0.0,0.0,0.0,0.0,0.0,0.0,0.0,0.0,0.0,0.0,0.0,0.0,0.0,0.0,0.0,-1.8772,-1.9117,-1.9493,-1.9629,-1.9803,-2.0002,-2.0002,-2.0002,-2.0027,-2.0281,-2.036,-2.0297,0.0,-2.0616,-2.0854,0.0,0.0,0.0,0.0,0.0,0.0,0.0,0.0,0.0,0.0,-2.4603,-2.5172,-2.6158,-2.6833,-2.7195,-2.7195,-2.7504,-2.8063,-2.9158,-3.0071,-3.0948,-3.1962,-3.2651,-3.3158,-3.3357,-3.3393,-3.3592,0.0,0.0,0.0,-3.6378,-3.7051,0.0,-3.885,-3.9532,0.0,-3.9889,0.0,-4.023,-4.1124,-4.1939,0.0,0.0,-4.4004,-4.4592,-4.4592,-4.4781,-4.4895,-4.4895,-4.4895,-4.4895,-4.4895,-4.4895,-4.4986,-4.5125,-4.517,-4.5281,-4.5493,-4.5563,-4.5661,-4.5737,-4.5786,-4.58,-4.58,-4.58,-4.58,-4.58,-4.58,-4.58,-4.58,-4.58,-4.58,-4.58,0.0,0.0,0.0,0.0,0.0,0.0,0.0,0.0,0.0,0.0,0.0,0.0,0.0,0.0,0.0,0.0,0.0,0.0,0.0,0.0,0.0,0.0,0.0,0.0,0.0,0.0,0.0,0.0,0.0,0.0,-1.8771,-1.8895,-1.9013,-1.9171,-1.9171,-1.9124,-1.9046,-1.9293,0.0,0.0,0.0,0.0,0.0,0.0,0.0,0.0,0.0,0.0,0.0,0.0,0.0,-2.3109,-2.4607,-2.5222,-2.5602,-2.6818,0.0,-2.74,-2.7517,-2.7624,-2.7994,-2.9213,-2.999,-3.0767,-3.1926,-3.2542,-3.2868,-3.2868,-3.2868,0.0,-3.2995,-3.3382,0.0,0.0,0.0,0.0,-3.8548,-3.9077,-3.9513,0.0,-3.9889,0.0,-4.1124,-4.1939,-4.2773,0.0,-4.4459,-4.4895,-4.4895,-4.4895,-4.4895,-4.4895,-4.4895,-4.4895,-4.4895,-4.501,-4.5103,-4.5192,-4.532,-4.5456,-4.5596,-4.5661,-4.5723,-4.58,-4.58,-4.58,-4.58,-4.58,-4.58,-4.58,-4.58,-4.58,-4.58,-4.58,-4.58,-4.58,0.0,0.0,0.0,0.0,0.0,0.0,0.0,0.0,0.0,0.0,0.0,0.0,0.0,0.0,0.0,0.0,0.0,0.0,0.0,0.0,0.0,0.0,0.0,0.0,0.0,0.0,0.0,0.0,0.0,0.0,0.0,0.0,0.0,0.0,0.0,0.0,0.0,0.0,0.0,0.0,0.0,0.0,0.0,0.0,0.0,0.0,0.0,0.0,0.0,0.0,-2.3437,-2.3284,-2.4787,-2.5491,-2.6017,-2.7214,-2.7619,-2.7771,-2.802,-2.7897,-2.8052,-2.944,-2.9816,-3.017,-3.1691,-3.2035,-3.2035,-3.2035,0.0,-3.1818,-3.1129,-3.201,-3.3092,-3.391,0.0,-3.6576,-3.8148,-3.8567,-3.8944,-3.9665,-3.9854,-4.023,-4.1124,-4.1939,-4.2773,-4.3625,-4.4459,-4.4895,-4.4895,-4.4895,-4.4895,-4.4895,-4.4895,-4.4895,-4.4895,-4.5103,-4.5213,-4.5235,-4.5475,-4.5613,-4.5629,-4.5757,-4.58,-4.58,-4.58,-4.58,-4.58,-4.58,-4.58,-4.5786,-4.58,-4.58,-4.5786,-4.58,-4.58,-4.58,0.0,0.0,0.0,0.0,0.0,0.0,0.0,0.0,0.0,0.0,-1.5078,-1.5027,0.0,0.0,0.0,0.0,0.0,0.0,0.0,0.0,0.0,0.0,0.0,0.0,0.0,0.0,0.0,0.0,0.0,0.0,0.0,0.0,0.0,0.0,0.0,0.0,0.0,0.0,0.0,0.0,0.0,0.0,0.0,0.0,0.0,0.0,0.0,0.0,0.0,0.0,-2.3714,-2.392,-2.5517,-2.6069,-2.6351,-2.7638,-2.7869,-2.7771,-2.802,-2.7897,-2.8052,-2.944,-2.9816,-3.0069,-3.0985,-3.1202,0.0,0.0,-3.1202,-3.1166,-3.1021,-3.1507,-3.2214,-3.3073,0.0,0.0,-3.6481,-3.7826,-3.8736,0.0,-3.9513,-4.023,-4.1124,-4.1939,0.0,0.0,-4.4459,-4.4895,-4.4895,-4.4895,-4.4895,-4.4895,-4.4895,-4.4895,-4.4895,-4.5103,-4.5277,-4.5361,-4.5528,-4.5661,-4.5771,-4.58,-4.58,-4.58,-4.58,-4.5805,-4.5795,-4.5795,-4.5781,-4.5712,-4.5781,-4.5781,-4.5712,-4.5786,-4.5805,-4.5795,0.0,0.0,0.0,0.0,0.0,0.0,0.0,-1.5315,-1.5291,-1.526,-1.5133,-1.5066,-1.5105,-1.5008,-1.4944,0.0,0.0,0.0,0.0,0.0,0.0,0.0,0.0,0.0,0.0,0.0,-1.8528,-1.831,0.0,-1.8582,-1.8469,-1.8696,-1.8751,-1.8657,-1.8657,0.0,0.0,0.0,0.0,0.0,0.0,0.0,0.0,0.0,0.0,0.0,0.0,0.0,0.0,0.0,-2.3795,-2.4013,-2.5208,-2.586,-2.6398,-2.7425,-2.7799,-2.7982,-2.8273,-2.8138,-2.8099,-2.8961,-2.9174,-2.9391,-3.0188,0.0,0.0,0.0,-3.0369,-3.0242,-2.9826,-3.0375,0.0,-3.1619,-3.306,0.0,0.0,-3.6955,0.0,-3.8662,-3.9418,-4.006,0.0,-4.1673,-4.2583,-4.3,-4.4194,-4.4895,-4.4895,-4.4895,-4.4895,-4.4895,-4.4991,-4.501,-4.4895,-4.5239,-4.5419,-4.54,-4.5613,-4.5737,-4.58,-4.58,-4.58,-4.5791,-4.5791,-4.5776,-4.575,-4.575,-4.5731,-4.5715,-4.575,-4.5731,-4.5696,-4.5727,-4.5746,-4.575,0.0,0.0,0.0,0.0,0.0,0.0,0.0,-1.5365,-1.5326,-1.5326,-1.5212,-1.5151,-1.5133,-1.5059,-1.4973,0.0,0.0,0.0,0.0,0.0,0.0,0.0,0.0,0.0,0.0,0.0,0.0,-1.8643,-1.866,0.0,0.0,0.0,0.0,0.0,-1.8861,-1.8788,-1.862,0.0,0.0,0.0,0.0,-1.9034,0.0,0.0,0.0,0.0,0.0,0.0,0.0,0.0,-2.3795,-2.3904,-2.4538,-2.5298,-2.6168,-2.7327,-2.7759,-2.796,-2.8482,-2.8352,-2.8183,-2.8518,-2.8587,-2.8775,-2.9391,-2.9536,0.0,0.0,-2.9536,-2.9381,-2.8796,0.0,-3.0138,0.0,-3.2045,-3.3543,0.0,0.0,-3.7637,0.0,-3.9304,0.0,-3.9889,-4.1427,0.0,-4.2412,-4.3947,-4.4895,-4.4895,-4.4895,-4.4895,-4.4895,-4.5103,-4.5125,-4.4986,-4.5381,-4.5545,-4.5457,-4.5677,-4.58,-4.58,-4.58,-4.5791,-4.5781,-4.5781,-4.575,-4.57,-4.57,-4.5684,-4.5684,-4.5684,-4.5684,-4.5684,-4.57,-4.57,-4.57,0.0,0.0,0.0,0.0,0.0,0.0,0.0,-1.5393,-1.539,-1.539,-1.5326,-1.5276,-1.5289,-1.5108,-1.5015,0.0,0.0,0.0,0.0,0.0,0.0,0.0,0.0,0.0,0.0,0.0,0.0,-1.9127,-1.9206,0.0,0.0,0.0,0.0,0.0,0.0,-1.9053,-1.9053,-1.9164,0.0,0.0,0.0,0.0,0.0,0.0,0.0,0.0,0.0,0.0,0.0,0.0,0.0,-2.3813,-2.3886,-2.4465,-2.557,-2.7809,0.0,0.0,-2.8337,-2.8352,-2.8183,-2.8518,-2.8587,-2.8605,-2.8677,0.0,0.0,-2.8696,-2.8696,-2.876,-2.8929,-2.9197,-2.9727,-3.0714,0.0,-3.2805,0.0,0.0,0.0,-3.7504,0.0,0.0,-3.9889,-4.1427,-4.2412,-4.2412,-4.3947,-4.4895,-4.4895,-4.4895,-4.4895,-4.4895,-4.5103,-4.5192,-4.517,-4.5456,-4.5596,-4.558,-4.5723,-4.5805,-4.5795,-4.5795,-4.5765,-4.5715,-4.5715,-4.5703,-4.5709,-4.5709,-4.5657,-4.5622,-4.5673,-4.5657,-4.562,-4.5684,-4.5703,-4.569,0.0,0.0,0.0,0.0,0.0,0.0,-1.539,-1.5393,-1.5396,-1.5404,-1.5342,-1.5299,-1.5292,-1.5196,-1.5108,-1.5107,0.0,0.0,0.0,0.0,0.0,0.0,0.0,0.0,0.0,0.0,-1.9504,-1.9444,-1.9467,0.0,0.0,0.0,0.0,0.0,0.0,-1.9214,-1.9214,-1.9292,0.0,0.0,0.0,0.0,0.0,0.0,0.0,0.0,0.0,0.0,0.0,0.0,0.0,0.0,-2.4375,-2.4411,0.0,0.0,-2.7199,-2.7432,-2.8345,-2.8131,-2.7828,-2.8435,-2.8587,-2.8587,-2.8587,0.0,-2.8587,-2.8587,-2.8737,-2.8863,-2.898,-2.9163,-2.9487,-3.0039,0.0,0.0,-3.2786,0.0,0.0,-3.7277,-3.8452,0.0,0.0,0.0,-4.2109,-4.3114,-4.4251,-4.4943,-4.5061,-4.508,-4.508,-4.508,-4.5302,-4.54,-4.5301,-4.558,-4.5677,-4.5596,-4.5746,-4.5795,-4.58,-4.5765,-4.5735,-4.5706,-4.5706,-4.569,-4.564,-4.564,-4.5622,-4.5603,-4.564,-4.5622,-4.5603,-4.5637,-4.5637,-4.564,0.0,0.0,0.0,0.0,0.0,-1.5319,-1.5355,-1.5365,-1.5371,-1.5404,-1.5351,-1.5323,-1.5323,-1.5268,-1.5206,-1.5168,-1.5101,0.0,0.0,0.0,0.0,0.0,0.0,0.0,0.0,0.0,-1.9695,-1.9763,-1.9675,-1.9643,0.0,0.0,-1.9523,-1.9387,0.0,0.0,0.0,0.0,0.0,0.0,0.0,0.0,0.0,0.0,0.0,0.0,0.0,0.0,0.0,0.0,0.0,0.0,0.0,0.0,0.0,0.0,-2.6801,-2.7272,-2.8316,-2.8171,-2.7906,-2.8442,-2.8587,-2.8612,0.0,0.0,-2.8737,-2.8773,-2.8962,-2.9097,-2.9163,-2.9293,-2.9436,-2.9662,0.0,-3.1317,-3.2275,-3.3847,0.0,0.0,0.0,-3.902,0.0,-4.0915,-4.2147,-4.3587,-4.4459,-4.501,-4.5192,-4.5235,-4.5258,-4.5258,-4.5475,-4.5563,-4.5456,-4.5677,-4.5757,-4.5665,-4.5765,-4.58,-4.577,-4.5719,-4.5687,-4.5657,-4.5657,-4.564,-4.5586,-4.5586,-4.5586,-4.5586,-4.5586,-4.5586,-4.5586,-4.5586,-4.5586,-4.5586,0.0,0.0,0.0,0.0,0.0,0.0,-1.5291,-1.5295,-1.5316,-1.5393,-1.5404,-1.5409,-1.5409,-1.5339,-1.5307,-1.5302,-1.5248,0.0,0.0,0.0,0.0,0.0,0.0,0.0,0.0,0.0,-2.0097,-2.0088,-1.9821,-1.9738,-1.9809,-1.9656,-1.9591,-1.9612,0.0,0.0,0.0,0.0,0.0,0.0,0.0,0.0,0.0,0.0,0.0,0.0,0.0,0.0,0.0,0.0,0.0,0.0,0.0,0.0,0.0,0.0,-2.6838,-2.6566,-2.8153,-2.8587,-2.8587,-2.8587,-2.8587,-2.8662,0.0,-2.9003,-2.9052,-2.9251,-2.9293,-2.9355,-2.957,-2.9608,-2.9662,-2.9855,-3.0627,0.0,-3.2293,-3.3847,0.0,0.0,0.0,-3.902,-3.9835,-4.1427,-4.2754,-4.3625,-4.4459,-4.501,-4.5192,-4.5341,-4.54,-4.54,-4.5528,-4.5596,-4.5596,-4.5723,-4.5805,-4.58,-4.58,-4.577,-4.5709,-4.5709,-4.5657,-4.5586,-4.5586,-4.5586,-4.5586,-4.5586,-4.5586,-4.5586,-4.5586,-4.5586,-4.5586,-4.5586,-4.5586,-4.5586,0.0,0.0,0.0,0.0,0.0,0.0,0.0,-1.5292,-1.5313,-1.5393,-1.5404,-1.539,-1.539,-1.5374,-1.5362,-1.5375,-1.5265,0.0,0.0,0.0,0.0,0.0,0.0,0.0,0.0,0.0,-2.0177,-2.0172,-2.0075,-2.0041,-2.0069,-2.0029,-1.9896,-1.9731,-1.9731,-1.9738,0.0,0.0,0.0,0.0,0.0,0.0,0.0,0.0,0.0,0.0,0.0,0.0,0.0,0.0,0.0,0.0,0.0,0.0,0.0,0.0,0.0,0.0,-2.8153,-2.8189,-2.7973,-2.8688,-2.8863,-2.8934,-2.9144,-2.9206,-2.9209,-2.9293,-2.9415,-2.9514,-2.9589,-2.9716,-2.9839,-2.9888,-3.0116,0.0,0.0,0.0,0.0,-3.7049,-3.8641,-3.9669,0.0,0.0,-4.1965,-4.2873,-4.3732,-4.4543,-4.5302,-4.5456,-4.5528,-4.5528,-4.5661,-4.5737,-4.5737,-4.5776,-4.5795,-4.58,-4.5754,-4.5726,-4.5693,-4.5657,-4.5622,-4.5586,-4.5586,-4.5586,-4.5586,-4.5586,-4.5586,-4.5586,-4.5586,-4.5586,-4.5586,-4.5586,-4.5586,-4.5586,0.0,0.0,0.0,0.0,0.0,0.0,0.0,-1.5307,-1.5313,-1.5362,-1.5379,-1.539,-1.539,-1.5404,-1.5399,-1.5396,-1.5291,0.0,0.0,0.0,0.0,0.0,0.0,0.0,0.0,-2.0301,-2.0257,-2.025,-2.0207,-2.0208,-2.0205,-2.0205,-2.0116,-1.9941,-1.9943,-1.9941,0.0,0.0,0.0,0.0,0.0,0.0,-2.0012,0.0,0.0,0.0,0.0,0.0,0.0,0.0,0.0,0.0,0.0,0.0,0.0,0.0,-2.5703,-2.6631,0.0,-2.816,-2.8177,-2.8924,-2.9119,0.0,0.0,-2.9415,-2.9416,-2.9513,-2.9626,-2.9716,-2.9716,-2.9822,-2.9888,-2.9888,-2.9888,0.0,0.0,0.0,0.0,-3.7147,0.0,0.0,0.0,-4.0901,-4.1585,-4.2182,-4.3004,-4.379,-4.4496,-4.4891,-4.5131,-4.5182,-4.5587,-4.5805,-4.5805,-4.5761,-4.575,-4.5754,-4.5726,-4.5693,-4.5657,-4.5622,-4.5586,-4.5586,-4.5586,-4.5586,0.0,-4.5586,-4.5586,-4.5586,-4.5586,-4.5586,-4.5586,-4.5586,-4.5586,-4.5586,0.0,0.0,0.0,0.0,0.0,0.0,0.0,-1.5303,-1.5306,-1.5306,-1.5354,-1.539,-1.539,-1.539,-1.5407,-1.5396,0.0,0.0,0.0,0.0,0.0,0.0,0.0,0.0,0.0,-2.0443,-2.0371,-2.0319,-2.0255,-2.0219,-2.0215,-2.0215,-2.0204,-2.0205,-2.02,-2.0169,0.0,0.0,0.0,0.0,0.0,0.0,0.0,0.0,0.0,0.0,0.0,0.0,0.0,0.0,0.0,0.0,0.0,0.0,0.0,0.0,0.0,0.0,0.0,-2.8382,0.0,0.0,0.0,0.0,-2.9589,-2.9626,0.0,-2.9855,-2.9888,-2.9888,-2.9888,-2.9888,-2.9888,-2.9888,-2.9888,0.0,0.0,-3.2756,0.0,0.0,-3.9227,0.0,-4.0281,-4.1031,-4.1529,-4.1623,-4.2295,-4.2846,-4.3096,-4.3824,-4.4299,-4.4491,-4.5278,-4.5723,-4.5781,-4.5715,-4.5703,-4.5693,-4.5693,-4.5657,-4.5586,-4.5586,-4.5586,-4.5586,-4.5586,-4.5586,-4.5586,-4.5586,-4.5586,-4.5586,-4.5586,-4.5586,-4.5586,-4.5586,-4.5586,-4.5586,0.0,0.0,0.0,0.0,0.0,0.0,0.0,0.0,0.0,0.0,-1.5354,-1.539,-1.539,-1.539,-1.5409,0.0,0.0,0.0,0.0,0.0,0.0,0.0,0.0,0.0,0.0,-2.0487,-2.0472,-2.0448,-2.0434,-2.038,-2.0289,-2.032,-2.0321,-2.0275,-2.0231,-2.0169,0.0,0.0,0.0,0.0,0.0,0.0,0.0,0.0,0.0,0.0,-1.9769,-1.9606,0.0,0.0,0.0,0.0,0.0,0.0,0.0,0.0,-2.4959,-2.5847,-2.7028,0.0,-2.9272,-2.9494,-2.9532,-2.9589,0.0,-2.9839,-2.9839,-2.9888,0.0,0.0,-2.9888,-2.9888,-2.9888,-2.9888,0.0,0.0,-3.2343,0.0,0.0,-3.7484,-3.868,-3.9629,-4.0243,-4.0492,-4.091,-4.17,-4.1931,-4.2351,-4.3057,-4.338,-4.383,-4.4486,-4.465,-4.5059,-4.5715,-4.5722,-4.569,-4.5693,-4.564,-4.5622,-4.5586,-4.5586,-4.5586,-4.5586,-4.5586,-4.5586,-4.5586,-4.5586,-4.5586,-4.5586,-4.5586,-4.5586,-4.5586,-4.5586,-4.5586,-4.5586,0.0,0.0,0.0,0.0,0.0,0.0,0.0,0.0,0.0,0.0,0.0,0.0,0.0,0.0,0.0,0.0,0.0,0.0,0.0,0.0,0.0,0.0,0.0,-2.0497,-2.0494,-2.0494,-2.0506,-2.0503,-2.0492,-2.0452,-2.04,-2.043,-2.041,-2.0334,-2.0234,-2.0175,0.0,0.0,0.0,0.0,-2.0004,0.0,0.0,0.0,0.0,0.0,-1.9769,-1.9606,0.0,-1.935,-1.9746,-2.0373,0.0,0.0,0.0,0.0,-2.4543,-2.5764,-2.701,-2.8106,-2.9026,-2.9586,-2.9734,-2.977,-2.9872,0.0,0.0,0.0,0.0,0.0,0.0,0.0,0.0,0.0,-3.0,0.0,0.0,0.0,-3.7274,-3.7734,-3.8949,-3.9954,0.0,-4.0515,-4.0757,-4.1296,-4.1335,-4.1528,-4.1981,-4.2444,-4.2883,-4.3288,-4.4025,-4.482,-4.5703,-4.5673,-4.5657,-4.5657,-4.5622,-4.5586,-4.5586,-4.5586,-4.5586,-4.5586,-4.5586,-4.5586,-4.5586,-4.5586,-4.5586,-4.5586,-4.5586,-4.5586,-4.5586,-4.5586,-4.5586,-4.5586,0.0,0.0,0.0,0.0,0.0,0.0,0.0,0.0,0.0,0.0,0.0,0.0,0.0,0.0,0.0,0.0,0.0,0.0,0.0,0.0,0.0,0.0,0.0,-2.0501,-2.049,-2.0492,-2.0504,-2.0509,-2.051,-2.0499,-2.0499,-2.0496,-2.0452,-2.0399,-2.0276,-2.0231,0.0,0.0,-2.003,-1.9998,-1.9996,0.0,0.0,0.0,0.0,0.0,0.0,0.0,0.0,-1.9346,-1.9671,-2.0173,-2.0282,0.0,0.0,0.0,0.0,0.0,-2.7135,-2.7862,-2.8532,-2.9628,-2.9888,-2.9888,-2.9888,0.0,0.0,0.0,0.0,0.0,0.0,-3.0015,0.0,0.0,0.0,0.0,-3.264,-3.5513,-3.7598,-3.7968,-3.9273,0.0,-4.0707,-4.079,-4.079,-4.079,-4.079,-4.0778,-4.07,-4.1396,-4.1817,-4.1898,-4.3285,-4.4421,-4.5288,-4.5505,-4.5586,-4.5586,-4.5586,-4.5586,-4.5586,-4.5586,-4.5586,-4.5586,-4.5586,-4.5586,-4.5586,-4.5586,-4.5586,-4.5586,-4.5586,-4.5586,-4.5586,-4.5586,-4.5586,-4.5586,0.0,0.0,0.0,0.0,0.0,0.0,0.0,0.0,0.0,0.0,0.0,0.0,0.0,0.0,0.0,0.0,0.0,0.0,0.0,0.0,0.0,0.0,-1.9603,-2.0497,-2.0502,-2.0502,-2.0502,-2.0501,-2.0508,-2.0501,-2.0501,-2.0503,-2.0457,-2.0395,-2.0381,-2.0314,-2.0208,-2.0175,-2.0106,-1.9991,-2.0009,0.0,0.0,0.0,0.0,0.0,0.0,0.0,0.0,-1.9376,-1.9366,-1.9557,-2.0117,0.0,0.0,0.0,0.0,0.0,-2.7032,-2.7574,-2.7998,-2.951,-2.9888,-2.9888,-2.9888,0.0,0.0,0.0,0.0,0.0,0.0,-3.0094,-3.0094,0.0,0.0,-3.2551,0.0,0.0,-3.6504,-3.7833,0.0,-3.9078,-4.0424,-4.07,-4.079,-4.079,-4.079,-4.0778,-4.07,-4.0835,-4.12,-4.1879,-4.2148,-4.2672,-4.3487,-4.491,-4.5586,-4.5586,-4.5586,-4.5586,-4.5586,-4.5586,-4.5586,-4.5586,-4.5586,-4.5586,-4.5586,-4.5586,-4.5586,-4.5586,-4.5586,-4.5586,-4.5586,-4.5586,-4.5586,-4.5586,0.0,0.0,0.0,0.0,0.0,0.0,0.0,0.0,0.0,0.0,0.0,0.0,0.0,0.0,0.0,0.0,0.0,0.0,0.0,0.0,0.0,-1.8004,-1.9648,-2.0547,-2.0547,-2.0547,-2.0546,-2.0504,-2.0501,-2.0498,-2.0498,-2.0504,-2.0483,-2.0453,-2.0413,-2.0355,-2.0248,-2.018,-2.0087,-2.0001,0.0,0.0,0.0,0.0,0.0,0.0,0.0,0.0,0.0,0.0,-1.9476,-1.945,-1.9685,0.0,0.0,0.0,0.0,0.0,-2.6995,-2.7494,-2.7892,-2.9507,-2.9953,-3.0019,-3.0019,0.0,0.0,0.0,0.0,0.0,0.0,0.0,-3.0279,-3.0359,0.0,-3.2839,-3.2928,-3.4796,-3.6452,0.0,-3.8169,-3.905,-3.9835,-4.043,-4.0733,-4.0681,-4.0733,-4.072,-4.0646,-4.0665,-4.081,-4.1116,-4.1597,-4.2024,-4.2393,-4.3624,-4.4239,-4.4239,-4.4682,-4.4893,-4.4913,-4.5374,-4.5586,-4.5586,-4.5586,-4.5586,-4.5586,-4.5586,-4.5586,-4.5547,-4.5066,-4.4893,-4.4836,-4.4412,-4.4239,-4.4239,0.0,0.0,0.0,0.0,0.0,0.0,0.0,0.0,0.0,0.0,0.0,0.0,0.0,0.0,0.0,0.0,0.0,0.0,0.0,0.0,-1.8096,-1.8309,-1.9773,-2.0597,-2.0603,-2.0603,-2.0566,-2.0527,-2.0526,-2.0525,-2.0504,-2.0497,-2.0506,-2.0506,-2.0441,-2.0395,-2.032,-2.0207,-2.0103,-2.0012,0.0,0.0,0.0,0.0,0.0,0.0,0.0,0.0,0.0,0.0,0.0,0.0,0.0,0.0,0.0,-2.2047,-2.3461,-2.542,-2.7047,-2.766,-2.8169,-2.9577,0.0,-3.0064,-3.0094,0.0,0.0,0.0,0.0,0.0,0.0,-3.0371,0.0,-3.084,-3.1996,-3.2942,-3.3203,-3.5007,-3.6435,-3.6781,-3.8103,-3.9066,-3.9361,-4.0165,-4.0654,-4.0588,-4.0654,-4.066,-4.0588,-4.0607,-4.0573,-4.0504,-4.1143,-4.1508,-4.1508,-4.2162,-4.2701,-4.3104,-4.372,-4.4028,-4.4047,-4.4701,-4.5009,-4.5009,-4.5009,-4.5009,-4.5009,-4.5009,-4.5009,-4.4951,-4.4278,-4.4028,-4.3932,-4.3335,-4.3104,-4.3104,0.0,0.0,0.0,0.0,0.0,0.0,0.0,0.0,0.0,0.0,0.0,0.0,0.0,0.0,0.0,0.0,0.0,0.0,0.0,0.0,-1.8368,-1.9168,-2.0105,-2.0594,-2.0594,-2.0594,-2.0596,-2.0596,-2.0583,-2.0566,-2.0504,-2.0504,-2.0498,-2.0506,-2.0484,-2.0458,-2.0391,-2.0326,-2.0215,-2.0095,-2.0022,0.0,0.0,0.0,0.0,0.0,0.0,0.0,0.0,0.0,0.0,0.0,0.0,0.0,-2.2192,-2.2192,-2.4035,-2.6304,-2.7247,-2.8137,-2.9008,-2.9865,-2.9984,0.0,-3.0079,-3.0109,0.0,-3.0266,0.0,0.0,0.0,-3.0386,-3.0689,-3.1564,-3.242,-3.3284,-3.4185,-3.5151,-3.6049,-3.6798,-3.7713,-3.8569,-3.9328,-4.0139,-4.0621,-4.0588,-4.0588,-4.0612,-4.0607,-4.0607,-4.0573,-4.0504,-4.0546,-4.0585,-4.0585,-4.0662,-4.1489,-4.3104,-4.3162,-4.3181,-4.3181,-4.3258,-4.3278,-4.3278,-4.3278,-4.3278,-4.3278,-4.3278,-4.3278,-4.3278,-4.3201,-4.3181,-4.3181,-4.3124,-4.3104,-4.3104,0.0,0.0,0.0,0.0,0.0,0.0,0.0,0.0,0.0,0.0,0.0,0.0,0.0,0.0,0.0,0.0,0.0,0.0,0.0,0.0,-1.8347,-1.9264,-2.0065,-2.051,-2.0593,-2.0593,-2.0593,-2.0593,-2.0597,-2.0583,-2.0566,-2.0566,-2.0544,-2.0508,-2.0508,-2.0464,-2.0395,-2.0276,-2.0181,-2.0084,-2.003,-1.9996,0.0,0.0,0.0,0.0,0.0,0.0,0.0,0.0,-1.9877,-1.9866,-1.9676,-2.0903,-2.235,-2.2233,-2.4106,-2.6408,-2.7314,-2.8212,-2.9112,-3.0002,0.0,0.0,0.0,-3.0359,-3.0425,-3.0477,-3.0488,0.0,0.0,0.0,-3.0791,-3.1652,-3.2501,-3.339,-3.4272,-3.5143,-3.5789,-3.6057,-3.6813,-3.7443,-3.7745,-3.8984,-3.9793,-3.9798,-4.0294,-4.0569,-4.0539,-4.0539,-4.0523,-4.0489,-4.0489,-4.0489,-4.0489,-4.0489,-4.0816,-4.1489,-4.2027,-4.2297,-4.2316,-4.2854,-4.3104,-4.3104,-4.3104,-4.3104,-4.3104,-4.3104,-4.3104,-4.3047,-4.2508,-4.195,-4.147,-4.147,-4.147,-4.147,0.0,0.0,0.0,0.0,0.0,0.0,0.0,0.0,0.0,0.0,0.0,0.0,0.0,0.0,0.0,0.0,0.0,0.0,-1.704,-1.7626,-1.8462,-1.9654,-2.0195,-2.0499,-2.0564,-2.0591,-2.0593,-2.0593,-2.0593,-2.0597,-2.0602,-2.0602,-2.0586,-2.054,-2.0516,-2.0477,-2.041,-2.0299,-2.0217,-2.015,-2.006,-2.0017,0.0,0.0,0.0,0.0,0.0,0.0,0.0,0.0,-2.0012,-1.9971,-1.9835,-2.1046,-2.255,-2.2704,-2.4606,-2.6866,-2.7784,-2.8683,-2.9526,0.0,0.0,0.0,-3.0439,-3.05,-3.055,-3.0588,-3.0598,0.0,-3.0598,0.0,0.0,0.0,-3.2715,-3.3499,-3.464,-3.5317,-3.5643,-3.5608,-3.6305,-3.6787,-3.6779,-3.8036,-3.8883,-3.8892,-3.9441,-3.9884,-4.0119,-4.0123,-4.0239,-4.0489,-4.0489,-4.0489,-4.0489,-4.0489,-4.0489,-4.0508,-4.1104,-4.1393,-4.1412,-4.2008,-4.2277,-4.2277,-4.2277,-4.2277,-4.2277,-4.2277,-4.2277,-4.222,-4.1623,-4.1027,-4.0489,-4.0489,-4.0489,-4.0489,0.0,0.0,0.0,0.0,0.0,0.0,0.0,0.0,0.0,0.0,0.0,0.0,0.0,0.0,0.0,0.0,0.0,0.0,-1.7881,-1.7998,-1.8779,-2.0515,-2.0593,-2.0564,-2.05,-2.0564,-2.0593,-2.0593,-2.0593,-2.0593,-2.0593,-2.0593,-2.0598,-2.0605,-2.0526,-2.05,-2.0504,-2.0424,-2.0363,-2.0295,-2.0159,-2.0108,-2.0079,0.0,0.0,0.0,0.0,0.0,0.0,0.0,-2.0012,-2.0012,-2.0012,-2.1208,-2.277,-2.364,-2.5704,-2.7896,-2.8771,-2.9694,0.0,0.0,0.0,0.0,-3.0598,-3.05,-3.0439,-3.0559,0.0,-3.0598,-3.0598,-3.0598,0.0,-3.2831,-3.3102,-3.3712,-3.5452,-3.5643,-3.5589,-3.5604,-3.6286,-3.6747,-3.6699,-3.7488,-3.7988,-3.7988,-3.8007,-3.8373,-3.9238,-3.9277,-3.9642,-4.045,-4.0469,-4.0469,-4.0489,-4.0489,-4.0489,-4.0489,-4.0489,-4.0489,-4.0489,-4.0489,-4.0489,-4.0489,-4.0489,-4.0489,-4.0489,-4.0489,-4.0489,-4.0489,-4.0489,-4.0489,-4.0489,-4.0489,-4.0489,-4.0489,0.0,0.0,0.0,0.0,0.0,0.0,0.0,0.0,0.0,0.0,0.0,0.0,0.0,0.0,0.0,0.0,0.0,0.0,-1.7881,-1.7966,-1.8724,-2.0515,-2.0503,-2.0464,-2.05,-2.0528,-2.054,-2.0593,-2.0593,-2.0593,-2.0593,-2.0593,-2.0598,-2.0605,-2.0526,-2.05,-2.0484,-2.0376,-2.0313,-2.0295,-2.015,-2.0098,-2.0079,0.0,0.0,0.0,0.0,0.0,0.0,0.0,0.0,0.0,-2.0012,-2.1208,-2.277,-2.364,-2.5704,-2.7908,-2.889,-2.977,0.0,0.0,0.0,0.0,0.0,-3.0559,0.0,0.0,-3.0598,-3.0598,-3.0598,-3.0598,0.0,-3.2831,-3.3102,-3.3712,-3.5452,-3.5643,-3.5589,-3.5604,-3.5779,-3.5874,-3.5853,-3.6603,-3.7084,-3.7084,-3.7642,-3.8104,-3.8373,-3.8392,-3.8488,-3.8719,-3.8738,-3.9046,-3.9642,-3.9662,-3.9931,-4.0489,-4.0489,-4.0489,-4.0489,-4.0489,-4.0489,-4.0489,-4.0489,-4.0489,-4.0489,-4.0489,-4.0489,-4.0489,-4.0489,-4.0489,-4.0489,-4.0489,-4.0489,-4.0489,0.0,0.0,0.0,0.0,0.0,0.0,0.0,0.0,0.0,0.0,0.0,0.0,0.0,0.0,0.0,0.0,0.0,0.0,0.0,-1.8299,-1.9097,-2.0534,-2.0528,-2.05,-2.0536,-2.0506,-2.0533,-2.0593,-2.0593,-2.0593,-2.0593,-2.0593,-2.0597,-2.0601,-2.0566,-2.0523,-2.0488,-2.0402,-2.0366,-2.0326,-2.0195,-2.0135,-2.0126,0.0,0.0,0.0,0.0,0.0,0.0,0.0,0.0,0.0,-2.0459,0.0,-2.2978,-2.4513,-2.632,-2.8095,-2.9399,0.0,0.0,0.0,-3.0598,-3.0598,-3.0598,0.0,0.0,0.0,-3.0588,-3.0598,-3.0559,-3.0559,0.0,-3.2812,-3.3091,-3.3661,-3.5411,-3.5589,-3.5565,-3.556,-3.5522,-3.5495,-3.5507,-3.5949,-3.6219,-3.6219,-3.6719,-3.7161,-3.7469,-3.7488,-3.7642,-3.7988,-3.8007,-3.8208,-3.8661,-3.8646,-3.8879,-3.9272,-3.9358,-3.9358,-3.9291,-4.0114,-4.0489,-4.0489,-4.0489,-4.0489,-4.0489,-4.0489,-4.0489,-4.0489,-4.0489,-4.0489,-4.0489,-4.0489,-4.0489,-4.0489,0.0,0.0,0.0,0.0,0.0,0.0,0.0,0.0,0.0,0.0,0.0,0.0,0.0,0.0,0.0,0.0,0.0,0.0,0.0,0.0,-1.9695,-2.0554,-2.0593,-2.0591,-2.0593,-2.0533,-2.0533,-2.0593,-2.0593,-2.0593,-2.0593,-2.0593,-2.0593,-2.0594,-2.0602,-2.0566,-2.0494,-2.0503,-2.0452,-2.0383,-2.0269,-2.0205,-2.0197,-2.0126,0.0,0.0,0.0,0.0,0.0,0.0,0.0,0.0,-2.1175,-2.215,-2.351,-2.5889,-2.7324,-2.847,-3.0153,0.0,0.0,0.0,-3.0598,0.0,-3.0598,-3.0598,-3.0569,-3.0501,0.0,-3.0588,-3.0501,-3.0491,-3.1042,-3.2715,-3.2982,-3.3577,-3.5253,-3.5495,-3.5515,-3.5515,-3.5515,-3.5493,-3.5493,-3.5493,-3.5493,-3.5493,-3.5493,-3.5834,-3.6546,-3.657,-3.6921,-3.7723,-3.7728,-3.767,-3.7559,-3.7559,-3.7489,-3.7413,-3.7603,-3.7565,-3.7451,-3.9382,-4.0242,-4.0242,-4.0258,-4.0258,-4.0258,-4.0258,-4.0258,-4.0258,-4.0258,-4.0258,-4.0258,-4.0258,-4.0258,-4.0258,0.0,0.0,0.0,0.0,0.0,0.0,0.0,0.0,0.0,0.0,0.0,0.0,0.0,0.0,0.0,0.0,0.0,0.0,0.0,0.0,-1.97,-2.0555,-2.056,-2.0558,-2.0593,-2.0533,-2.0533,-2.0593,-2.0593,-2.0593,-2.0593,-2.0593,-2.0593,-2.0594,-2.0602,-2.0566,-2.0494,-2.0503,-2.0452,-2.0388,-2.0313,-2.0281,-2.0281,-2.0197,-2.0171,0.0,0.0,0.0,0.0,0.0,0.0,0.0,-2.1348,-2.2985,-2.506,-2.6236,-2.7749,-2.9244,0.0,-3.0598,0.0,0.0,-3.0598,-3.0598,-3.0598,-3.0559,-3.051,-3.0491,-3.0559,-3.0588,-3.0501,-3.0491,-3.0849,-3.1902,-3.2596,-3.3365,-3.4426,-3.5104,-3.5515,-3.5515,-3.5515,-3.5493,-3.5493,-3.5493,-3.5493,-3.5493,-3.5493,-3.5584,-3.5757,-3.5622,-3.5602,-3.5793,-3.5658,-3.5836,-3.6445,-3.6445,-3.6768,-3.7413,-3.7452,-3.7452,-3.7413,-3.8019,-3.8295,-3.8314,-3.8481,-3.8546,-3.8546,-3.8546,-3.8546,-3.8546,-3.8546,-3.8546,-3.8546,-3.8546,-3.8546,-3.8546,0.0,0.0,0.0,0.0,0.0,0.0,0.0,0.0,0.0,0.0,0.0,0.0,0.0,0.0,0.0,0.0,0.0,0.0,0.0,0.0,-2.013,-2.0575,-2.0564,-2.0564,-2.0593,-2.0564,-2.0564,-2.0593,-2.0593,-2.0593,-2.0593,-2.0593,-2.0593,-2.0594,-2.0598,-2.0566,-2.0498,-2.0494,-2.0456,-2.0385,-2.0334,-2.0299,-2.0304,-2.0273,-2.0488,-2.0823,-2.0893,0.0,0.0,0.0,0.0,0.0,0.0,0.0,-2.576,-2.7401,-2.8568,-2.9495,0.0,0.0,0.0,0.0,0.0,-3.0598,-3.0598,-3.055,-3.051,-3.05,-3.053,-3.053,-3.046,-3.046,-3.0749,-3.1639,-3.2127,-3.2817,-3.4082,-3.4616,-3.5033,-3.5457,-3.5501,-3.5493,-3.5493,-3.5493,-3.5493,-3.5493,-3.5493,-3.5465,-3.5354,-3.5258,-3.516,-3.5054,-3.4945,-3.5059,-3.5375,-3.5375,-3.5541,-3.587,-3.5996,-3.6056,-3.6115,-3.7185,-3.7691,-3.7708,-3.7909,-3.8007,-3.8007,-3.8007,-3.8007,-3.8007,-3.8007,-3.8007,-3.8007,-3.8007,-3.8007,-3.8007,0.0,0.0,0.0,0.0,0.0,0.0,0.0,0.0,0.0,0.0,0.0,0.0,0.0,0.0,0.0,0.0,0.0,0.0,0.0,0.0,0.0,-2.0594,-2.0593,-2.0593,-2.0593,-2.0593,-2.0593,-2.0593,-2.0593,0.0,0.0,0.0,-2.0593,-2.0593,-2.0593,-2.0565,-2.0502,-2.0506,-2.0453,-2.0417,-2.0495,-2.0546,-2.055,-2.0711,-2.1174,-2.1752,-2.1881,-2.2488,-2.3218,-2.3224,0.0,0.0,0.0,0.0,-2.6594,-2.8683,-2.9399,-2.9669,0.0,0.0,0.0,0.0,-3.0598,0.0,-3.0569,-3.053,-3.0481,-3.0479,-3.0499,-3.0479,-3.0398,-3.0398,-3.0659,-3.1433,-3.1638,-3.2192,-3.3564,-3.3898,-3.4295,-3.518,-3.5276,-3.5334,-3.5488,-3.5493,-3.5493,-3.5446,-3.5479,-3.5403,-3.5157,-3.5141,-3.5054,-3.4851,-3.4792,-3.4691,-3.4539,-3.4517,-3.4427,-3.4197,-3.4409,-3.4517,-3.4577,-3.6369,-3.7164,-3.7182,-3.7405,-3.7521,-3.7536,-3.755,-3.7565,-3.7565,-3.7565,-3.7565,-3.7565,-3.7565,-3.7565,-3.7565,0.0,0.0,0.0,0.0,0.0,0.0,0.0,0.0,0.0,0.0,0.0,0.0,0.0,0.0,0.0,0.0,0.0,0.0,-2.0385,0.0,0.0,-2.0593,-2.0593,-2.0593,-2.0593,-2.0593,-2.0593,-2.0593,0.0,0.0,0.0,0.0,0.0,-2.0593,0.0,-2.0563,-2.0506,-2.0498,-2.0467,-2.0473,-2.121,-2.1507,-2.1597,-2.2339,-2.2668,-2.2719,-2.2803,-2.3385,-2.4135,-2.414,-2.5145,0.0,0.0,0.0,-2.8934,-2.9224,-2.9824,-3.0443,0.0,0.0,0.0,0.0,-3.0559,-3.0501,0.0,0.0,-3.0409,0.0,-3.0469,-3.0479,-3.0398,-3.0398,-3.0436,-3.0571,-3.1203,-3.1775,-3.1987,-3.2622,-3.3391,-3.4276,-3.4372,-3.4661,-3.543,-3.5493,-3.5432,-3.5258,-3.5403,-3.5339,-3.4964,-3.4945,-3.485,-3.4647,-3.4409,-3.4293,-3.4245,-3.4245,-3.4245,-3.4197,-3.4245,-3.4245,-3.4269,-3.4767,-3.5009,-3.503,-3.5413,-3.5567,-3.5602,-3.5758,-3.5834,-3.5834,-3.5834,-3.5834,-3.5834,-3.5834,-3.5834,-3.5834,0.0,0.0,0.0,0.0,0.0,0.0,0.0,0.0,0.0,0.0,0.0,0.0,0.0,0.0,0.0,-1.9264,-1.9754,-2.0184,-2.0576,-2.0594,-2.0593,-2.0593,-2.0593,-2.0593,-2.0593,-2.0593,-2.0593,-2.0593,0.0,0.0,0.0,-2.0593,-2.0593,0.0,0.0,0.0,0.0,-2.1074,-2.1247,-2.126,-2.2094,-2.2411,-2.2404,-2.2791,-2.3236,-2.3693,-2.4215,-2.4955,-2.577,-2.6252,-2.6942,-2.7643,-2.8106,0.0,0.0,0.0,-3.0289,0.0,-3.0559,0.0,0.0,0.0,-3.052,-3.05,-3.0491,0.0,-3.0398,-3.0398,-3.0417,-3.0425,-3.0414,-3.0402,-3.0402,-3.0402,-3.0717,-3.1141,-3.1641,-3.2006,-3.2545,-3.3372,-3.3468,-3.3769,-3.4529,-3.4591,-3.4706,-3.5016,-3.5107,-3.5037,-3.4751,-3.473,-3.4607,-3.4386,-3.4269,-3.4197,-3.4197,-3.4197,-3.4197,-3.4197,-3.4197,-3.4197,-3.4197,-3.4316,-3.4473,-3.4623,-3.4908,-3.5037,-3.5054,-3.5242,-3.5339,-3.5339,-3.5465,-3.5493,-3.5493,-3.5493,-3.5493,-3.5493,0.0,0.0,0.0,0.0,0.0,0.0,0.0,0.0,0.0,0.0,0.0,0.0,0.0,0.0,0.0,0.0,-2.0222,-2.0593,-2.0593,-2.0593,-2.0593,-2.0593,-2.0593,-2.0593,-2.0593,-2.0593,-2.0591,0.0,0.0,0.0,-2.0568,-2.0591,-2.0593,0.0,-2.0593,-2.0714,0.0,0.0,0.0,-2.2183,-2.2978,-2.3289,-2.3248,-2.348,-2.3964,-2.4621,-2.5298,-2.6214,-2.7239,-2.7906,-2.8411,-2.8864,-2.9522,-2.9728,0.0,0.0,0.0,0.0,0.0,0.0,0.0,-3.051,-3.049,-3.0479,0.0,0.0,-3.0406,0.0,-3.0402,-3.0398,-3.0398,-3.0398,-3.0398,-3.0398,-3.0398,-3.0641,-3.1275,-3.1371,-3.1679,-3.2506,-3.2602,-3.2858,-3.3525,-3.3605,-3.3832,-3.4453,-3.4548,-3.4545,-3.4498,-3.4561,-3.4473,-3.4221,-3.4197,-3.4197,-3.4197,-3.4197,-3.4197,-3.4197,-3.4197,-3.4197,-3.4197,-3.4197,-3.4316,-3.4517,-3.473,-3.4812,-3.4831,-3.5089,-3.5209,-3.5226,-3.5417,-3.5493,-3.5493,-3.5493,-3.5493,-3.5493,0.0,0.0,0.0,0.0,0.0,0.0,0.0,0.0,0.0,0.0,0.0,0.0,-1.9229,-2.0009,-2.0534,-2.0534,-2.0573,-2.0593,-2.0593,-2.0593,-2.0593,-2.0593,-2.0593,0.0,-2.0593,-2.0593,-2.0566,0.0,0.0,0.0,-2.0503,-2.0566,-2.0593,-2.0593,-2.0593,-2.1066,-2.1834,0.0,0.0,0.0,-2.3805,-2.4138,-2.4215,-2.5047,-2.5395,-2.5453,-2.5569,-2.6644,-2.8046,-2.8173,-2.9254,-3.0568,-3.0617,-3.0598,-3.0558,0.0,0.0,0.0,0.0,-3.0509,0.0,-3.0509,0.0,0.0,0.0,0.0,-3.041,-3.041,-3.041,-3.0398,-3.0398,-3.0398,-3.0398,-3.0398,-3.0398,-3.0417,-3.0456,-3.0456,-3.0794,-3.166,-3.1756,-3.2033,-3.2699,-3.276,-3.2942,-3.3349,-3.3564,-3.3825,-3.4189,-3.4473,-3.4473,-3.4221,-3.4197,-3.4197,-3.4197,-3.4197,-3.4197,-3.4197,-3.4197,-3.4197,-3.4197,-3.4197,-3.4197,-3.4245,-3.4495,-3.4623,-3.4666,-3.5037,-3.5209,-3.5226,-3.5417,-3.5493,-3.5493,-3.5493,-3.5493,-3.5493,0.0,0.0,0.0,0.0,0.0,0.0,0.0,0.0,0.0,0.0,0.0,0.0,0.0,-2.0348,-2.0539,-2.0545,-2.0547,-2.0547,-2.0546,-2.0584,-2.0599,-2.0594,-2.0593,-2.0593,-2.0593,-2.0593,0.0,0.0,0.0,-2.0564,-2.0519,-2.1132,-2.1434,-2.1434,-2.1434,-2.1611,-2.1966,-2.3006,0.0,0.0,0.0,-2.5066,0.0,0.0,-2.5511,-2.5569,-2.6111,-2.6683,-2.7379,-2.851,-2.9331,-2.9949,-3.0477,-3.0655,-3.0665,-3.0621,0.0,0.0,0.0,0.0,0.0,-3.0428,-3.0425,-3.0402,-3.0386,-3.0414,-3.0398,-3.0398,-3.0398,-3.0398,-3.0398,-3.0398,-3.0398,-3.0398,-3.0398,-3.0398,-3.0398,-3.0398,-3.0513,-3.0833,-3.0759,-3.0925,-3.1613,-3.1555,-3.1713,-3.2291,-3.2393,-3.2521,-3.266,-3.2747,-3.2989,-3.3417,-3.3417,-3.3677,-3.4179,-3.4197,-3.4197,-3.4197,-3.4197,-3.4197,-3.4197,-3.4197,-3.4197,-3.4197,-3.4293,-3.434,-3.4363,-3.4691,-3.4908,-3.5037,-3.5226,-3.5403,-3.5493,-3.5493,-3.5493,-3.5493,0.0,0.0,0.0,0.0,0.0,0.0,0.0,0.0,0.0,0.0,0.0,0.0,0.0,0.0,-2.05,-2.0497,-2.05,-2.0503,-2.0505,-2.0566,-2.0602,-2.0594,-2.0593,-2.0593,-2.0593,-2.0593,-2.0564,0.0,0.0,0.0,0.0,-2.16,-2.2039,-2.2312,-2.2608,-2.2747,0.0,0.0,0.0,-2.4775,0.0,0.0,-2.5511,-2.5511,-2.5511,-2.5569,-2.6102,-2.647,-2.6876,-2.8045,-2.8848,-2.9465,-3.0005,-3.0384,-3.0623,-3.0559,0.0,0.0,-3.0471,0.0,0.0,0.0,0.0,-3.041,-3.0394,-3.0402,-3.0398,-3.0398,-3.0398,-3.0398,-3.0398,-3.0398,-3.0398,-3.0398,-3.0398,-3.0398,-3.0398,-3.0398,-3.0367,-3.0311,-3.0182,-3.0232,-3.0557,-3.049,-3.0673,-3.134,-3.1392,-3.1504,-3.1782,-3.1782,-3.2024,-3.2581,-3.26,-3.2841,-3.338,-3.338,-3.338,-3.3398,-3.3658,-3.3788,-3.3807,-3.4067,-3.4197,-3.4197,-3.4197,-3.4197,-3.4221,-3.4495,-3.4668,-3.4831,-3.5089,-3.5273,-3.5417,-3.5479,-3.5493,-3.5493,0.0,0.0,0.0,0.0,0.0,0.0,0.0,0.0,0.0,-2.0495,0.0,0.0,0.0,0.0,0.0,-2.057,-2.0567,-2.0575,-2.0578,-2.0644,-2.0662,-2.0674,-2.0672,-2.0671,-2.0671,-2.0671,-2.0642,0.0,0.0,0.0,0.0,0.0,-2.239,-2.3169,-2.4057,-2.4432,-2.4434,0.0,-2.4896,-2.5593,0.0,-2.5511,-2.5511,-2.5511,-2.5511,-2.555,-2.555,-2.6044,-2.6741,-2.6779,-2.7902,-2.9303,-2.9319,-2.9873,0.0,0.0,0.0,0.0,0.0,0.0,0.0,0.0,0.0,0.0,-3.0398,0.0,-3.0398,-3.0398,-3.0398,-3.0398,-3.0398,-3.0398,-3.0398,-3.0398,-3.0398,-3.0398,-3.0398,-3.0398,-3.0343,-3.0122,-3.0109,-2.9958,-2.9626,-2.9608,-2.985,-3.0504,-3.0578,-3.0891,-3.1671,-3.1745,-3.1745,-3.1745,-3.1782,-3.1801,-3.1801,-3.1801,-3.1801,-3.1801,-3.2581,-3.2953,-3.299,-3.377,-3.4123,-3.4123,-3.4141,-3.416,-3.4184,-3.4476,-3.4583,-3.4626,-3.5037,-3.5193,-3.5226,-3.5417,-3.5493,-3.5493,0.0,0.0,0.0,0.0,0.0,0.0,-1.999,-2.0237,-2.0405,0.0,0.0,0.0,-2.1307,-2.194,-2.2294,-2.2236,-2.2275,-2.2314,-2.231,-2.2367,-2.2401,-2.242,-2.2418,-2.2408,-2.2408,-2.2408,-2.24,0.0,0.0,0.0,0.0,0.0,0.0,0.0,-2.4959,-2.5332,-2.5332,-2.5348,0.0,-2.5593,-2.5531,-2.5511,-2.5511,-2.5511,-2.5859,-2.6373,-2.6356,-2.6917,-2.7719,-2.8309,-2.8859,-2.939,-2.9988,0.0,0.0,0.0,0.0,0.0,-3.0451,0.0,0.0,0.0,0.0,0.0,-3.0398,0.0,-3.0398,-3.0398,-3.0398,-3.0398,-3.0398,-3.0398,-3.0398,-3.0398,-3.0398,-3.0398,-3.0398,-3.0398,-3.0343,-3.0122,-3.0007,-2.9851,-2.9607,-2.9512,-2.9522,-2.9659,-2.9699,-2.9792,-2.9909,-3.0465,-3.0779,-3.0779,-3.1353,-3.1691,-3.1733,-3.1733,-3.1737,-3.1782,-3.2024,-3.2117,-3.2135,-3.2358,-3.2451,-3.2488,-3.3083,-3.3324,-3.3361,-3.4027,-3.4409,-3.4604,-3.473,-3.4851,-3.5019,-3.5209,-3.5273,-3.5289,0.0,0.0,0.0,0.0,0.0,-2.0258,-2.0255,-2.0283,-2.0424,0.0,0.0,0.0,-2.2061,-2.259,-2.2881,-2.2898,-2.2901,-2.2937,-2.3003,-2.3046,-2.3059,-2.3052,-2.3083,-2.3105,-2.3105,-2.3097,-2.3105,0.0,0.0,0.0,0.0,-2.4152,0.0,0.0,0.0,0.0,0.0,0.0,0.0,0.0,-2.6064,-2.6246,-2.6536,-2.6547,-2.6829,-2.7245,-2.7208,-2.7527,-2.802,-2.8492,-2.8927,-2.9409,-3.0202,-3.0455,0.0,-3.0451,0.0,0.0,0.0,0.0,0.0,0.0,0.0,0.0,-3.0398,-3.0398,-3.0398,-3.0398,-3.0398,-3.0398,-3.0398,-3.0398,-3.0398,-3.0398,-3.0398,-3.0398,-3.0398,-3.0398,-3.0299,-3.0037,-2.995,-2.9803,-2.9532,-2.945,-2.9386,-2.9344,-2.9386,-2.9347,-2.924,-2.9706,-2.9965,-2.9902,-3.0409,-3.0672,-3.0668,-3.0713,-3.0735,-3.0757,-3.1132,-3.1303,-3.1299,-3.1634,-3.1782,-3.1819,-3.2284,-3.2488,-3.2544,-3.3361,-3.3995,-3.445,-3.4561,-3.4668,-3.4811,-3.5089,-3.5209,-3.5226,0.0,0.0,-2.0049,-2.0167,-2.0257,-2.0319,-2.0314,-2.0412,-2.0727,0.0,-2.1615,-2.1999,-2.2827,-2.2959,-2.3025,-2.3155,-2.3102,-2.3126,-2.3245,-2.3267,-2.3276,-2.3291,-2.3338,-2.3384,-2.3386,-2.3398,-2.3389,0.0,0.0,0.0,0.0,0.0,-2.5019,0.0,0.0,0.0,0.0,0.0,0.0,-2.7149,-2.6992,-2.7368,-2.8006,-2.7999,-2.8067,-2.8135,-2.8068,-2.8087,-2.8183,-2.8183,-2.8694,-2.9462,-3.016,-3.0398,-3.0398,-3.0398,-3.0398,0.0,0.0,0.0,0.0,-3.0398,-3.0398,0.0,-3.0398,-3.0398,-3.0398,-3.0398,-3.0398,-3.0398,-3.0398,-3.0398,-3.0398,-3.0398,-3.0398,-3.0398,-3.0398,-3.0367,-3.026,-2.9934,-2.9886,-2.9734,-2.9429,-2.9407,-2.9386,-2.9386,-2.9365,-2.9344,-2.9302,-2.9344,-2.9304,-2.92,-2.9304,-2.9326,-2.92,-2.9326,-2.9365,-2.9323,-3.0089,-3.0485,-3.0504,-3.1229,-3.1522,-3.1522,-3.1615,-3.1652,-3.1727,-3.2525,-3.3324,-3.4091,-3.4435,-3.4561,-3.4604,-3.5001,-3.5141,-3.5209,-1.9769,0.0,-2.0017,-2.0098,-2.066,-2.1098,-2.1092,-2.1731,-2.2253,-2.2355,-2.2985,-2.3486,-2.3663,-2.4303,-2.4725,-2.4758,-2.4733,-2.4782,-2.4839,-2.4904,-2.496,-2.5018,-2.5084,-2.5141,-2.5186,-2.5188,-2.5195,-2.519,0.0,0.0,0.0,0.0,0.0,0.0,0.0,0.0,0.0,0.0,0.0,-2.8772,-2.8046,-2.7862,-2.7999,-2.8009,-2.8405,-2.8965,-2.8944,-2.9357,-2.9916,-2.9913,-3.0037,-3.0179,-3.0352,-3.0398,-3.0398,-3.0398,-3.0398,-3.0398,-3.0398,-3.0398,-3.0398,-3.0398,-3.0398,0.0,-3.0398,-3.0398,-3.0398,-3.0398,-3.0398,-3.0398,-3.0398,-3.0398,-3.0398,-3.0398,-3.0398,-3.0398,-3.0398,-3.0254,-3.008,-2.9918,-2.9769,-2.9589,-2.9427,-2.9407,-2.9365,-2.9262,-2.9152,-2.9152,-2.9302,-2.9218,-2.9156,-2.92,-2.924,-2.9262,-2.928,-2.9302,-2.9344,-2.9386,-2.9535,-2.963,-2.9649,-2.9797,-2.9872,-2.9909,-3.0559,-3.0838,-3.0913,-3.1689,-3.2507,-3.3287,-3.4008,-3.4269,-3.4316,-3.4626,-3.4831,-3.5001,-2.0333,-2.0488,-2.0713,-2.1223,-2.1635,-2.1892,-2.1896,-2.2314,-2.2726,-2.3106,-2.4265,-2.5064,-2.5096,-2.5836,-2.6378,-2.6439,-2.6448,-2.6481,-2.6593,-2.6657,-2.671,-2.6749,-2.6817,-2.6864,-2.6893,-2.6893,-2.689,-2.6901,-2.6897,0.0,0.0,0.0,0.0,0.0,0.0,0.0,0.0,0.0,-2.909,-2.9823,-2.8946,-2.885,-2.9245,-2.9206,-2.9447,-2.9803,-2.9809,-3.0067,-3.0402,-3.041,-3.0398,-3.0398,-3.0398,-3.0398,-3.0398,-3.0398,-3.0398,-3.0398,-3.0398,-3.0398,-3.0398,-3.0398,-3.0398,0.0,0.0,-3.0398,-3.0398,-3.0398,-3.0398,-3.0398,-3.0398,-3.0398,-3.0398,-3.0367,-3.0348,-3.0323,-3.0215,-3.0109,-3.0003,-2.9867,-2.9625,-2.9455,-2.9307,-2.9304,-2.9283,-2.9218,-2.9152,-2.913,-2.9197,-2.9175,-2.9134,-2.9089,-2.9197,-2.924,-2.9197,-2.9302,-2.9344,-2.9344,-2.9386,-2.9407,-2.9407,-2.9407,-2.9407,-2.9425,-2.9834,-3.0002,-3.0076,-3.0875,-3.1429,-3.1912,-3.312,-3.3844,-3.4221,-3.4495,-3.473,-3.4945,-2.1117,0.0,-2.1563,-2.2334,-2.2615,-2.2742,-2.2733,-2.2984,-2.3483,0.0,0.0,0.0,-2.6474,-2.7052,-2.749,-2.758,-2.7605,-2.7649,-2.78,-2.7855,-2.7913,-2.7989,-2.8036,-2.8064,-2.8092,-2.8104,-2.8093,-2.811,-2.8097,0.0,0.0,0.0,0.0,0.0,0.0,0.0,0.0,0.0,0.0,-3.0422,-2.9717,-2.9852,-3.0469,-3.0428,-3.0386,-3.0406,-3.039,-3.0398,-3.0398,-3.0398,-3.0398,-3.0398,-3.0398,-3.0398,-3.0398,-3.0398,-3.0398,-3.0398,-3.0398,-3.0398,-3.0398,-3.0398,-3.0398,-3.0398,0.0,0.0,0.0,-3.0398,-3.0398,-3.0379,-3.0379,-3.0367,-3.0297,-3.0037,-3.0152,-3.0125,-2.9749,-2.9813,-2.9845,-2.9731,-2.9514,-2.9334,-2.9222,-2.9178,-2.9178,-2.92,-2.9178,-2.9134,-2.9112,-2.9156,-2.9152,-2.904,-2.9197,-2.924,-2.9152,-2.9283,-2.9365,-2.9323,-2.9386,-2.9407,-2.9407,-2.9407,-2.9407,-2.9407,-2.9407,-2.9407,-2.9463,-3.0113,-3.0466,-3.0764,-3.2358,-3.3398,-3.3998,-3.4394,-3.4668,-3.487,-2.1877,-2.2041,0.0,-2.2304,-2.3018,-2.3557,-2.3561,-2.4769,-2.5982,0.0,0.0,0.0,-2.7196,-2.7214,-2.7232,-2.7267,-2.7266,-2.7309,-2.7457,-2.7466,-2.7606,-2.7893,-2.7923,-2.7972,-2.8104,-2.8109,-2.8109,-2.8104,-2.8106,-2.8106,0.0,0.0,0.0,0.0,-2.9168,0.0,0.0,0.0,-3.0321,-3.0398,-3.0287,-3.0317,-3.0398,-3.0398,-3.0394,-3.041,-3.041,-3.0398,-3.0398,-3.0398,-3.0398,-3.0398,-3.0398,-3.0398,-3.0398,-3.0398,-3.0398,-3.0398,-3.0398,-3.0398,-3.0398,-3.0398,-3.0398,-3.0398,-3.0398,0.0,-3.0398,-3.0398,0.0,-3.0316,-3.0316,0.0,0.0,-2.9126,-2.956,-2.9711,-2.8796,-2.9119,-2.9474,-2.9456,-2.9314,-2.9222,-2.92,-2.9152,-2.9152,-2.92,-2.9108,-2.9085,-2.9178,-2.9134,-2.9112,-2.9178,-2.92,-2.924,-2.928,-2.9302,-2.9344,-2.9386,-2.9407,-2.9407,-2.9407,-2.9407,-2.9407,-2.9407,-2.9407,-2.9407,-2.9407,-2.95,-2.9965,-3.0764,-3.2358,-3.3045,-3.3213,-3.3985,-3.4409,-3.4626,-2.2991,-2.2944,0.0,0.0,-2.4404,-2.4994,-2.508,-2.6051,-2.6948,0.0,0.0,-2.8071,-2.8122,-2.8462,-2.8706,-2.8719,-2.8697,-2.8732,-2.8789,-2.889,-2.9017,-2.9109,-2.9159,-2.9228,-2.9313,-2.9331,-2.9381,-2.9486,-2.9496,-2.9496,0.0,0.0,0.0,0.0,-2.9938,0.0,-3.0444,0.0,-3.0402,-3.0402,-3.0267,-3.0222,-3.0248,-3.0359,-3.0402,-3.0398,-3.0398,-3.0398,-3.0398,-3.0398,-3.0398,-3.0398,-3.0398,-3.0398,-3.0398,-3.0398,-3.0398,-3.0398,-3.0398,-3.0398,-3.0398,-3.0398,-3.0398,-3.0398,-3.0398,-3.0398,-3.0398,-3.0348,0.0,0.0,0.0,0.0,0.0,0.0,-2.9618,-2.958,-2.9045,-2.9172,-2.9373,-2.9395,-2.9225,-2.9067,-2.9067,-2.9062,-2.9044,-2.9067,-2.904,-2.9017,-2.9085,-2.9062,-2.9044,-2.9067,-2.9112,-2.9156,-2.924,-2.928,-2.9344,-2.9407,-2.9407,-2.9407,-2.9407,-2.9407,-2.9407,-2.9407,-2.9407,-2.9407,-2.9407,-2.9407,-2.9611,-3.002,-3.1151,-3.2172,-3.3027,-3.338,-3.3971,-3.4602,-2.4419,0.0,0.0,0.0,-2.5793,-2.6288,-2.6658,-2.7265,-2.7755,-2.8009,-2.855,-2.8921,-2.8915,-2.9379,-2.9682,-2.9678,-2.9693,-2.9696,-2.972,-2.9859,-2.9934,-2.9934,-2.9999,-3.0062,-3.0131,-3.0157,-3.0225,-3.0371,-3.0348,-3.0348,0.0,0.0,0.0,0.0,0.0,-3.026,-3.026,0.0,-3.026,-3.0247,-3.0095,-3.0052,-3.0066,-3.0202,-3.0286,-3.0311,-3.0273,-3.0286,-3.0311,-3.0273,-3.026,-3.026,-3.026,-3.0286,-3.0311,-3.0318,-3.0374,-3.0398,-3.0379,-3.0398,-3.0398,-3.0398,-3.0398,-3.0398,-3.0398,-3.0398,-3.0379,-3.0316,-3.0304,0.0,0.0,0.0,-2.9839,-2.9479,0.0,-2.9363,-2.8955,-2.9079,-2.9228,-2.9289,-2.9112,-2.8952,-2.8905,-2.897,-2.897,-2.8905,-2.897,-2.8994,-2.8994,-2.8994,-2.8994,-2.8994,-2.9085,-2.9134,-2.92,-2.9262,-2.9344,-2.9407,-2.9407,-2.9407,-2.9407,-2.9407,-2.9407,-2.9407,-2.9407,-2.9407,-2.9407,-2.9407,-2.9407,-2.9463,-3.0039,-3.1136,-3.2395,-3.2841,-3.3627,-3.4495,-2.6206,-2.6296,0.0,0.0,-2.6875,-2.7177,-2.8091,-2.8421,-2.8772,-2.9345,-2.957,-2.9626,-2.9496,-2.9439,-2.9407,-2.9409,-2.9409,-2.9446,-2.952,-2.952,-2.9606,-2.9801,-2.9817,-2.9864,-3.0007,-3.0007,-3.0007,-3.0007,-3.0007,-3.0007,0.0,0.0,0.0,0.0,-2.9927,-2.9931,-2.9918,-2.9918,-2.9918,-2.9918,-2.9902,-2.9902,-2.9902,-2.9918,-2.9992,-3.0095,-2.9946,-2.9992,-3.0095,-2.9965,-2.9918,-2.9918,-2.9918,-3.0007,-3.0109,-3.0104,-3.0253,-3.0398,-3.0316,-3.0348,-3.0398,-3.0398,-3.0398,-3.0398,-3.0398,-3.0398,-3.0379,-3.0316,-3.0299,-3.0221,-2.9958,-2.9918,-2.9523,0.0,-2.8812,0.0,0.0,-2.8521,-2.9017,-2.9017,-2.9017,-2.8905,-2.8626,-2.8858,-2.8881,-2.8626,-2.8858,-2.8994,-2.8994,-2.8994,-2.8994,-2.8994,-2.9085,-2.9134,-2.92,-2.9262,-2.9344,-2.9407,-2.9407,-2.9407,-2.9407,-2.9407,-2.9407,-2.9407,-2.9407,-2.9407,-2.9407,-2.9407,-2.9407,-2.9407,-2.9444,-2.9965,-3.0875,-3.2414,-3.3491,-3.4221,0.0,0.0,0.0,0.0,0.0,-2.7695,-2.8748,-2.9078,-2.9252,-2.9413,-2.9514,-2.9531,-2.9437,-2.9439,-2.9476,-2.9456,-2.9436,-2.9407,-2.9425,-2.9978,-3.0076,-2.9569,-3.0077,-3.0188,-2.9732,-2.9746,-2.9796,-2.9934,-2.9934,-2.9934,0.0,0.0,0.0,0.0,0.0,-2.9902,0.0,0.0,0.0,0.0,-2.9769,-2.9663,-2.9589,-2.9822,-2.9934,-2.9946,-2.9918,-2.9934,-2.9946,-2.9918,-2.9902,-2.9902,-2.9902,-2.9934,-2.9946,-2.9899,-2.9965,-2.9977,-2.9927,-2.9912,-2.9977,-3.0099,-3.0056,-3.0007,-3.0279,-3.0155,-3.0007,-3.008,-2.9992,-2.9867,-2.9732,-2.9589,-2.9381,0.0,-2.9018,-2.8979,0.0,-2.881,-2.8929,-2.8743,-2.8881,-2.8952,-2.8881,-2.8947,-2.8952,-2.8881,-2.8947,-2.8994,-2.8994,-2.8994,-2.8994,-2.8994,-2.9085,-2.9134,-2.92,-2.9262,-2.9344,-2.9407,-2.9407,-2.9407,-2.9407,-2.9407,-2.9407,-2.9407,-2.9407,-2.9407,-2.9407,-2.9407,-2.9407,-2.9407,-2.9407,-2.989,-3.0745,-3.1801,-3.2711,-3.3473,-2.8272,0.0,0.0,0.0,-2.7723,-2.8375,-2.9052,-2.9289,-2.9377,-2.9307,-2.9285,-2.9295,-2.9306,-2.9269,-2.9251,-2.925,-2.9193,-2.9329,-2.9715,-2.998,-3.0039,-2.9832,-3.0088,-3.0018,-2.9531,-2.9814,-2.987,-2.9717,-3.0,-3.0,0.0,0.0,0.0,0.0,0.0,-2.9717,-2.9717,-2.9717,-2.9717,0.0,-2.957,-2.9491,-2.9409,-2.9645,-2.9751,-2.9786,-2.9753,-2.9751,-2.9786,-2.9753,-2.9717,-2.9717,-2.9681,-2.9716,-2.975,-2.968,-2.9715,-2.9748,-2.9677,-2.9677,-2.9731,-2.9864,-2.9799,-2.9782,-3.0032,-2.9912,-2.9782,-2.9829,-2.9746,-2.9643,-2.9514,-2.9395,-2.9272,0.0,0.0,-2.8994,0.0,-2.8994,-2.8929,-2.8767,-2.8881,-2.8905,-2.87,-2.8863,-2.897,-2.8858,-2.8947,-2.8994,-2.8994,-2.8994,-2.8994,-2.8994,-2.9085,-2.9134,-2.92,-2.9262,-2.9344,-2.9407,-2.9407,-2.9407,-2.9407,-2.9407,-2.9407,-2.9407,-2.9407,-2.9407,-2.9407,-2.9407,-2.9407,-2.9407,-2.9407,-2.9723,-3.0318,-3.1392,-3.2488,-3.3491,-2.8253,-2.8271,-2.8434,-2.883,-2.9022,-2.9144,-2.9135,-2.9198,-2.9198,-2.914,-2.9018,-2.8997,-2.9135,-2.9003,-2.891,-2.8913,-2.8898,-2.9339,-3.0277,-2.9655,-2.9683,-3.0568,-2.9922,-2.9514,-2.9477,-3.0259,-3.0278,-2.9498,-3.0278,0.0,0.0,0.0,0.0,0.0,-2.9518,0.0,-2.9442,-2.9442,-2.9423,-2.9386,-2.9386,-2.9386,-2.9386,-2.9386,-2.9471,-2.9551,-2.945,-2.9472,-2.9551,-2.9431,-2.9386,-2.9386,-2.9323,-2.9373,-2.9456,-2.9414,-2.9532,-2.9661,-2.9587,-2.9624,-2.9678,-2.9678,-2.9678,-2.9678,-2.9696,-2.9678,-2.9661,-2.9605,-2.9587,-2.9533,-2.9316,-2.9272,-2.9228,-2.9021,0.0,-2.8975,-2.8994,-2.8975,-2.8952,-2.8994,-2.8994,-2.8767,-2.821,-2.8676,-2.8881,-2.8626,-2.8839,-2.8994,-2.8994,-2.8994,-2.8994,-2.8994,-2.9085,-2.9134,-2.92,-2.9262,-2.9344,-2.9407,-2.9407,-2.9407,-2.9407,-2.9407,-2.9407,-2.9407,-2.9407,-2.9407,-2.9407,-2.9407,-2.9407,-2.9407,-2.9407,-2.9425,-2.9649,-3.1206,-3.2785,-3.4141,-2.9101,-2.953,-3.0001,-3.0224,-2.9872,-2.9594,-2.9766,-2.9793,-2.9743,-2.9573,-2.966,-2.9655,-2.9569,-3.0141,-3.0507,-3.0523,-3.0517,-3.0632,-3.0874,-3.1319,-3.1384,-3.0992,-3.1342,-3.129,-3.0661,-3.1054,-3.1167,-3.0964,-3.1306,-3.1396,-3.1191,0.0,0.0,0.0,0.0,-3.0813,-3.0213,-3.0213,-2.986,-2.9323,-2.9262,-2.9283,-2.9323,-2.9262,-2.9265,-2.931,-2.9326,-2.9326,-2.9289,-2.9265,-2.9262,-2.9262,-2.924,-2.9265,-2.9267,-2.92,-2.9203,-2.9228,-2.9185,-2.9163,-2.9228,-2.9375,-2.9293,-2.9251,-2.9626,-2.9474,-2.9291,-2.9415,-2.9334,-2.9206,-2.9112,-2.9089,-2.9067,-2.9017,-2.8834,-2.8767,-2.8952,-2.8608,-2.8412,-2.8651,-2.8694,-2.8718,-2.8749,-2.8905,-2.8952,-2.8905,-2.8767,-2.8791,-2.8994,-2.8791,-2.8791,-2.8994,-2.9085,-2.9134,-2.92,-2.9262,-2.9344,-2.9407,-2.9407,-2.9407,-2.9407,-2.9407,-2.9407,-2.9407,-2.9407,-2.9407,-2.9407,-2.9407,-2.9407,-2.9407,-2.9407,-2.9779,-3.0411,-3.1429,-3.2432,-3.338,-2.9886,-3.0237,-3.0568,-3.0758,-3.0666,-3.0534,-3.035,-3.0355,-3.0305,-3.0212,-3.0216,-3.0216,-3.018,-3.0586,-3.084,-3.0853,-3.0856,-3.1053,-3.1512,-3.1636,-3.1697,-3.1682,-3.1729,-3.1538,-3.1021,-3.15,-3.1631,-3.1359,-3.1814,-3.1977,-3.1782,0.0,0.0,0.0,0.0,-3.1518,-3.1024,-3.1001,-3.072,-3.0294,-3.0272,-3.0272,0.0,-3.0272,-3.0226,-3.0148,-2.9843,-2.9514,-2.92,-2.92,-2.92,-2.9181,-2.9178,-2.9156,-2.9156,-2.9085,-2.9062,-2.9062,-2.9017,-2.8994,-2.904,-2.9138,-2.9071,-2.9067,-2.9332,-2.9225,-2.9089,-2.9203,-2.9134,-2.904,-2.9017,-2.8994,-2.8994,-2.8994,-2.8767,-2.8651,-2.8791,-2.8412,-2.8156,-2.836,-2.836,-2.8438,-2.8583,-2.8858,-2.8905,-2.8626,-2.8601,-2.8669,-2.8834,-2.8694,-2.8718,-2.8994,-2.9085,-2.913,-2.9175,-2.924,-2.9323,-2.9365,-2.9386,-2.9407,-2.9407,-2.9407,-2.9407,-2.9407,-2.9407,-2.9407,-2.9407,-2.9407,-2.9407,-2.9407,-2.9407,-2.9686,-3.0225,-3.1355,-3.2302,-3.312,-3.0796,-3.082,-3.0872,-3.1044,-3.148,-3.1647,-3.1154,-3.1002,-3.0932,-3.0932,-3.0776,-3.0723,-3.0914,-3.0847,-3.0811,-3.0811,-3.0827,-3.1207,-3.2146,-3.1492,-3.148,-3.2419,-3.1738,-3.1256,-3.1124,-3.183,-3.1944,-3.1427,-3.22,-3.2383,0.0,0.0,0.0,0.0,0.0,0.0,0.0,-3.1586,-3.1501,-3.1458,-3.1434,-3.1434,-3.1458,-3.1434,-3.1409,-3.1268,-3.0552,-2.9871,-2.9281,-2.9197,-2.916,-2.9115,-2.9093,-2.9093,-2.9089,-2.9017,-2.8994,-2.8994,-2.8994,-2.8994,-2.8994,-2.8994,-2.8994,-2.8994,-2.8994,-2.8994,-2.8994,-2.8994,-2.8994,-2.8994,-2.8994,-2.8994,-2.8994,-2.8994,-2.8767,-2.8601,-2.8669,-2.8334,-2.8129,-2.8156,-2.8129,0.0,-2.8047,-2.8558,-2.8676,-2.8129,-2.8352,-2.8525,-2.8601,-2.8551,-2.8676,-2.8994,-2.9062,-2.9108,-2.9112,-2.9218,-2.9302,-2.9323,-2.9365,-2.9407,-2.9407,-2.9407,-2.9407,-2.9407,-2.9407,-2.9407,-2.9407,-2.9407,-2.9407,-2.9407,-2.9407,-2.9407,-2.9593,-3.1098,-3.2135,-3.2971,-3.2331,-3.2487,-3.2487,-3.255,-3.2471,-3.2456,-3.2511,-3.1956,-3.1523,-3.1523,-3.1505,-3.1505,-3.1523,-3.2097,-3.2464,-3.2464,-3.2478,-3.2545,-3.2751,-3.2608,-3.2621,-3.2796,-3.267,-3.2487,-3.2328,-3.2675,-3.2798,-3.2667,-3.3156,-3.3369,0.0,0.0,0.0,0.0,0.0,0.0,-3.2074,-3.1311,-3.0903,-3.0689,-3.0632,-3.0632,-3.0707,-3.0632,-3.0603,-3.0586,-3.0413,-3.0089,-2.9635,-2.9172,-2.8894,-2.8735,-2.8947,-2.9017,-2.9017,-2.9017,-2.8994,-2.8994,-2.8994,-2.8994,-2.8994,-2.8994,-2.8994,-2.8994,-2.8994,-2.8994,-2.8994,-2.8994,-2.8994,-2.8994,-2.8994,-2.8994,-2.8994,-2.8994,-2.8767,-2.8694,-2.8905,-2.8438,-2.821,-2.8482,-2.8281,-2.802,-2.78,-2.8065,-2.821,-2.8102,-2.7954,-2.8083,-2.8576,-2.8334,-2.8438,-2.8994,-2.9017,-2.9085,-2.9178,-2.9218,-2.9283,-2.9386,-2.9386,-2.9407,-2.9407,-2.9407,-2.9407,-2.9407,-2.9407,-2.9407,-2.9407,-2.9407,-2.9407,-2.9407,-2.9407,-2.9407,-2.9518,-3.0466,-3.1318,-3.221,-3.2813,0.0,0.0,-3.2549,-3.2544,-3.2546,-3.2389,-3.2159,-3.21,-3.2307,-3.2339,-3.2339,-3.2339,-3.2656,-3.2916,-3.2916,-3.2916,-3.2852,-3.2737,-3.2737,-3.2705,-3.2588,-3.2606,-3.2506,-3.2335,-3.2472,-3.2588,-3.2702,-3.2872,-3.3087,-3.3284,-3.3496,0.0,0.0,0.0,-3.3136,0.0,-3.2074,-3.181,-3.1671,-3.164,-3.1671,-3.1671,-3.164,-3.164,-3.1586,-3.1164,-3.082,-3.0433,-2.9898,-2.9398,-2.8992,-2.9099,-2.8864,-2.854,-2.8542,-2.8511,-2.854,-2.8542,-2.8529,-2.859,-2.8759,-2.8676,-2.8583,-2.8743,-2.8651,-2.8533,-2.8533,-2.8533,-2.8583,-2.8767,-2.8791,-2.8858,-2.8994,-2.8767,-2.8644,-2.8767,-2.8386,-2.8156,-2.8308,-2.8183,-2.7992,-2.773,-2.7829,-2.7897,-2.7897,-2.7771,-2.7971,-2.8576,-2.8281,-2.8386,-2.8994,-2.904,-2.9085,-2.9108,-2.9156,-2.9222,-2.9304,-2.9344,-2.9365,-2.9407,-2.9365,-2.9365,-2.9407,-2.9365,-2.9365,-2.9407,-2.9407,-2.9407,-2.9407,-2.9407,-2.9407,-2.95,-3.0318,-3.1117,-3.1968,-3.2602,-3.2638,-3.257,-3.2113,-3.2301,-3.2389,-3.2048,-3.2141,-3.2389,-3.2722,-3.277,-3.277,-3.277,-3.277,-3.277,-3.277,-3.277,-3.2705,-3.2539,-3.2539,-3.2472,-3.2318,-3.2283,-3.2232,-3.2108,-3.2108,-3.2161,-3.2335,-3.2385,-3.2568,-3.2854,-3.2929,-3.2991,0.0,-3.2916,-3.284,-3.2777,-3.2699,-3.2651,-3.2586,-3.2586,-3.2586,-3.2586,-3.2586,-3.2586,-3.2497,-3.1862,-3.1505,-3.1266,-3.0843,-3.0152,-2.9432,-2.9337,-2.8873,-2.8322,-2.8148,-2.8094,-2.8112,-2.8102,-2.8085,-2.8156,-2.8433,-2.8286,-2.8156,-2.843,-2.8281,-2.8102,-2.8102,-2.8102,-2.8183,-2.8456,-2.8482,-2.8601,-2.8881,-2.8676,-2.8525,-2.8576,-2.836,-2.8183,-2.8102,-2.8156,-2.8093,-2.7829,-2.7713,-2.7713,-2.7771,-2.7713,-2.7943,-2.8474,-2.8308,-2.8464,-2.8998,-2.9062,-2.9085,-2.904,-2.9152,-2.9218,-2.9218,-2.9262,-2.9323,-2.9405,-2.9323,-2.9304,-2.9368,-2.9326,-2.9344,-2.9407,-2.9386,-2.9386,-2.9386,-2.9347,-2.9365,-2.9439,-3.0071,-3.0924,-3.1853,-3.1643,-3.1835,-3.1989,-3.1932,-3.2055,-3.2144,-3.2228,-3.2161,-3.2179,-3.2335,-3.2352,-3.2352,-3.2352,-3.2352,-3.2352,-3.2352,-3.2352,-3.2352,-3.2318,-3.2318,-3.2318,-3.2283,-3.2283,-3.2232,-3.2108,-3.2108,-3.2108,-3.2144,-3.23,-3.2403,-3.2369,-3.2791,-3.2978,-3.2903,-3.2903,-3.2699,-3.2352,-3.2352,-3.2179,-3.1893,-3.1893,-3.1893,-3.1893,-3.1893,-3.1893,-3.1875,-3.1823,-3.1752,-3.1752,-3.1668,-3.0907,-2.9843,-2.9439,-2.9259,-2.9035,-2.8299,-2.8093,-2.811,-2.8103,-2.8099,-2.8103,-2.8147,-2.8112,-2.8102,-2.8129,-2.8129,-2.8102,-2.8102,-2.8102,-2.8102,-2.8129,-2.8156,-2.8237,-2.8576,-2.836,-2.8237,-2.8551,-2.8576,-2.843,-2.8129,-2.836,-2.843,-2.8102,-2.784,-2.78,-2.8047,-2.7858,-2.7829,-2.8129,-2.8404,-2.8725,-2.9067,-2.904,-2.9044,-2.9178,-2.9178,-2.924,-2.9302,-2.9302,-2.9339,-2.9397,-2.932,-2.9265,-2.9228,-2.9347,-2.9386,-2.9407,-2.9344,-2.9302,-2.9302,-2.924,-2.9222,-2.924,-2.9376,-3.0354,-3.1639,-3.1738,-3.1969,-3.1977,-3.152,-3.1817,-3.1859,-3.1196,-3.1562,-3.1802,-3.1452,-3.1932,-3.2283,-3.2283,-3.2283,-3.2283,-3.2283,-3.2283,-3.2266,-3.2214,-3.2161,-3.2144,-3.2001,-3.1984,-3.1948,-3.1946,-3.1946,-3.1946,-3.1946,-3.1984,-3.202,-3.1984,-3.2197,-3.2283,-3.2231,-3.2231,-3.2127,-3.1984,-3.1984,-3.1929,-3.18,-3.18,-3.18,-3.18,-3.18,-3.18,-3.18,-3.18,-3.18,-3.18,-3.18,-3.1194,-3.0401,-3.0196,-2.9502,-2.869,-2.8382,-2.797,-2.7631,-2.7612,-2.7622,-2.7661,-2.7835,-2.7747,-2.7672,-2.7811,-2.776,-2.763,-2.763,-2.763,-2.7672,-2.7811,-2.7869,-2.7954,-2.8255,-2.8183,-2.8156,-2.8281,-2.8308,-2.8255,-2.8129,-2.8404,-2.8456,-2.8129,-2.7992,-2.7926,-2.7869,-2.7771,-2.7915,-2.8378,-2.8525,-2.8743,-2.904,-2.9017,-2.904,-2.9085,-2.9085,-2.9112,-2.9175,-2.9175,-2.9215,-2.9277,-2.9215,-2.9156,-2.9138,-2.9243,-2.9283,-2.9283,-2.9336,-2.9277,-2.9185,-2.9163,-2.9163,-2.92,-2.924,-3.0235,-3.1616,-3.1356,-3.1534,-3.1539,-3.0962,-3.1345,-3.1426,-3.0592,-3.1067,-3.1334,-3.0885,-3.1414,-3.186,-3.186,-3.186,-3.186,-3.186,-3.186,-3.1841,-3.1875,-3.1875,-3.1856,-3.18,-3.18,-3.18,-3.18,-3.18,-3.18,-3.18,-3.18,-3.18,-3.18,-3.18,-3.18,-3.18,-3.18,-3.18,-3.18,-3.18,-3.18,-3.18,-3.18,-3.18,-3.18,-3.18,-3.18,-3.18,-3.18,-3.18,-3.18,-3.18,-3.145,-3.0979,-3.0771,-2.9954,-2.9001,-2.8543,-2.8028,-2.7569,-2.7365,-2.7299,-2.7365,-2.7552,-2.7434,-2.7345,-2.7539,-2.7452,-2.7299,-2.7299,-2.7299,-2.7345,-2.7539,-2.7569,-2.7672,-2.7954,-2.7926,-2.7897,-2.7964,-2.7964,-2.7964,-2.7964,-2.8255,-2.836,-2.8129,-2.802,-2.7954,-2.7829,-2.7829,-2.801,-2.843,-2.8626,-2.8815,-2.9017,-2.9017,-2.9017,-2.904,-2.904,-2.9044,-2.9089,-2.9089,-2.913,-2.9215,-2.9112,-2.9089,-2.9134,-2.9178,-2.92,-2.9218,-2.927,-2.9233,-2.9101,-2.9079,-2.9097,-2.9134,-2.9156,-3.0189,-3.1525,-3.0011,-3.0178,-3.0301,-3.0319,-3.0576,-3.08,-3.0781,-3.0788,-3.0804,-3.0804,-3.0788,-3.0845,-3.0845,-3.0845,-3.0845,-3.0845,-3.0845,-3.0965,-3.1295,-3.1295,-3.1466,-3.18,-3.18,-3.18,-3.18,-3.18,-3.18,-3.18,-3.18,-3.18,-3.18,-3.18,-3.18,-3.18,-3.18,-3.18,-3.18,-3.18,-3.18,-3.18,-3.18,-3.18,-3.18,-3.18,-3.18,-3.18,-3.18,-3.18,-3.18,-3.18,-3.1783,-3.1642,-3.0945,-3.0683,-3.0362,-2.886,-2.8401,-2.8247,-2.7518,-2.7299,-2.7299,-2.7299,-2.7299,-2.7299,-2.7282,-2.7282,-2.7299,-2.7299,-2.7299,-2.7299,-2.7282,-2.7282,-2.739,-2.7672,-2.7465,-2.739,-2.7672,-2.7683,-2.7683,-2.7683,-2.7954,-2.8084,-2.8102,-2.7869,-2.7829,-2.8075,-2.8102,-2.8102,-2.8102,-2.8676,-2.904,-2.9108,-2.904,-2.904,-2.9108,-2.9089,-2.9089,-2.9089,-2.9089,-2.9126,-2.9204,-2.9071,-2.9056,-2.92,-2.92,-2.92,-2.9178,-2.9112,-2.9089,-2.9089,-2.904,-2.9017,-2.9017,-2.9085,-3.0097,-3.1409,-3.0201,-3.0459,-3.0592,-3.0346,-3.0567,-3.0667,-3.0274,-3.0535,-3.0642,-3.0215,-3.0368,-3.0393,-3.0215,-3.0559,-3.0804,-3.0804,-3.0804,-3.0845,-3.0965,-3.0965,-3.1004,-3.1123,-3.1123,-3.1123,-3.1123,-3.1334,-3.1466,-3.1466,-3.1671,-3.18,-3.18,-3.1709,-3.1654,-3.1671,-3.1614,-3.1593,-3.1593,-3.1593,-3.1593,-3.1593,-3.1593,-3.1593,-3.1593,-3.1593,-3.1593,-3.1593,-3.1593,-3.1593,-3.1614,-3.164,-3.1642,-3.1642,-3.1485,-3.1102,-3.0495,-2.9433,-2.8783,-2.8247,-2.7518,-2.7299,-2.7267,-2.7206,-2.7154,-2.7152,-2.7122,-2.7137,-2.7184,-2.7282,-2.7299,-2.7299,-2.7299,-2.7299,-2.7313,-2.7421,-2.7345,-2.7313,-2.7421,-2.7421,-2.7421,-2.7421,-2.7672,-2.7829,-2.7829,-2.7742,-2.776,-2.7829,-2.7829,-2.801,-2.843,-2.8791,-2.9017,-2.904,-2.9017,-2.9017,-2.904,-2.904,-2.904,-2.904,-2.904,-2.904,-2.9058,-2.9021,-2.9021,-2.9044,-2.9044,-2.9044,-2.9044,-2.904,-2.904,-2.904,-2.9017,-2.8994,-2.9017,-2.9017,-3.005,-3.1384,-3.0124,-3.0297,-3.0417,-3.0196,-3.0297,-3.0326,-2.9946,-3.0215,-3.0342,-2.9946,-3.006,-3.0087,-2.9902,-3.0215,-3.0452,-3.0452,-3.0452,-3.0477,-3.0584,-3.0625,-3.0666,-3.0788,-3.0804,-3.0804,-3.0804,-3.1004,-3.1123,-3.1123,-3.1257,-3.1334,-3.1411,-3.1334,-3.1372,-3.1559,-3.15,-3.1517,-3.1517,-3.1517,-3.1517,-3.1517,-3.1517,-3.1517,-3.1517,-3.1517,-3.1517,-3.1517,-3.1517,-3.1517,-3.1517,-3.1562,-3.1568,-3.1571,-3.1654,-3.1373,-3.0817,-2.978,-2.9127,-2.8551,-2.7471,-2.7184,-2.7171,-2.7091,-2.7057,-2.7055,-2.7007,-2.7055,-2.7135,-2.7201,-2.725,-2.7299,-2.7299,-2.7299,-2.7299,-2.7299,-2.7299,-2.7299,-2.7299,-2.7299,-2.7299,-2.7299,-2.7452,-2.7539,-2.7539,-2.7539,-2.76,-2.7701,-2.7701,-2.7915,-2.8404,-2.8676,-2.8905,-2.8994,-2.8994,-2.8994,-2.8994,-2.8994,-2.8994,-2.8994,-2.8994,-2.8994,-2.8994,-2.8994,-2.8994,-2.8994,-2.8994,-2.8994,-2.8994,-2.8994,-2.8994,-2.8994,-2.8994,-2.8994,-2.8994,-2.8994,-3.0026,-3.1384,-2.9918,-2.9918,-2.9918,-2.9918,-2.9918,-2.9918,-2.9918,-2.9918,-2.9918,-2.9918,-2.9918,-2.9918,-2.9918,-2.9918,-2.9918,-2.9918,-2.9918,-3.0017,-3.0267,-3.0267,-3.0418,-3.0707,-3.0723,-3.0723,-3.0723,-3.0764,-3.0747,-3.0747,-3.0543,-3.0584,-3.0804,-3.0788,-3.1021,-3.1479,-3.1479,-3.1479,-3.1479,-3.1479,-3.1479,-3.1479,-3.1479,-3.1479,-3.1479,-3.1479,-3.1479,-3.1479,-3.1479,-3.1479,-3.1479,-3.1475,-3.1487,-3.1499,-3.1504,-3.1479,-3.124,-2.9881,-2.945,-2.9059,-2.7493,-2.7053,-2.6992,-2.6992,-2.6992,-2.6975,-2.6975,-2.7055,-2.7103,-2.7103,-2.7201,-2.7282,-2.7299,-2.7299,-2.7299,-2.7299,-2.7299,-2.7299,-2.7299,-2.7299,-2.7299,-2.7299,-2.7299,-2.7299,-2.7299,-2.7299,-2.739,-2.7642,-2.7672,-2.78,-2.8047,-2.8378,-2.8669,-2.8952,-2.8994,-2.8994,-2.8994,-2.8994,-2.8994,-2.8994,-2.8994,-2.8994,-2.8994,-2.8994,-2.8994,-2.8994,-2.9012,-2.9012,-2.8994,-2.8994,-2.8994,-2.8994,-2.8994,-2.8994,-2.8994,-2.8994,-3.0026,-3.1384,-2.9918,-2.9918,-2.9918,-2.9918,-2.9918,-2.9918,-2.9918,-2.9918,-2.9918,-2.9918,-2.9918,-2.9918,-2.9918,-2.9918,-2.9918,-2.9918,-2.9918,-2.9902,-2.9973,-2.9973,-3.0017,-3.0103,-3.0103,-3.0103,-3.0103,-3.0156,-3.0208,-3.026,-3.0218,-3.0402,-3.0804,-3.0707,-3.0885,-3.1351,-3.1291,-3.1269,-3.1269,-3.1269,-3.1269,-3.1269,-3.1269,-3.1269,-3.1269,-3.1269,-3.1269,-3.1269,-3.1269,-3.1269,-3.1286,-3.132,-3.1359,-3.1363,-3.1457,-3.1513,-3.1342,-3.0418,-2.974,-2.9042,-2.8099,-2.7451,-2.6978,-2.6944,-2.6843,-2.6792,-2.6909,-2.6959,-2.6975,-2.707,-2.7135,-2.7184,-2.7282,-2.7299,-2.7299,-2.7299,-2.7299,-2.7299,-2.7299,-2.7299,-2.7299,-2.7299,-2.7299,-2.7299,-2.7299,-2.7299,-2.7313,-2.7407,-2.739,-2.7526,-2.7771,-2.7858,-2.8165,-2.8694,-2.8881,-2.8994,-2.8994,-2.8994,-2.8994,-2.8994,-2.8994,-2.8994,-2.8994,-2.8791,-2.881,-2.8994,-2.9016,-2.8998,-2.8994,-2.8994,-2.8994,-2.8994,-2.8994,-2.8994,-2.8994,-2.8994,-3.0026,-3.1384,-2.9918,-2.9918,-2.9918,-2.9918,-2.9918,-2.9918,-2.9918,-2.9918,-2.9918,-2.9918,-2.9918,-2.9918,-2.9918,-2.9918,-2.9858,-2.9726,-2.9814,-2.9874,-2.9726,-2.9726,-2.9665,-2.9547,-2.9531,-2.9531,-2.9531,-2.956,-2.9528,-2.9451,-2.9451,-2.9673,-3.0021,-2.9935,-3.0149,-3.0625,-3.0576,-3.0535,-3.0535,-3.0535,-3.0658,-3.0878,-3.0878,-3.1015,-3.119,-3.119,-3.119,-3.119,-3.119,-3.119,-3.1151,-3.0992,-3.0905,-3.0898,-3.0749,-3.07,-3.0634,-3.0246,-2.9651,-2.8996,-2.8186,-2.7402,-2.6843,-2.6809,-2.6759,-2.6742,-2.6792,-2.6842,-2.6926,-2.699,-2.7038,-2.7135,-2.7201,-2.725,-2.7299,-2.7299,-2.7299,-2.7299,-2.7299,-2.7299,-2.7299,-2.7299,-2.7299,-2.7299,-2.7299,-2.7299,-2.7299,-2.7299,-2.7299,-2.7376,-2.7496,-2.7612,-2.7915,-2.836,-2.8507,-2.8583,-2.8583,-2.8743,-2.8881,-2.8994,-2.8881,-2.8834,-2.8791,-2.8507,-2.8533,-2.881,-2.8677,-2.8735,-2.8994,-2.8881,-2.8881,-2.8994,-2.8994,-2.8994,-2.8994,-2.8994,-3.0026,-3.1384,-2.9918,-2.9918,-2.9918,-2.9918,-2.9918,-2.9918,-2.9918,-2.9874,-2.9814,-2.9814,-2.9814,-2.977,-2.977,-2.977,-2.9681,-2.9486,-2.9637,-2.9681,-2.9425,-2.9425,-2.935,-2.9121,-2.9075,-2.9075,-2.9075,-2.9075,-2.8936,-2.8653,-2.8653,-2.8826,-2.9074,-2.9074,-2.9348,-2.9793,-2.9793,-2.9793,-2.9793,-2.9793,-3.0011,-3.0393,-3.0393,-3.0617,-3.0975,-3.0975,-3.0975,-3.0975,-3.0975,-3.0975,-3.0935,-3.0518,-3.0375,-3.0314,-2.9913,-2.979,-2.9774,-2.9666,-2.9287,-2.8748,-2.7973,-2.7198,-2.6624,-2.6691,-2.6691,-2.6691,-2.6691,-2.6792,-2.6893,-2.6926,-2.699,-2.7103,-2.7135,-2.7233,-2.7299,-2.7299,-2.7299,-2.7299,-2.7299,-2.7299,-2.7299,-2.7299,-2.7299,-2.7299,-2.7299,-2.7299,-2.7299,-2.7299,-2.7299,-2.7299,-2.7299,-2.7526,-2.7742,-2.7964,-2.8047,-2.8102,-2.8102,-2.836,-2.8651,-2.8863,-2.8626,-2.8507,-2.8507,-2.8201,-2.8228,-2.8525,-2.8183,-2.836,-2.8839,-2.8651,-2.8743,-2.8929,-2.8994,-2.8994,-2.8994,-2.8994,-3.0026,-3.1384,-2.9918,-2.9918,-2.9918,-2.9918,-2.9918,-2.9918,-2.9918,-2.971,-2.956,-2.956,-2.935,-2.9213,-2.9213,-2.9213,-2.9213,-2.9167,-2.9213,-2.9213,-2.9167,-2.9167,-2.9121,-2.9075,-2.9075,-2.9075,-2.9075,-2.8889,-2.8653,-2.8444,-2.8444,-2.8653,-2.9074,-2.9074,-2.9348,-2.9793,-2.9793,-2.9793,-2.9793,-2.9793,-2.9837,-2.9924,-2.9924,-2.9968,-3.0011,-3.0011,-3.0011,-3.0011,-3.0011,-3.0011,-3.0027,-2.9924,-2.9897,-2.9913,-2.981,-2.9782,-2.9713,-2.9095,-2.8466,-2.7869,-2.7745,-2.6984,-2.6274,-2.6607,-2.6691,-2.6691,-2.6691,-2.6742,-2.6775,-2.6942,-2.7007,-2.7072,-2.725,-2.7282,-2.7299,-2.7299,-2.7299,-2.7299,-2.7299,-2.7299,-2.7299,-2.7299,-2.7299,-2.7299,-2.7299,-2.7299,-2.7299,-2.7299,-2.7299,-2.7299,-2.7299,-2.7345,-2.7376,-2.7421,-2.7869,-2.8102,-2.8102,-2.8156,-2.8183,-2.8237,-2.8183,-2.8183,-2.8156,-2.7897,-2.7897,-2.8156,-2.7869,-2.7954,-2.8264,-2.8507,-2.8626,-2.8676,-2.8905,-2.8994,-2.8994,-2.8994,-3.0026,-3.1384,-2.9918,-2.9918,-2.9918,-2.9918,-2.977,-2.9665,-2.9665,-2.9441,-2.9289,-2.9289,-2.9167,-2.9075,-2.9075,-2.9075,-2.9029,-2.8889,-2.8873,-2.8842,-2.8716,-2.8795,-2.8842,-2.8716,-2.8716,-2.8716,-2.8716,-2.8621,-2.8493,-2.8411,-2.8411,-2.8493,-2.8748,-2.8748,-2.8842,-2.9059,-2.9059,-2.9059,-2.9059,-2.9059,-2.9182,-2.9438,-2.9438,-2.9572,-2.9793,-2.9793,-2.9816,-2.9805,-3.0107,-2.9989,-2.9778,-2.9798,-2.9617,-2.9393,-2.9152,-2.9059,-2.8917,-2.825,-2.7576,-2.7029,-2.6639,-2.6314,-2.6132,-2.6332,-2.6539,-2.6691,-2.6691,-2.6691,-2.6725,-2.6808,-2.6925,-2.7024,-2.7122,-2.7218,-2.7299,-2.7299,-2.7299,-2.7299,-2.7299,-2.7299,-2.7299,-2.7299,-2.7299,-2.7299,-2.7299,-2.7299,-2.7299,-2.7299,-2.7299,-2.7299,-2.7299,-2.7299,-2.7299,-2.7299,-2.7539,-2.7742,-2.7869,-2.7869,-2.7954,-2.8102,-2.7936,-2.7869,-2.7869,-2.76,-2.7612,-2.7869,-2.76,-2.773,-2.8102,-2.8093,-2.8299,-2.8601,-2.8743,-2.8881,-2.8994,-2.8994,-3.0026,-3.1384,-2.9814,-2.9814,-2.977,-2.9726,-2.9531,-2.9396,-2.9396,-2.9167,-2.8982,-2.8982,-2.8982,-2.8951,-2.8951,-2.8951,-2.8842,-2.8653,-2.8653,-2.8573,-2.8396,-2.8525,-2.8573,-2.8411,-2.8411,-2.8411,-2.8411,-2.8411,-2.8411,-2.8411,-2.8411,-2.8411,-2.8411,-2.8411,-2.8411,-2.8411,-2.8411,-2.8411,-2.8411,-2.8411,-2.8621,-2.8967,-2.8967,-2.9136,-2.9454,-2.9454,-2.9476,-2.9523,-2.9903,-2.9782,-2.9444,-2.947,-2.9227,-2.8858,-2.8525,-2.8411,-2.8227,-2.7412,-2.6651,-2.5973,-2.5504,-2.5664,-2.599,-2.6085,-2.6401,-2.6691,-2.6691,-2.6691,-2.6691,-2.6742,-2.6892,-2.7007,-2.7007,-2.7169,-2.7299,-2.7299,-2.7299,-2.7299,-2.7299,-2.7299,-2.7299,-2.7299,-2.7299,-2.7299,-2.7299,-2.7299,-2.7299,-2.7299,-2.7299,-2.7299,-2.7299,-2.7299,-2.7299,-2.7299,-2.7299,-2.739,-2.76,-2.76,-2.7713,-2.7926,-2.7701,-2.76,-2.76,-2.739,-2.7421,-2.76,-2.7407,-2.7509,-2.7897,-2.7771,-2.7971,-2.8396,-2.8456,-2.8626,-2.8791,-2.8881,-2.9911,-3.1309,-2.9576,-2.9515,-2.9425,-2.9213,-2.9121,-2.9121,-2.9121,-2.8873,-2.8732,-2.8732,-2.8573,-2.8444,-2.8444,-2.8444,-2.8444,-2.8396,-2.8396,-2.8396,-2.8411,-2.8396,-2.8396,-2.8411,-2.8411,-2.8411,-2.8411,-2.8411,-2.8411,-2.8411,-2.8411,-2.8411,-2.8411,-2.8411,-2.8411,-2.8411,-2.8411,-2.8411,-2.8411,-2.8411,-2.8396,-2.8444,-2.8444,-2.8493,-2.8493,-2.8493,-2.8477,-2.851,-2.8525,-2.8514,-2.8509,-2.8497,-2.8493,-2.8444,-2.8396,-2.8411,-2.815,-2.6826,-2.5515,-2.4544,-2.4871,-2.5253,-2.5615,-2.6016,-2.6401,-2.6691,-2.6691,-2.6691,-2.6742,-2.6842,-2.6959,-2.7007,-2.707,-2.7201,-2.7299,-2.7299,-2.7299,-2.7299,-2.7299,-2.7299,-2.7299,-2.7299,-2.7299,-2.7299,-2.7299,-2.7299,-2.7299,-2.7299,-2.7299,-2.7299,-2.7299,-2.7299,-2.7299,-2.7299,-2.7299,-2.733,-2.7313,-2.7313,-2.7345,-2.7376,-2.7345,-2.7313,-2.7313,-2.733,-2.7313,-2.7313,-2.733,-2.7313,-2.7376,-2.76,-2.773,-2.78,-2.802,-2.8156,-2.821,-2.8507,-2.9642,-3.1056,-2.8904,-2.9106,-2.9213,-2.9121,-2.8982,-2.8826,-2.8826,-2.8653,-2.8525,-2.8525,-2.8444,-2.8411,-2.8411,-2.8411,-2.8411,-2.8411,-2.8411,-2.8411,-2.8411,-2.8411,-2.8411,-2.8411,-2.8411,-2.8411,-2.8411,-2.8411,-2.8411,-2.8411,-2.8411,-2.8411,-2.8411,-2.8411,-2.8411,-2.8411,-2.8411,-2.8411,-2.8411,-2.8411,-2.8411,-2.8411,-2.8411,-2.8411,-2.8411,-2.8411,-2.8411,-2.8427,-2.8709,-2.8651,-2.8451,-2.8732,-2.8653,-2.8411,-2.8411,-2.8411,-2.815,-2.678,-2.5395,-2.4343,-2.4492,-2.4823,-2.5237,-2.5615,-2.6016,-2.6385,-2.6657,-2.6691,-2.6691,-2.6775,-2.6876,-2.6959,-2.6975,-2.7105,-2.7184,-2.7184,-2.725,-2.7299,-2.7299,-2.7299,-2.7299,-2.7299,-2.7299,-2.7299,-2.7299,-2.7299,-2.7299,-2.7299,-2.7299,-2.7299,-2.7299,-2.7299,-2.7299,-2.7299,-2.7299,-2.7299,-2.7299,-2.7299,-2.7299,-2.7299,-2.7299,-2.7299,-2.7299,-2.7299,-2.7299,-2.7299,-2.7299,-2.7299,-2.733,-2.7421,-2.7539,-2.7713,-2.7829,-2.7936,-2.8129,-2.8237,-2.899,-2.997,-2.8207,-2.8527,-2.8779,-2.87,-2.8653,-2.8605,-2.8605,-2.8493,-2.8411,-2.8411,-2.8411,-2.8411,-2.8411,-2.8411,-2.8411,-2.8411,-2.8411,-2.8411,-2.8411,-2.8411,-2.8411,-2.8411,-2.8411,-2.8411,-2.8411,-2.8411,-2.8411,-2.8411,-2.8411,-2.8411,-2.8411,-2.8411,-2.8411,-2.8411,-2.8411,-2.8411,-2.8411,-2.8411,-2.8411,-2.8411,-2.8411,-2.8411,-2.8411,-2.8411,-2.8411,-2.8427,-2.8773,-2.8678,-2.8444,-2.8795,-2.8653,-2.8411,-2.8411,-2.8119,-2.758,-2.6641,-2.5395,-2.4302,-2.4302,-2.4492,-2.4823,-2.5351,-2.5799,-2.621,-2.6624,-2.6691,-2.6691,-2.6691,-2.6792,-2.6893,-2.6893,-2.699,-2.707,-2.7103,-2.7169,-2.7218,-2.7282,-2.725,-2.725,-2.7282,-2.7299,-2.7299,-2.7299,-2.7299,-2.7299,-2.7299,-2.7299,-2.7299,-2.7299,-2.7299,-2.7299,-2.7299,-2.7299,-2.7299,-2.7299,-2.7299,-2.7299,-2.7299,-2.7299,-2.7299,-2.7299,-2.7299,-2.7299,-2.7299,-2.7299,-2.7299,-2.7299,-2.7299,-2.7421,-2.7569,-2.7569,-2.7701,-2.7869,-2.7936,-2.849,-2.9212,-2.755,-2.7815,-2.8042,-2.784,-2.8103,-2.8411,-2.8411,-2.8411,-2.8411,-2.8411,-2.8411,-2.8411,-2.8411,-2.8411,-2.8411,-2.8411,-2.8411,-2.8411,-2.8411,-2.8411,-2.8411,-2.8411,-2.8411,-2.8411,-2.8411,-2.8411,-2.8411,-2.8411,-2.8411,-2.8411,-2.8411,-2.8411,-2.8411,-2.8411,-2.8411,-2.8411,-2.8411,-2.8411,-2.8411,-2.8411,-2.8411,-2.8411,-2.8411,-2.8411,-2.8411,-2.8411,-2.8411,-2.8411,-2.8411,-2.8411,-2.8411,-2.8411,-2.8411,-2.7473,-2.638,-2.6334,-2.5364,-2.4302,-2.4302,-2.4302,-2.4492,-2.5313,-2.5799,-2.621,-2.6624,-2.6691,-2.6691,-2.6691,-2.6792,-2.6893,-2.6893,-2.6942,-2.7007,-2.7103,-2.7055,-2.7089,-2.7267,-2.7184,-2.7152,-2.7282,-2.7299,-2.7299,-2.7299,-2.7299,-2.7299,-2.7299,-2.7299,-2.7299,-2.7299,-2.7299,-2.7299,-2.7299,-2.7299,-2.7299,-2.7299,-2.7299,-2.7299,-2.7299,-2.7299,-2.7299,-2.7299,-2.7299,-2.7299,-2.7299,-2.7299,-2.7299,-2.7299,-2.7299,-2.7299,-2.7299,-2.7299,-2.7299,-2.7313,-2.76,-2.8205,-2.8946,-2.6811,-2.7108,-2.7378,-2.7342,-2.7393,-2.761,-2.794,-2.771,-2.771,-2.8299,-2.8152,-2.8103,-2.8363,-2.8411,-2.8411,-2.8411,-2.8411,-2.8411,-2.8411,-2.8411,-2.8411,-2.8411,-2.8411,-2.8411,-2.8411,-2.8411,-2.8411,-2.8411,-2.8411,-2.8411,-2.8411,-2.8411,-2.8411,-2.8411,-2.8411,-2.8411,-2.8411,-2.8411,-2.8411,-2.8411,-2.8411,-2.8411,-2.8411,-2.8411,-2.8411,-2.8411,-2.8411,-2.8411,-2.8411,-2.8411,-2.8411,-2.8411,-2.8411,-2.7457,-2.6349,-2.6334,-2.5364,-2.4302,-2.4302,-2.4302,-2.4426,-2.4942,-2.516,-2.5427,-2.6139,-2.628,-2.635,-2.6657,-2.6742,-2.6742,-2.6742,-2.6825,-2.6959,-2.6942,-2.7023,-2.707,-2.7152,-2.7201,-2.725,-2.7299,-2.7299,-2.7299,-2.7299,-2.7299,-2.7299,-2.7299,-2.7299,-2.7299,-2.7299,-2.7299,-2.7299,-2.7299,-2.7299,-2.7299,-2.7299,-2.7299,-2.7299,-2.7299,-2.7299,-2.7299,-2.7299,-2.7299,-2.7299,-2.7299,-2.7299,-2.7299,-2.7299,-2.7299,-2.7299,-2.7299,-2.7299,-2.7299,-2.733,-2.7407,-2.756,-2.7782,-2.6258,-2.6616,-2.6864,-2.6864,-2.7019,-2.7174,-2.7458,-2.7291,-2.7291,-2.7825,-2.766,-2.7675,-2.8103,-2.8152,-2.825,-2.8411,-2.8411,-2.8411,-2.8411,-2.8411,-2.8411,-2.8411,-2.8411,-2.8411,-2.8411,-2.8411,-2.8411,-2.8411,-2.8411,-2.8411,-2.8411,-2.8411,-2.8411,-2.8411,-2.8411,-2.8411,-2.8411,-2.8411,-2.8411,-2.8411,-2.8411,-2.8411,-2.8411,-2.8411,-2.8411,-2.8411,-2.8411,-2.8411,-2.8411,-2.8411,-2.8411,-2.8411,-2.8411,-2.7457,-2.6349,-2.6349,-2.5379,-2.4302,-2.4302,-2.4302,-2.4343,-2.4599,-2.4799,-2.5059,-2.5726,-2.5872,-2.598,-2.6385,-2.647,-2.6505,-2.6657,-2.6775,-2.6842,-2.6893,-2.6925,-2.6989,-2.7103,-2.7169,-2.7218,-2.7299,-2.7299,-2.7299,-2.7299,-2.7299,-2.7299,-2.7299,-2.7299,-2.7299,-2.7299,-2.7299,-2.7299,-2.7299,-2.7299,-2.7299,-2.7299,-2.7299,-2.7299,-2.7299,-2.7299,-2.7299,-2.7299,-2.7299,-2.7299,-2.7299,-2.7299,-2.7299,-2.7299,-2.7299,-2.7299,-2.7299,-2.7299,-2.7299,-2.7299,-2.7299,-2.7299,-2.7299,-2.5893,-2.6204,-2.6457,-2.6457,-2.6759,-2.7019,-2.7019,-2.7019,-2.7019,-2.7071,-2.7071,-2.724,-2.7675,-2.779,-2.7955,-2.8299,-2.8396,-2.8411,-2.8411,-2.8411,-2.8411,-2.8411,-2.8411,-2.8411,-2.8411,-2.8411,-2.8411,-2.8411,-2.8411,-2.8411,-2.8411,-2.8411,-2.8411,-2.8411,-2.8411,-2.8411,-2.8411,-2.8411,-2.8411,-2.8411,-2.8411,-2.8411,-2.8411,-2.8411,-2.8411,-2.8411,-2.8411,-2.8411,-2.8411,-2.8411,-2.8411,-2.8411,-2.8411,-2.7473,-2.638,-2.638,-2.5395,-2.4302,-2.4302,-2.4302,-2.4302,-2.4302,-2.4574,-2.4942,-2.5351,-2.5465,-2.5577,-2.6016,-2.6104,-2.621,-2.6624,-2.6691,-2.6742,-2.6842,-2.6792,-2.6808,-2.707,-2.7023,-2.7089,-2.7299,-2.7282,-2.7282,-2.7299,-2.7299,-2.7299,-2.7299,-2.7299,-2.7299,-2.7299,-2.7299,-2.7299,-2.7299,-2.7299,-2.7299,-2.7299,-2.7299,-2.7299,-2.7299,-2.7299,-2.7299,-2.7299,-2.7299,-2.7299,-2.7299,-2.7299,-2.7299,-2.7299,-2.7299,-2.7299,-2.7299,-2.7299,-2.7299,-2.7299,-2.7299,-2.7282,-2.7282,-2.5893,-2.5948,-2.6056,-2.6056,-2.6096,-2.6258,-2.6549,-2.6351,-2.6404,-2.7019,-2.6811,-2.6774,-2.7188,-2.7575,-2.784,-2.794,-2.8201,-2.8411,-2.8411,-2.8411,-2.8411,-2.8411,-2.8411,-2.8411,-2.8411,-2.8411,-2.8411,-2.8411,-2.8411,-2.8411,-2.8411,-2.8411,-2.8411,-2.8411,-2.8411,-2.8411,-2.8411,-2.8411,-2.8411,-2.8411,-2.8411,-2.8411,-2.8411,-2.8411,-2.8411,-2.8411,-2.8411,-2.8411,-2.8411,-2.8411,-2.8411,-2.8411,-2.8411,-2.7473,-2.638,-2.6349,-2.5379,-2.4302,-2.4302,-2.4302,-2.4302,-2.4302,-2.4385,-2.4533,-2.4942,-2.502,-2.5237,-2.5944,-2.6104,-2.621,-2.6624,-2.6691,-2.6691,-2.6742,-2.6792,-2.6909,-2.7007,-2.7007,-2.7089,-2.7299,-2.7201,-2.7184,-2.7282,-2.7299,-2.7299,-2.7299,-2.7299,-2.7299,-2.7299,-2.7299,-2.7299,-2.7299,-2.7299,-2.7299,-2.7299,-2.7299,-2.7299,-2.7299,-2.7299,-2.7299,-2.7299,-2.7299,-2.7299,-2.7299,-2.7299,-2.7299,-2.7299,-2.7299,-2.7299,-2.7299,-2.7299,-2.7299,-2.7299,-2.7299,-2.7233,-2.7152,-2.5893,-2.5893,-2.5893,-2.5893,-2.5893,-2.5948,-2.6204,-2.6056,-2.6042,-2.6457,-2.6351,-2.6365,-2.6759,-2.7034,-2.7255,-2.7458,-2.7875,-2.8088,-2.8088,-2.8299,-2.8411,-2.8411,-2.8411,-2.8411,-2.8411,-2.8411,-2.8411,-2.8411,-2.8411,-2.8411,-2.8411,-2.8411,-2.8411,-2.8411,-2.8411,-2.8411,-2.8411,-2.8411,-2.8411,-2.8411,-2.8411,-2.8411,-2.8411,-2.8411,-2.8411,-2.8411,-2.8411,-2.8411,-2.8411,-2.8411,-2.8411,-2.8411,-2.8411,-2.7703,-2.6795,-2.6457,-2.561,-2.4718,-2.4394,-2.4302,-2.4302,-2.4302,-2.4302,-2.4343,-2.4574,-2.4599,-2.4823,-2.5652,-2.5799,-2.5997,-2.6573,-2.6691,-2.6691,-2.6691,-2.6742,-2.6842,-2.6942,-2.6959,-2.6992,-2.7154,-2.7105,-2.7087,-2.7184,-2.7201,-2.7233,-2.7299,-2.7299,-2.7299,-2.7299,-2.7299,-2.7299,-2.7299,-2.7299,-2.7299,-2.7299,-2.7299,-2.7299,-2.7299,-2.7299,-2.7299,-2.7299,-2.7299,-2.7299,-2.7299,-2.7299,-2.7299,-2.7299,-2.7299,-2.7299,-2.7282,-2.7233,-2.7201,-2.7201,-2.7186,-2.7105,-2.7055,-2.5893,-2.5893,-2.5893,-2.5893,-2.5893,-2.5893,-2.5893,-2.5893,-2.5893,-2.5893,-2.5893,-2.6056,-2.6351,-2.6457,-2.6654,-2.7071,-2.7509,-2.779,-2.779,-2.8201,-2.8411,-2.8411,-2.8411,-2.8411,-2.8411,-2.8411,-2.8411,-2.8411,-2.8411,-2.8411,-2.8411,-2.8411,-2.8411,-2.8411,-2.8411,-2.8411,-2.8411,-2.8411,-2.8411,-2.8411,-2.8411,-2.8411,-2.8411,-2.8411,-2.8411,-2.8411,-2.8411,-2.8411,-2.8411,-2.8411,-2.8411,-2.8411,-2.8411,-2.7934,-2.7257,-2.6595,-2.5887,-2.5164,-2.4487,-2.4302,-2.4302,-2.4302,-2.4302,-2.4302,-2.4302,-2.4302,-2.4492,-2.5237,-2.5389,-2.5652,-2.6436,-2.6624,-2.6624,-2.6691,-2.6691,-2.6742,-2.6893,-2.6893,-2.6909,-2.6975,-2.7007,-2.7055,-2.7135,-2.7135,-2.7184,-2.7282,-2.7299,-2.7299,-2.7299,-2.7299,-2.7299,-2.7299,-2.7299,-2.7299,-2.7299,-2.7299,-2.7299,-2.7299,-2.7299,-2.7299,-2.7299,-2.7299,-2.7299,-2.7299,-2.7299,-2.7299,-2.7299,-2.7282,-2.7282,-2.725,-2.7152,-2.707,-2.707,-2.7007,-2.6975,-2.6992,-2.5893,-2.5893,-2.5893,-2.5893,-2.5893,-2.5893,-2.5893,-2.5893,-2.5893,-2.5893,-2.5893,-2.5893,-2.6002,-2.6297,-2.6654,-2.7071,-2.7509,-2.779,-2.779,-2.8201,-2.8411,-2.8411,-2.8411,-2.8411,-2.8411,-2.8411,-2.8411,-2.8411,-2.8411,-2.8411,-2.8411,-2.8411,-2.8411,-2.8411,-2.8411,-2.8411,-2.8411,-2.8411,-2.8411,-2.8411,-2.8411,-2.8411,-2.8411,-2.8411,-2.8411,-2.8411,-2.8411,-2.8411,-2.8411,-2.8411,-2.8411,-2.8411,-2.8411,-2.7934,-2.7257,-2.6595,-2.5887,-2.5164,-2.4487,-2.4302,-2.4302,-2.4302,-2.4302,-2.4302,-2.4302,-2.4302,-2.4426,-2.4902,-2.4981,-2.5237,-2.6016,-2.6175,-2.628,-2.6657,-2.6691,-2.6742,-2.6893,-2.6792,-2.6775,-2.6975,-2.7055,-2.7152,-2.725,-2.7282,-2.7282,-2.7299,-2.7299,-2.7299,-2.7299,-2.7299,-2.7299,-2.7299,-2.7299,-2.7299,-2.7299,-2.7299,-2.7299,-2.7299,-2.7299,-2.7299,-2.7299,-2.7299,-2.7299,-2.7299,-2.7299,-2.7299,-2.7282,-2.7184,-2.7135,-2.7103,-2.7023,-2.7007,-2.7007,-2.6959,-2.6926,-2.6893,-2.5893,-2.5893,-2.5893,-2.5893,-2.5893,-2.5893,-2.5893,-2.5893,-2.5893,-2.5893,-2.5893,-2.5893,-2.5893,-2.6056,-2.6258,-2.6404,-2.6826,-2.6982,-2.6878,-2.761,-2.7974,-2.7795,-2.8186,-2.8411,-2.8411,-2.8411,-2.8411,-2.8411,-2.8411,-2.8411,-2.8411,-2.8411,-2.8411,-2.8411,-2.8411,-2.8411,-2.8411,-2.8411,-2.8411,-2.8411,-2.8411,-2.8411,-2.8411,-2.8411,-2.8411,-2.8411,-2.8411,-2.8411,-2.8411,-2.8411,-2.8411,-2.8411,-2.8411,-2.8211,-2.7827,-2.7149,-2.6441,-2.5733,-2.5056,-2.4594,-2.4302,-2.4302,-2.4302,-2.4302,-2.4302,-2.4302,-2.441,-2.4823,-2.4902,-2.5098,-2.5652,-2.5762,-2.5835,-2.598,-2.621,-2.6401,-2.6453,-2.659,-2.6725,-2.6808,-2.6875,-2.694,-2.7057,-2.7089,-2.7089,-2.7122,-2.7122,-2.7122,-2.7122,-2.7122,-2.7122,-2.7122,-2.7122,-2.7122,-2.7122,-2.7122,-2.7122,-2.7122,-2.7122,-2.7186,-2.7299,-2.7299,-2.7299,-2.7299,-2.7299,-2.725,-2.7184,-2.7135,-2.707,-2.7023,-2.6975,-2.6909,-2.6825,-2.6792,-2.6792,-2.6792]}]]